Darstellungsparameter: Aktuell verwendete Einstellungen:
Skalierung der Graphiken ... ?
xyx+y,   Skalierungsfaktor:      Skalierung: Modus: x, Faktor: 1
Darstellungszeitraum ... ?
Vom - - bis: - -   Zeitraum: 27.08.2021 - 03.09.2021
Min/Max/Avg-Anzeige ... ?
Zeige MMA aktuell
Zeige MMA Monat
Zeige MMA alles
Zeige --A aktuell
Zeige --A Monat
Zeige --A alles
Keine MMA-Anzeige
MMA:
Keine MMA-Graphiken
MMA-Basis: 27.08.2021 - 03.09.2021
Quicknavigation für Darstellung... ?
Tage:      1T, 2T, 3T, 5T -1T -2T -3T -5T +1T +2T +3T +5T
Wochen: 1W, 2W, 3W -1W -2W -3W +1W +2W +3W
Monate: 1M, 3M, 6M -1M -3M -6M +1M +3M +6M
Jahre:    1J, 3J, 5J, 10J -1J -3J -5J -10J +1J +3J +5J +10J
Nutze für die Darstellung ... ?
Originaldaten oder Mittelwerte auf ...
Stundenbasis Tagesbasis Wochenbasis
Monatsbasis Jahresbasis      Datenbasis: Original-Daten
Darstellen als:
Statistik (Auto) Statistik J:M      Darstellung:
Zur Graphik,    zurück zur Übersicht aller Sensoren.
 
Tabellarische Datenbersicht: ?
 
Sensor: Nr:Datum:Temp:Abs-Feuchte:Windchill:Wind:
Aussen-T/F 1 27-08-2021 00:00:00 15.2 C 11.81 g/m*3 15.2 C 4.8 km/h
2 27-08-2021 00:05:00 15.1 C 11.74 g/m*3 15.1 C 4.8 km/h
3 27-08-2021 00:10:00 15.1 C 11.74 g/m*3 15.1 C 3.2 km/h
4 27-08-2021 00:15:00 15.1 C 11.74 g/m*3 15.1 C 3.2 km/h
5 27-08-2021 00:20:00 14.9 C 11.6 g/m*3 14.9 C 4.8 km/h
6 27-08-2021 00:25:00 14.9 C 11.6 g/m*3 14.9 C 1.6 km/h
7 27-08-2021 00:30:00 14.8 C 11.53 g/m*3 14.8 C 0 km/h
8 27-08-2021 00:35:00 14.7 C 11.46 g/m*3 14.7 C 1.6 km/h
9 27-08-2021 00:40:00 14.6 C 11.39 g/m*3 14.6 C 3.2 km/h
10 27-08-2021 00:45:00 14.4 C 11.25 g/m*3 14.4 C 0 km/h
11 27-08-2021 00:50:00 14.3 C 11.18 g/m*3 14.3 C 1.6 km/h
12 27-08-2021 00:55:00 14.2 C 11.11 g/m*3 14.2 C 1.6 km/h
13 27-08-2021 01:00:00 14.1 C 11.17 g/m*3 14.1 C 3.2 km/h
14 27-08-2021 01:05:00 14.1 C 11.17 g/m*3 14.1 C 1.6 km/h
15 27-08-2021 01:10:00 14.1 C 11.17 g/m*3 14.1 C 1.6 km/h
16 27-08-2021 01:15:00 14 C 11.22 g/m*3 14 C 4.8 km/h
17 27-08-2021 01:20:00 14 C 11.22 g/m*3 14 C 1.6 km/h
18 27-08-2021 01:25:00 14 C 11.22 g/m*3 14 C 3.2 km/h
19 27-08-2021 01:30:00 14 C 11.22 g/m*3 14 C 1.6 km/h
20 27-08-2021 01:35:00 13.9 C 11.15 g/m*3 13.9 C 3.2 km/h
21 27-08-2021 01:40:00 14 C 11.22 g/m*3 14 C 6.4 km/h
22 27-08-2021 01:45:00 14 C 11.22 g/m*3 14 C 3.2 km/h
23 27-08-2021 01:50:00 14.1 C 11.29 g/m*3 14.1 C 3.2 km/h
24 27-08-2021 01:55:00 14.1 C 11.17 g/m*3 14.1 C 6.4 km/h
25 27-08-2021 02:00:00 14.1 C 11.17 g/m*3 14.1 C 4.8 km/h
Sensor: Nr:Datum:Temp:Abs-Feuchte:Windchill:Wind:
Aussen-T/F 26 27-08-2021 02:05:00 14.1 C 11.17 g/m*3 14.1 C 6.4 km/h
27 27-08-2021 02:10:00 14.1 C 11.17 g/m*3 14.1 C 1.6 km/h
28 27-08-2021 02:15:00 14.1 C 11.17 g/m*3 14.1 C 3.2 km/h
29 27-08-2021 02:20:00 14 C 11.1 g/m*3 14 C 0 km/h
30 27-08-2021 02:25:00 13.9 C 11.03 g/m*3 13.9 C 1.6 km/h
31 27-08-2021 02:30:00 13.8 C 10.84 g/m*3 13.8 C 0 km/h
32 27-08-2021 02:35:00 13.7 C 10.89 g/m*3 13.7 C 0 km/h
33 27-08-2021 02:40:00 13.7 C 10.89 g/m*3 13.7 C 4.8 km/h
34 27-08-2021 02:45:00 13.7 C 10.89 g/m*3 13.7 C 1.6 km/h
35 27-08-2021 02:50:00 13.7 C 10.89 g/m*3 13.7 C 0 km/h
36 27-08-2021 02:55:00 13.7 C 10.89 g/m*3 13.7 C 1.6 km/h
37 27-08-2021 03:00:00 13.7 C 10.89 g/m*3 13.7 C 1.6 km/h
38 27-08-2021 03:05:00 13.7 C 11.01 g/m*3 13.7 C 1.6 km/h
39 27-08-2021 03:10:00 13.7 C 11.01 g/m*3 13.7 C 0 km/h
40 27-08-2021 03:15:00 13.7 C 10.89 g/m*3 13.7 C 0 km/h
41 27-08-2021 03:20:00 13.6 C 10.83 g/m*3 13.6 C 3.2 km/h
42 27-08-2021 03:25:00 13.4 C 10.69 g/m*3 13.4 C 4.8 km/h
43 27-08-2021 03:30:00 13.4 C 10.69 g/m*3 13.4 C 1.6 km/h
44 27-08-2021 03:35:00 13.3 C 10.63 g/m*3 13.3 C 3.2 km/h
45 27-08-2021 03:40:00 13.2 C 10.56 g/m*3 13.2 C 3.2 km/h
46 27-08-2021 03:45:00 13.2 C 10.56 g/m*3 13.2 C 4.8 km/h
47 27-08-2021 03:50:00 13.1 C 10.5 g/m*3 13.1 C 1.6 km/h
48 27-08-2021 03:55:00 13.1 C 10.5 g/m*3 13.1 C 3.2 km/h
49 27-08-2021 04:00:00 12.9 C 10.37 g/m*3 12.9 C 0 km/h
50 27-08-2021 04:05:00 12.9 C 10.37 g/m*3 12.9 C 0 km/h
Sensor: Nr:Datum:Temp:Abs-Feuchte:Windchill:Wind:
Aussen-T/F 51 27-08-2021 04:10:00 12.8 C 10.3 g/m*3 12.8 C 1.6 km/h
52 27-08-2021 04:15:00 12.8 C 10.42 g/m*3 12.8 C 8.1 km/h
53 27-08-2021 04:20:00 12.8 C 10.42 g/m*3 12.8 C 1.6 km/h
54 27-08-2021 04:25:00 12.8 C 10.42 g/m*3 12.8 C 3.2 km/h
55 27-08-2021 04:30:00 12.8 C 10.42 g/m*3 12.8 C 0 km/h
56 27-08-2021 04:35:00 12.9 C 10.48 g/m*3 12.9 C 3.2 km/h
57 27-08-2021 04:40:00 12.9 C 10.48 g/m*3 12.9 C 0 km/h
58 27-08-2021 04:45:00 13 C 10.55 g/m*3 13 C 0 km/h
59 27-08-2021 04:50:00 13 C 10.55 g/m*3 13 C 4.8 km/h
60 27-08-2021 04:55:00 13 C 10.55 g/m*3 13 C 1.6 km/h
61 27-08-2021 05:00:00 13 C 10.55 g/m*3 13 C 4.8 km/h
62 27-08-2021 05:05:00 13 C 10.55 g/m*3 13 C 1.6 km/h
63 27-08-2021 05:10:00 13 C 10.55 g/m*3 13 C 1.6 km/h
64 27-08-2021 05:15:00 13.1 C 10.61 g/m*3 13.1 C 0 km/h
65 27-08-2021 05:20:00 13 C 10.43 g/m*3 13 C 0 km/h
66 27-08-2021 05:25:00 12.9 C 10.37 g/m*3 12.9 C 0 km/h
67 27-08-2021 05:30:00 12.9 C 10.37 g/m*3 12.9 C 0 km/h
68 27-08-2021 05:35:00 12.8 C 10.3 g/m*3 12.8 C 0 km/h
69 27-08-2021 05:40:00 12.8 C 10.3 g/m*3 12.8 C 0 km/h
70 27-08-2021 05:45:00 12.7 C 10.24 g/m*3 12.7 C 0 km/h
71 27-08-2021 05:50:00 12.7 C 10.24 g/m*3 12.7 C 0 km/h
72 27-08-2021 05:55:00 12.7 C 10.35 g/m*3 12.7 C 0 km/h
73 27-08-2021 06:00:00 12.7 C 10.35 g/m*3 12.7 C 0 km/h
74 27-08-2021 06:05:00 12.7 C 10.35 g/m*3 12.7 C 0 km/h
75 27-08-2021 06:10:00 12.6 C 10.29 g/m*3 12.6 C 0 km/h
Sensor: Nr:Datum:Temp:Abs-Feuchte:Windchill:Wind:
Aussen-T/F 76 27-08-2021 06:15:00 12.6 C 10.29 g/m*3 12.6 C 0 km/h
77 27-08-2021 06:20:00 12.6 C 10.29 g/m*3 12.6 C 0 km/h
78 27-08-2021 06:25:00 12.6 C 10.29 g/m*3 12.6 C 0 km/h
79 27-08-2021 06:30:00 12.6 C 10.29 g/m*3 12.6 C 0 km/h
80 27-08-2021 06:35:00 12.6 C 10.29 g/m*3 12.6 C 0 km/h
81 27-08-2021 06:40:00 12.6 C 10.29 g/m*3 12.6 C 0 km/h
82 27-08-2021 06:45:00 12.6 C 10.29 g/m*3 12.6 C 0 km/h
83 27-08-2021 06:50:00 12.6 C 10.29 g/m*3 12.6 C 0 km/h
84 27-08-2021 06:55:00 12.7 C 10.35 g/m*3 12.7 C 0 km/h
85 27-08-2021 07:00:00 12.7 C 10.35 g/m*3 12.7 C 0 km/h
86 27-08-2021 07:05:00 12.7 C 10.35 g/m*3 12.7 C 0 km/h
87 27-08-2021 07:10:00 12.7 C 10.35 g/m*3 12.7 C 0 km/h
88 27-08-2021 07:15:00 12.7 C 10.35 g/m*3 12.7 C 0 km/h
89 27-08-2021 07:20:00 12.7 C 10.35 g/m*3 12.7 C 0 km/h
90 27-08-2021 07:25:00 12.8 C 10.42 g/m*3 12.8 C 0 km/h
91 27-08-2021 07:30:00 12.8 C 10.42 g/m*3 12.8 C 0 km/h
92 27-08-2021 07:35:00 12.8 C 10.42 g/m*3 12.8 C 0 km/h
93 27-08-2021 07:40:00 12.8 C 10.42 g/m*3 12.8 C 0 km/h
94 27-08-2021 07:45:00 12.8 C 10.42 g/m*3 12.8 C 0 km/h
95 27-08-2021 07:50:00 12.9 C 10.48 g/m*3 12.9 C 0 km/h
96 27-08-2021 07:55:00 12.9 C 10.37 g/m*3 12.9 C 0 km/h
97 27-08-2021 08:00:00 12.9 C 10.37 g/m*3 12.9 C 4.8 km/h
98 27-08-2021 08:05:00 13 C 10.43 g/m*3 13 C 1.6 km/h
99 27-08-2021 08:10:00 13.1 C 10.5 g/m*3 13.1 C 4.8 km/h
100 27-08-2021 08:15:00 13.1 C 10.5 g/m*3 13.1 C 0 km/h
Sensor: Nr:Datum:Temp:Abs-Feuchte:Windchill:Wind:
Aussen-T/F 101 27-08-2021 08:20:00 13.2 C 10.56 g/m*3 13.2 C 1.6 km/h
102 27-08-2021 08:25:00 13.2 C 10.56 g/m*3 13.2 C 0 km/h
103 27-08-2021 08:30:00 13.2 C 10.56 g/m*3 13.2 C 1.6 km/h
104 27-08-2021 08:35:00 13.3 C 10.51 g/m*3 13.3 C 6.4 km/h
105 27-08-2021 08:40:00 13.3 C 10.51 g/m*3 13.3 C 9.7 km/h
106 27-08-2021 08:45:00 13.3 C 10.51 g/m*3 13.3 C 6.4 km/h
107 27-08-2021 08:50:00 13.3 C 10.51 g/m*3 13.3 C 6.4 km/h
108 27-08-2021 08:55:00 13.4 C 10.58 g/m*3 13.4 C 1.6 km/h
109 27-08-2021 09:00:00 13.4 C 10.58 g/m*3 13.4 C 1.6 km/h
110 27-08-2021 09:05:00 13.6 C 10.71 g/m*3 13.6 C 4.8 km/h
111 27-08-2021 09:10:00 13.7 C 10.78 g/m*3 13.7 C 11.3 km/h
112 27-08-2021 09:15:00 13.8 C 10.72 g/m*3 13.8 C 11.3 km/h
113 27-08-2021 09:20:00 13.8 C 10.72 g/m*3 13.8 C 9.7 km/h
114 27-08-2021 09:25:00 13.9 C 10.79 g/m*3 13.9 C 8.1 km/h
115 27-08-2021 09:30:00 13.9 C 10.67 g/m*3 13.9 C 9.7 km/h
116 27-08-2021 09:35:00 14 C 10.61 g/m*3 14 C 16.1 km/h
117 27-08-2021 09:40:00 14.1 C 10.8 g/m*3 14.1 C 6.4 km/h
118 27-08-2021 09:45:00 14.1 C 10.68 g/m*3 14.1 C 4.8 km/h
119 27-08-2021 09:50:00 14.2 C 10.75 g/m*3 14.2 C 8.1 km/h
120 27-08-2021 09:55:00 14.3 C 10.81 g/m*3 14.3 C 8.1 km/h
121 27-08-2021 10:00:00 14.3 C 10.81 g/m*3 14.3 C 8.1 km/h
122 27-08-2021 10:05:00 14.4 C 10.75 g/m*3 14.4 C 8.1 km/h
123 27-08-2021 10:10:00 14.5 C 10.82 g/m*3 14.5 C 4.8 km/h
124 27-08-2021 10:15:00 14.6 C 10.89 g/m*3 14.6 C 9.7 km/h
125 27-08-2021 10:20:00 14.7 C 10.95 g/m*3 14.7 C 11.3 km/h
Sensor: Nr:Datum:Temp:Abs-Feuchte:Windchill:Wind:
Aussen-T/F 126 27-08-2021 10:25:00 14.8 C 10.89 g/m*3 14.8 C 8.1 km/h
127 27-08-2021 10:30:00 14.8 C 10.89 g/m*3 14.8 C 6.4 km/h
128 27-08-2021 10:35:00 14.8 C 10.89 g/m*3 14.8 C 8.1 km/h
129 27-08-2021 10:40:00 14.9 C 10.96 g/m*3 14.9 C 6.4 km/h
130 27-08-2021 10:45:00 14.9 C 10.96 g/m*3 14.9 C 11.3 km/h
131 27-08-2021 10:50:00 15.1 C 11.09 g/m*3 15.1 C 9.7 km/h
132 27-08-2021 10:55:00 15.2 C 11.03 g/m*3 15.2 C 6.4 km/h
133 27-08-2021 11:00:00 15.3 C 11.23 g/m*3 15.3 C 8.1 km/h
134 27-08-2021 11:05:00 15.4 C 11.04 g/m*3 15.4 C 16.1 km/h
135 27-08-2021 11:10:00 15.4 C 11.04 g/m*3 15.4 C 12.9 km/h
136 27-08-2021 11:15:00 15.4 C 11.04 g/m*3 15.4 C 12.9 km/h
137 27-08-2021 11:20:00 15.5 C 10.97 g/m*3 15.5 C 12.9 km/h
138 27-08-2021 11:25:00 15.6 C 11.04 g/m*3 15.6 C 9.7 km/h
139 27-08-2021 11:30:00 15.7 C 10.97 g/m*3 15.7 C 9.7 km/h
140 27-08-2021 11:35:00 15.8 C 11.04 g/m*3 15.8 C 6.4 km/h
141 27-08-2021 11:40:00 15.9 C 11.1 g/m*3 15.9 C 12.9 km/h
142 27-08-2021 11:45:00 15.9 C 11.1 g/m*3 15.9 C 11.3 km/h
143 27-08-2021 11:50:00 16.1 C 11.24 g/m*3 16.1 C 11.3 km/h
144 27-08-2021 11:55:00 16.1 C 11.24 g/m*3 16.1 C 11.3 km/h
145 27-08-2021 12:00:00 16.2 C 11.31 g/m*3 16.2 C 14.5 km/h
146 27-08-2021 12:05:00 16.2 C 11.31 g/m*3 16.2 C 8.1 km/h
147 27-08-2021 12:10:00 16.3 C 11.24 g/m*3 16.3 C 14.5 km/h
148 27-08-2021 12:15:00 16.3 C 11.1 g/m*3 16.3 C 14.5 km/h
149 27-08-2021 12:20:00 16.4 C 11.17 g/m*3 16.4 C 19.3 km/h
150 27-08-2021 12:25:00 16.5 C 11.09 g/m*3 16.5 C 9.7 km/h
Sensor: Nr:Datum:Temp:Abs-Feuchte:Windchill:Wind:
Aussen-T/F 151 27-08-2021 12:30:00 16.6 C 11.3 g/m*3 16.6 C 8.1 km/h
152 27-08-2021 12:35:00 16.7 C 11.37 g/m*3 16.7 C 12.9 km/h
153 27-08-2021 12:40:00 16.8 C 11.44 g/m*3 16.8 C 14.5 km/h
154 27-08-2021 12:45:00 16.8 C 11.15 g/m*3 16.8 C 14.5 km/h
155 27-08-2021 12:50:00 16.7 C 11.08 g/m*3 16.7 C 16.1 km/h
156 27-08-2021 12:55:00 16.6 C 11.16 g/m*3 16.6 C 11.3 km/h
157 27-08-2021 13:00:00 16.6 C 11.3 g/m*3 16.6 C 11.3 km/h
158 27-08-2021 13:05:00 16.7 C 11.37 g/m*3 16.7 C 14.5 km/h
159 27-08-2021 13:10:00 16.9 C 11.22 g/m*3 16.9 C 11.3 km/h
160 27-08-2021 13:15:00 17 C 11.29 g/m*3 17 C 12.9 km/h
161 27-08-2021 13:20:00 17.1 C 11.35 g/m*3 17.1 C 9.7 km/h
162 27-08-2021 13:25:00 17.3 C 11.34 g/m*3 17.3 C 12.9 km/h
163 27-08-2021 13:30:00 17.5 C 11.33 g/m*3 17.5 C 17.7 km/h
164 27-08-2021 13:35:00 17.6 C 11.4 g/m*3 17.6 C 16.1 km/h
165 27-08-2021 13:40:00 17.7 C 11.32 g/m*3 17.7 C 19.3 km/h
166 27-08-2021 13:45:00 17.8 C 11.38 g/m*3 17.8 C 14.5 km/h
167 27-08-2021 13:50:00 17.9 C 11.3 g/m*3 17.9 C 9.7 km/h
168 27-08-2021 13:55:00 17.8 C 11.38 g/m*3 17.8 C 9.7 km/h
169 27-08-2021 14:00:00 17.6 C 11.4 g/m*3 17.6 C 19.3 km/h
170 27-08-2021 14:05:00 17.2 C 11.28 g/m*3 17.2 C 14.5 km/h
171 27-08-2021 14:10:00 16.9 C 11.36 g/m*3 16.9 C 16.1 km/h
172 27-08-2021 14:15:00 16.8 C 11.44 g/m*3 16.8 C 6.4 km/h
173 27-08-2021 14:20:00 16.8 C 11.58 g/m*3 16.8 C 12.9 km/h
174 27-08-2021 14:25:00 16.9 C 11.51 g/m*3 16.9 C 9.7 km/h
175 27-08-2021 14:30:00 16.9 C 11.36 g/m*3 16.9 C 11.3 km/h
Sensor: Nr:Datum:Temp:Abs-Feuchte:Windchill:Wind:
Aussen-T/F 176 27-08-2021 14:35:00 17.1 C 11.65 g/m*3 17.1 C 12.9 km/h
177 27-08-2021 14:40:00 17.1 C 11.65 g/m*3 17.1 C 14.5 km/h
178 27-08-2021 14:45:00 17.1 C 11.5 g/m*3 17.1 C 12.9 km/h
179 27-08-2021 14:50:00 17.1 C 11.65 g/m*3 17.1 C 12.9 km/h
180 27-08-2021 14:55:00 17.2 C 11.72 g/m*3 17.2 C 9.7 km/h
181 27-08-2021 15:00:00 17.2 C 11.42 g/m*3 17.2 C 16.1 km/h
182 27-08-2021 15:05:00 17.3 C 11.64 g/m*3 17.3 C 4.8 km/h
183 27-08-2021 15:10:00 17.5 C 11.78 g/m*3 17.5 C 9.7 km/h
184 27-08-2021 15:15:00 17.6 C 11.7 g/m*3 17.6 C 14.5 km/h
185 27-08-2021 15:20:00 17.6 C 11.7 g/m*3 17.6 C 11.3 km/h
186 27-08-2021 15:25:00 17.6 C 11.7 g/m*3 17.6 C 11.3 km/h
187 27-08-2021 15:30:00 17.6 C 12.15 g/m*3 17.6 C 6.4 km/h
188 27-08-2021 15:35:00 17.6 C 12.3 g/m*3 17.6 C 4.8 km/h
189 27-08-2021 15:40:00 17.5 C 12.23 g/m*3 17.5 C 11.3 km/h
190 27-08-2021 15:45:00 17.4 C 12.15 g/m*3 17.4 C 12.9 km/h
191 27-08-2021 15:50:00 17.3 C 12.08 g/m*3 17.3 C 9.7 km/h
192 27-08-2021 15:55:00 17.4 C 12.3 g/m*3 17.4 C 11.3 km/h
193 27-08-2021 16:00:00 17.4 C 12.3 g/m*3 17.4 C 11.3 km/h
194 27-08-2021 16:05:00 17.4 C 12.15 g/m*3 17.4 C 9.7 km/h
195 27-08-2021 16:10:00 17.6 C 12.3 g/m*3 17.6 C 9.7 km/h
196 27-08-2021 16:15:00 17.7 C 12.22 g/m*3 17.7 C 6.4 km/h
197 27-08-2021 16:20:00 17.8 C 12.14 g/m*3 17.8 C 12.9 km/h
198 27-08-2021 16:25:00 17.8 C 11.99 g/m*3 17.8 C 8.1 km/h
199 27-08-2021 16:30:00 17.8 C 11.99 g/m*3 17.8 C 12.9 km/h
200 27-08-2021 16:35:00 17.7 C 11.92 g/m*3 17.7 C 19.3 km/h
Sensor: Nr:Datum:Temp:Abs-Feuchte:Windchill:Wind:
Aussen-T/F 201 27-08-2021 16:40:00 17.6 C 12 g/m*3 17.6 C 16.1 km/h
202 27-08-2021 16:45:00 17.2 C 11.86 g/m*3 17.2 C 17.7 km/h
203 27-08-2021 16:50:00 16.9 C 12.08 g/m*3 16.9 C 9.7 km/h
204 27-08-2021 16:55:00 16.8 C 12.01 g/m*3 16.8 C 11.3 km/h
205 27-08-2021 17:00:00 16.8 C 12.15 g/m*3 16.8 C 12.9 km/h
206 27-08-2021 17:05:00 16.7 C 12.08 g/m*3 16.7 C 14.5 km/h
207 27-08-2021 17:10:00 16.7 C 12.22 g/m*3 16.7 C 11.3 km/h
208 27-08-2021 17:15:00 16.6 C 12.15 g/m*3 16.6 C 9.7 km/h
209 27-08-2021 17:20:00 16.4 C 12.14 g/m*3 16.4 C 4.8 km/h
210 27-08-2021 17:25:00 16.6 C 12.57 g/m*3 16.6 C 3.2 km/h
211 27-08-2021 17:30:00 16.7 C 12.51 g/m*3 16.7 C 8.1 km/h
212 27-08-2021 17:35:00 16.7 C 12.51 g/m*3 16.7 C 11.3 km/h
213 27-08-2021 17:40:00 16.6 C 12.29 g/m*3 16.6 C 6.4 km/h
214 27-08-2021 17:45:00 16.6 C 12.29 g/m*3 16.6 C 9.7 km/h
215 27-08-2021 17:50:00 16.6 C 12.43 g/m*3 16.6 C 6.4 km/h
216 27-08-2021 17:55:00 16.5 C 12.22 g/m*3 16.5 C 9.7 km/h
217 27-08-2021 18:00:00 16.5 C 12.22 g/m*3 16.5 C 4.8 km/h
218 27-08-2021 18:05:00 16.6 C 12.43 g/m*3 16.6 C 1.6 km/h
219 27-08-2021 18:10:00 16.4 C 12.14 g/m*3 16.4 C 9.7 km/h
220 27-08-2021 18:15:00 16.5 C 12.36 g/m*3 16.5 C 0 km/h
221 27-08-2021 18:20:00 16.4 C 12.28 g/m*3 16.4 C 6.4 km/h
222 27-08-2021 18:25:00 16.3 C 12.21 g/m*3 16.3 C 3.2 km/h
223 27-08-2021 18:30:00 16.2 C 12 g/m*3 16.2 C 14.5 km/h
224 27-08-2021 18:35:00 16.1 C 11.79 g/m*3 16.1 C 17.7 km/h
225 27-08-2021 18:40:00 16.1 C 11.93 g/m*3 16.1 C 3.2 km/h
Sensor: Nr:Datum:Temp:Abs-Feuchte:Windchill:Wind:
Aussen-T/F 226 27-08-2021 18:45:00 16.1 C 12.06 g/m*3 16.1 C 3.2 km/h
227 27-08-2021 18:50:00 16.2 C 12.27 g/m*3 16.2 C 0 km/h
228 27-08-2021 18:55:00 16.2 C 12.14 g/m*3 16.2 C 4.8 km/h
229 27-08-2021 19:00:00 16.2 C 12 g/m*3 16.2 C 9.7 km/h
230 27-08-2021 19:05:00 16.1 C 11.79 g/m*3 16.1 C 14.5 km/h
231 27-08-2021 19:10:00 16 C 11.85 g/m*3 16 C 9.7 km/h
232 27-08-2021 19:15:00 15.8 C 11.58 g/m*3 15.8 C 8.1 km/h
233 27-08-2021 19:20:00 15.7 C 11.51 g/m*3 15.7 C 9.7 km/h
234 27-08-2021 19:25:00 15.7 C 11.51 g/m*3 15.7 C 4.8 km/h
235 27-08-2021 19:30:00 15.6 C 11.44 g/m*3 15.6 C 6.4 km/h
236 27-08-2021 19:35:00 15.6 C 11.44 g/m*3 15.6 C 9.7 km/h
237 27-08-2021 19:40:00 15.6 C 11.57 g/m*3 15.6 C 11.3 km/h
238 27-08-2021 19:45:00 15.6 C 11.57 g/m*3 15.6 C 4.8 km/h
239 27-08-2021 19:50:00 15.5 C 11.5 g/m*3 15.5 C 9.7 km/h
240 27-08-2021 19:55:00 15.4 C 11.43 g/m*3 15.4 C 4.8 km/h
241 27-08-2021 20:00:00 15.4 C 11.43 g/m*3 15.4 C 8.1 km/h
242 27-08-2021 20:05:00 15.4 C 11.43 g/m*3 15.4 C 9.7 km/h
243 27-08-2021 20:10:00 15.4 C 11.56 g/m*3 15.4 C 6.4 km/h
244 27-08-2021 20:15:00 15.4 C 11.56 g/m*3 15.4 C 3.2 km/h
245 27-08-2021 20:20:00 15.4 C 11.56 g/m*3 15.4 C 9.7 km/h
246 27-08-2021 20:25:00 15.4 C 11.56 g/m*3 15.4 C 4.8 km/h
247 27-08-2021 20:30:00 15.3 C 11.49 g/m*3 15.3 C 3.2 km/h
248 27-08-2021 20:35:00 15.3 C 11.49 g/m*3 15.3 C 8.1 km/h
249 27-08-2021 20:40:00 15.3 C 11.49 g/m*3 15.3 C 0 km/h
250 27-08-2021 20:45:00 15.3 C 11.62 g/m*3 15.3 C 0 km/h
Sensor: Nr:Datum:Temp:Abs-Feuchte:Windchill:Wind:
Aussen-T/F 251 27-08-2021 20:50:00 15.3 C 11.62 g/m*3 15.3 C 3.2 km/h
252 27-08-2021 20:55:00 15.2 C 11.55 g/m*3 15.2 C 4.8 km/h
253 27-08-2021 21:00:00 15.1 C 11.61 g/m*3 15.1 C 1.6 km/h
254 27-08-2021 21:05:00 15.1 C 11.61 g/m*3 15.1 C 4.8 km/h
255 27-08-2021 21:10:00 15 C 11.54 g/m*3 15 C 1.6 km/h
256 27-08-2021 21:15:00 14.9 C 11.47 g/m*3 14.9 C 1.6 km/h
257 27-08-2021 21:20:00 14.9 C 11.6 g/m*3 14.9 C 1.6 km/h
258 27-08-2021 21:25:00 14.9 C 11.6 g/m*3 14.9 C 0 km/h
259 27-08-2021 21:30:00 14.8 C 11.53 g/m*3 14.8 C 1.6 km/h
260 27-08-2021 21:35:00 14.7 C 11.46 g/m*3 14.7 C 3.2 km/h
261 27-08-2021 21:40:00 14.6 C 11.39 g/m*3 14.6 C 1.6 km/h
262 27-08-2021 21:45:00 14.6 C 11.51 g/m*3 14.6 C 3.2 km/h
263 27-08-2021 21:50:00 14.6 C 11.51 g/m*3 14.6 C 6.4 km/h
264 27-08-2021 21:55:00 14.6 C 11.51 g/m*3 14.6 C 3.2 km/h
265 27-08-2021 22:00:00 14.6 C 11.51 g/m*3 14.6 C 0 km/h
266 27-08-2021 22:05:00 14.6 C 11.51 g/m*3 14.6 C 3.2 km/h
267 27-08-2021 22:10:00 14.5 C 11.44 g/m*3 14.5 C 1.6 km/h
268 27-08-2021 22:15:00 14.5 C 11.44 g/m*3 14.5 C 1.6 km/h
269 27-08-2021 22:20:00 14.4 C 11.37 g/m*3 14.4 C 1.6 km/h
270 27-08-2021 22:25:00 14.4 C 11.37 g/m*3 14.4 C 1.6 km/h
271 27-08-2021 22:30:00 14.4 C 11.37 g/m*3 14.4 C 0 km/h
272 27-08-2021 22:35:00 14.4 C 11.37 g/m*3 14.4 C 0 km/h
273 27-08-2021 22:40:00 14.4 C 11.5 g/m*3 14.4 C 0 km/h
274 27-08-2021 22:45:00 14.4 C 11.5 g/m*3 14.4 C 1.6 km/h
275 27-08-2021 22:50:00 14.4 C 11.5 g/m*3 14.4 C 1.6 km/h
Sensor: Nr:Datum:Temp:Abs-Feuchte:Windchill:Wind:
Aussen-T/F 276 27-08-2021 22:55:00 14.4 C 11.5 g/m*3 14.4 C 0 km/h
277 27-08-2021 23:00:00 14.4 C 11.5 g/m*3 14.4 C 0 km/h
278 27-08-2021 23:05:00 14.4 C 11.5 g/m*3 14.4 C 0 km/h
279 27-08-2021 23:10:00 14.4 C 11.5 g/m*3 14.4 C 1.6 km/h
280 27-08-2021 23:15:00 14.4 C 11.5 g/m*3 14.4 C 0 km/h
281 27-08-2021 23:20:00 14.4 C 11.62 g/m*3 14.4 C 0 km/h
282 27-08-2021 23:25:00 14.4 C 11.5 g/m*3 14.4 C 0 km/h
283 27-08-2021 23:30:00 14.4 C 11.5 g/m*3 14.4 C 1.6 km/h
284 27-08-2021 23:35:00 14.4 C 11.5 g/m*3 14.4 C 0 km/h
285 27-08-2021 23:40:00 14.4 C 11.62 g/m*3 14.4 C 0 km/h
286 27-08-2021 23:45:00 14.4 C 11.62 g/m*3 14.4 C 0 km/h
287 27-08-2021 23:50:00 14.4 C 11.62 g/m*3 14.4 C 1.6 km/h
288 27-08-2021 23:55:00 14.4 C 11.62 g/m*3 14.4 C 1.6 km/h
289 28-08-2021 00:00:00 14.4 C 11.62 g/m*3 14.4 C 6.4 km/h
290 28-08-2021 00:05:00 14.4 C 11.62 g/m*3 14.4 C 4.8 km/h
291 28-08-2021 00:10:00 14.4 C 11.62 g/m*3 14.4 C 1.6 km/h
292 28-08-2021 00:15:00 14.4 C 11.62 g/m*3 14.4 C 4.8 km/h
293 28-08-2021 00:20:00 14.4 C 11.62 g/m*3 14.4 C 6.4 km/h
294 28-08-2021 00:25:00 14.5 C 11.69 g/m*3 14.5 C 1.6 km/h
295 28-08-2021 00:30:00 14.5 C 11.69 g/m*3 14.5 C 3.2 km/h
296 28-08-2021 00:35:00 14.6 C 11.76 g/m*3 14.6 C 1.6 km/h
297 28-08-2021 00:40:00 14.6 C 11.76 g/m*3 14.6 C 6.4 km/h
298 28-08-2021 00:45:00 14.6 C 11.76 g/m*3 14.6 C 1.6 km/h
299 28-08-2021 00:50:00 14.6 C 11.76 g/m*3 14.6 C 0 km/h
300 28-08-2021 00:55:00 14.6 C 11.76 g/m*3 14.6 C 1.6 km/h
Sensor: Nr:Datum:Temp:Abs-Feuchte:Windchill:Wind:
Aussen-T/F 301 28-08-2021 01:00:00 14.6 C 11.76 g/m*3 14.6 C 3.2 km/h
302 28-08-2021 01:05:00 14.6 C 11.76 g/m*3 14.6 C 4.8 km/h
303 28-08-2021 01:10:00 14.5 C 11.69 g/m*3 14.5 C 0 km/h
304 28-08-2021 01:15:00 14.5 C 11.69 g/m*3 14.5 C 6.4 km/h
305 28-08-2021 01:20:00 14.4 C 11.62 g/m*3 14.4 C 1.6 km/h
306 28-08-2021 01:25:00 14.4 C 11.62 g/m*3 14.4 C 0 km/h
307 28-08-2021 01:30:00 14.3 C 11.55 g/m*3 14.3 C 3.2 km/h
308 28-08-2021 01:35:00 14.3 C 11.55 g/m*3 14.3 C 1.6 km/h
309 28-08-2021 01:40:00 14.3 C 11.55 g/m*3 14.3 C 4.8 km/h
310 28-08-2021 01:45:00 14.3 C 11.67 g/m*3 14.3 C 1.6 km/h
311 28-08-2021 01:50:00 14.3 C 11.67 g/m*3 14.3 C 1.6 km/h
312 28-08-2021 01:55:00 14.2 C 11.6 g/m*3 14.2 C 0 km/h
313 28-08-2021 02:00:00 14.2 C 11.6 g/m*3 14.2 C 0 km/h
314 28-08-2021 02:05:00 14.2 C 11.6 g/m*3 14.2 C 6.4 km/h
315 28-08-2021 02:10:00 14.2 C 11.6 g/m*3 14.2 C 8.1 km/h
316 28-08-2021 02:15:00 14.2 C 11.6 g/m*3 14.2 C 8.1 km/h
317 28-08-2021 02:20:00 14.2 C 11.6 g/m*3 14.2 C 4.8 km/h
318 28-08-2021 02:25:00 14.2 C 11.6 g/m*3 14.2 C 1.6 km/h
319 28-08-2021 02:30:00 14.1 C 11.53 g/m*3 14.1 C 1.6 km/h
320 28-08-2021 02:35:00 14.1 C 11.53 g/m*3 14.1 C 0 km/h
321 28-08-2021 02:40:00 14.1 C 11.53 g/m*3 14.1 C 1.6 km/h
322 28-08-2021 02:45:00 14.1 C 11.53 g/m*3 14.1 C 0 km/h
323 28-08-2021 02:50:00 14.1 C 11.53 g/m*3 14.1 C 0 km/h
324 28-08-2021 02:55:00 14.1 C 11.53 g/m*3 14.1 C 0 km/h
325 28-08-2021 03:00:00 14 C 11.46 g/m*3 14 C 0 km/h
Sensor: Nr:Datum:Temp:Abs-Feuchte:Windchill:Wind:
Aussen-T/F 326 28-08-2021 03:05:00 14 C 11.46 g/m*3 14 C 0 km/h
327 28-08-2021 03:10:00 13.9 C 11.39 g/m*3 13.9 C 0 km/h
328 28-08-2021 03:15:00 13.9 C 11.39 g/m*3 13.9 C 0 km/h
329 28-08-2021 03:20:00 13.9 C 11.39 g/m*3 13.9 C 0 km/h
330 28-08-2021 03:25:00 13.9 C 11.39 g/m*3 13.9 C 0 km/h
331 28-08-2021 03:30:00 13.9 C 11.39 g/m*3 13.9 C 0 km/h
332 28-08-2021 03:35:00 13.9 C 11.51 g/m*3 13.9 C 0 km/h
333 28-08-2021 03:40:00 14 C 11.58 g/m*3 14 C 0 km/h
334 28-08-2021 03:45:00 14 C 11.58 g/m*3 14 C 0 km/h
335 28-08-2021 03:50:00 14 C 11.58 g/m*3 14 C 4.8 km/h
336 28-08-2021 03:55:00 14 C 11.58 g/m*3 14 C 3.2 km/h
337 28-08-2021 04:00:00 14.1 C 11.65 g/m*3 14.1 C 8.1 km/h
338 28-08-2021 04:05:00 14.1 C 11.65 g/m*3 14.1 C 3.2 km/h
339 28-08-2021 04:10:00 14.1 C 11.65 g/m*3 14.1 C 3.2 km/h
340 28-08-2021 04:15:00 14.1 C 11.65 g/m*3 14.1 C 4.8 km/h
341 28-08-2021 04:20:00 14.1 C 11.65 g/m*3 14.1 C 4.8 km/h
342 28-08-2021 04:25:00 14.1 C 11.65 g/m*3 14.1 C 4.8 km/h
343 28-08-2021 04:30:00 14.1 C 11.65 g/m*3 14.1 C 6.4 km/h
344 28-08-2021 04:35:00 14.1 C 11.65 g/m*3 14.1 C 1.6 km/h
345 28-08-2021 04:40:00 14.1 C 11.65 g/m*3 14.1 C 0 km/h
346 28-08-2021 04:45:00 14.1 C 11.65 g/m*3 14.1 C 8.1 km/h
347 28-08-2021 04:50:00 14.1 C 11.65 g/m*3 14.1 C 4.8 km/h
348 28-08-2021 04:55:00 14.1 C 11.65 g/m*3 14.1 C 3.2 km/h
349 28-08-2021 05:00:00 14.1 C 11.65 g/m*3 14.1 C 1.6 km/h
350 28-08-2021 05:05:00 14 C 11.58 g/m*3 14 C 6.4 km/h
Sensor: Nr:Datum:Temp:Abs-Feuchte:Windchill:Wind:
Aussen-T/F 351 28-08-2021 05:10:00 14 C 11.58 g/m*3 14 C 4.8 km/h
352 28-08-2021 05:15:00 14 C 11.58 g/m*3 14 C 3.2 km/h
353 28-08-2021 05:20:00 14 C 11.58 g/m*3 14 C 3.2 km/h
354 28-08-2021 05:25:00 14 C 11.58 g/m*3 14 C 0 km/h
355 28-08-2021 05:30:00 14 C 11.58 g/m*3 14 C 6.4 km/h
356 28-08-2021 05:35:00 13.9 C 11.51 g/m*3 13.9 C 0 km/h
357 28-08-2021 05:40:00 13.9 C 11.51 g/m*3 13.9 C 0 km/h
358 28-08-2021 05:45:00 14 C 11.58 g/m*3 14 C 0 km/h
359 28-08-2021 05:50:00 14 C 11.58 g/m*3 14 C 1.6 km/h
360 28-08-2021 05:55:00 14 C 11.58 g/m*3 14 C 0 km/h
361 28-08-2021 06:00:00 13.9 C 11.51 g/m*3 13.9 C 8.1 km/h
362 28-08-2021 06:05:00 13.9 C 11.51 g/m*3 13.9 C 3.2 km/h
363 28-08-2021 06:10:00 13.9 C 11.51 g/m*3 13.9 C 1.6 km/h
364 28-08-2021 06:15:00 14 C 11.58 g/m*3 14 C 3.2 km/h
365 28-08-2021 06:20:00 13.9 C 11.51 g/m*3 13.9 C 3.2 km/h
366 28-08-2021 06:25:00 13.9 C 11.51 g/m*3 13.9 C 0 km/h
367 28-08-2021 06:30:00 13.9 C 11.51 g/m*3 13.9 C 0 km/h
368 28-08-2021 06:35:00 14 C 11.58 g/m*3 14 C 0 km/h
369 28-08-2021 06:40:00 14 C 11.58 g/m*3 14 C 0 km/h
370 28-08-2021 06:45:00 14 C 11.58 g/m*3 14 C 0 km/h
371 28-08-2021 06:50:00 14 C 11.58 g/m*3 14 C 0 km/h
372 28-08-2021 06:55:00 14 C 11.58 g/m*3 14 C 1.6 km/h
373 28-08-2021 07:00:00 14 C 11.58 g/m*3 14 C 0 km/h
374 28-08-2021 07:05:00 14 C 11.58 g/m*3 14 C 0 km/h
375 28-08-2021 07:10:00 14 C 11.58 g/m*3 14 C 0 km/h
Sensor: Nr:Datum:Temp:Abs-Feuchte:Windchill:Wind:
Aussen-T/F 376 28-08-2021 07:15:00 14.1 C 11.65 g/m*3 14.1 C 0 km/h
377 28-08-2021 07:20:00 14.1 C 11.65 g/m*3 14.1 C 0 km/h
378 28-08-2021 07:25:00 14.1 C 11.65 g/m*3 14.1 C 0 km/h
379 28-08-2021 07:30:00 14.1 C 11.65 g/m*3 14.1 C 0 km/h
380 28-08-2021 07:35:00 14.1 C 11.65 g/m*3 14.1 C 0 km/h
381 28-08-2021 07:40:00 14 C 11.58 g/m*3 14 C 0 km/h
382 28-08-2021 07:45:00 14 C 11.58 g/m*3 14 C 0 km/h
383 28-08-2021 07:50:00 14 C 11.58 g/m*3 14 C 0 km/h
384 28-08-2021 07:55:00 14 C 11.58 g/m*3 14 C 0 km/h
385 28-08-2021 08:00:00 14 C 11.58 g/m*3 14 C 0 km/h
386 28-08-2021 08:05:00 14.1 C 11.65 g/m*3 14.1 C 0 km/h
387 28-08-2021 08:10:00 14.1 C 11.65 g/m*3 14.1 C 0 km/h
388 28-08-2021 08:15:00 14.1 C 11.65 g/m*3 14.1 C 0 km/h
389 28-08-2021 08:20:00 14.1 C 11.65 g/m*3 14.1 C 0 km/h
390 28-08-2021 08:25:00 14.1 C 11.65 g/m*3 14.1 C 0 km/h
391 28-08-2021 08:30:00 14.2 C 11.72 g/m*3 14.2 C 0 km/h
392 28-08-2021 08:35:00 14.2 C 11.72 g/m*3 14.2 C 0 km/h
393 28-08-2021 08:40:00 14.2 C 11.72 g/m*3 14.2 C 0 km/h
394 28-08-2021 08:45:00 14.3 C 11.79 g/m*3 14.3 C 0 km/h
395 28-08-2021 08:50:00 14.3 C 11.79 g/m*3 14.3 C 0 km/h
396 28-08-2021 08:55:00 14.3 C 11.79 g/m*3 14.3 C 0 km/h
397 28-08-2021 09:00:00 14.3 C 11.79 g/m*3 14.3 C 0 km/h
398 28-08-2021 09:05:00 14.4 C 11.87 g/m*3 14.4 C 0 km/h
399 28-08-2021 09:10:00 14.4 C 11.99 g/m*3 14.4 C 0 km/h
400 28-08-2021 09:15:00 14.4 C 11.87 g/m*3 14.4 C 0 km/h
Sensor: Nr:Datum:Temp:Abs-Feuchte:Windchill:Wind:
Aussen-T/F 401 28-08-2021 09:20:00 14.5 C 11.94 g/m*3 14.5 C 0 km/h
402 28-08-2021 09:25:00 14.6 C 12.14 g/m*3 14.6 C 0 km/h
403 28-08-2021 09:30:00 14.6 C 12.14 g/m*3 14.6 C 0 km/h
404 28-08-2021 09:35:00 14.7 C 12.21 g/m*3 14.7 C 0 km/h
405 28-08-2021 09:40:00 14.7 C 12.09 g/m*3 14.7 C 0 km/h
406 28-08-2021 09:45:00 14.8 C 12.16 g/m*3 14.8 C 0 km/h
407 28-08-2021 09:50:00 14.8 C 12.29 g/m*3 14.8 C 0 km/h
408 28-08-2021 09:55:00 14.9 C 12.36 g/m*3 14.9 C 0 km/h
409 28-08-2021 10:00:00 14.9 C 12.36 g/m*3 14.9 C 0 km/h
410 28-08-2021 10:05:00 15 C 12.44 g/m*3 15 C 0 km/h
411 28-08-2021 10:10:00 15 C 12.31 g/m*3 15 C 0 km/h
412 28-08-2021 10:15:00 14.9 C 12.24 g/m*3 14.9 C 0 km/h
413 28-08-2021 10:20:00 14.8 C 12.16 g/m*3 14.8 C 0 km/h
414 28-08-2021 10:25:00 14.8 C 12.16 g/m*3 14.8 C 0 km/h
415 28-08-2021 10:30:00 14.8 C 12.16 g/m*3 14.8 C 4.8 km/h
416 28-08-2021 10:35:00 14.8 C 12.16 g/m*3 14.8 C 1.6 km/h
417 28-08-2021 10:40:00 14.8 C 12.16 g/m*3 14.8 C 0 km/h
418 28-08-2021 10:45:00 14.8 C 12.16 g/m*3 14.8 C 0 km/h
419 28-08-2021 10:50:00 14.9 C 12.24 g/m*3 14.9 C 0 km/h
420 28-08-2021 10:55:00 14.9 C 12.24 g/m*3 14.9 C 0 km/h
421 28-08-2021 11:00:00 14.9 C 12.24 g/m*3 14.9 C 1.6 km/h
422 28-08-2021 11:05:00 14.9 C 12.24 g/m*3 14.9 C 0 km/h
423 28-08-2021 11:10:00 14.8 C 12.16 g/m*3 14.8 C 0 km/h
424 28-08-2021 11:15:00 14.8 C 12.16 g/m*3 14.8 C 0 km/h
425 28-08-2021 11:20:00 14.8 C 12.03 g/m*3 14.8 C 0 km/h
Sensor: Nr:Datum:Temp:Abs-Feuchte:Windchill:Wind:
Aussen-T/F 426 28-08-2021 11:25:00 14.8 C 12.16 g/m*3 14.8 C 3.2 km/h
427 28-08-2021 11:30:00 14.8 C 12.16 g/m*3 14.8 C 3.2 km/h
428 28-08-2021 11:35:00 14.7 C 12.09 g/m*3 14.7 C 3.2 km/h
429 28-08-2021 11:40:00 14.7 C 12.09 g/m*3 14.7 C 3.2 km/h
430 28-08-2021 11:45:00 14.8 C 12.16 g/m*3 14.8 C 0 km/h
431 28-08-2021 11:50:00 14.8 C 12.16 g/m*3 14.8 C 0 km/h
432 28-08-2021 11:55:00 14.8 C 12.16 g/m*3 14.8 C 0 km/h
433 28-08-2021 12:00:00 14.7 C 12.09 g/m*3 14.7 C 4.8 km/h
434 28-08-2021 12:05:00 14.7 C 12.09 g/m*3 14.7 C 4.8 km/h
435 28-08-2021 12:10:00 14.6 C 11.89 g/m*3 14.6 C 3.2 km/h
436 28-08-2021 12:15:00 14.6 C 12.01 g/m*3 14.6 C 3.2 km/h
437 28-08-2021 12:20:00 14.7 C 12.09 g/m*3 14.7 C 0 km/h
438 28-08-2021 12:25:00 14.8 C 12.16 g/m*3 14.8 C 0 km/h
439 28-08-2021 12:30:00 14.9 C 12.24 g/m*3 14.9 C 1.6 km/h
440 28-08-2021 12:35:00 14.8 C 12.16 g/m*3 14.8 C 4.8 km/h
441 28-08-2021 12:40:00 14.7 C 12.09 g/m*3 14.7 C 0 km/h
442 28-08-2021 12:45:00 14.8 C 12.16 g/m*3 14.8 C 0 km/h
443 28-08-2021 12:50:00 14.9 C 12.24 g/m*3 14.9 C 0 km/h
444 28-08-2021 12:55:00 15 C 12.31 g/m*3 15 C 1.6 km/h
445 28-08-2021 13:00:00 15.1 C 12.39 g/m*3 15.1 C 1.6 km/h
446 28-08-2021 13:05:00 15.1 C 12.39 g/m*3 15.1 C 1.6 km/h
447 28-08-2021 13:10:00 15.1 C 12.39 g/m*3 15.1 C 0 km/h
448 28-08-2021 13:15:00 15.2 C 12.46 g/m*3 15.2 C 1.6 km/h
449 28-08-2021 13:20:00 15.3 C 12.54 g/m*3 15.3 C 0 km/h
450 28-08-2021 13:25:00 15.3 C 12.54 g/m*3 15.3 C 0 km/h
Sensor: Nr:Datum:Temp:Abs-Feuchte:Windchill:Wind:
Aussen-T/F 451 28-08-2021 13:30:00 15.4 C 12.61 g/m*3 15.4 C 0 km/h
452 28-08-2021 13:35:00 15.3 C 12.54 g/m*3 15.3 C 0 km/h
453 28-08-2021 13:40:00 15.3 C 12.54 g/m*3 15.3 C 0 km/h
454 28-08-2021 13:45:00 15.3 C 12.54 g/m*3 15.3 C 0 km/h
455 28-08-2021 13:50:00 15.3 C 12.54 g/m*3 15.3 C 0 km/h
456 28-08-2021 13:55:00 15.4 C 12.61 g/m*3 15.4 C 0 km/h
457 28-08-2021 14:00:00 15.5 C 12.69 g/m*3 15.5 C 0 km/h
458 28-08-2021 14:05:00 15.6 C 12.77 g/m*3 15.6 C 0 km/h
459 28-08-2021 14:10:00 15.6 C 12.77 g/m*3 15.6 C 0 km/h
460 28-08-2021 14:15:00 15.7 C 12.71 g/m*3 15.7 C 0 km/h
461 28-08-2021 14:20:00 15.7 C 12.71 g/m*3 15.7 C 0 km/h
462 28-08-2021 14:25:00 15.7 C 12.71 g/m*3 15.7 C 0 km/h
463 28-08-2021 14:30:00 15.7 C 12.71 g/m*3 15.7 C 0 km/h
464 28-08-2021 14:35:00 15.7 C 12.71 g/m*3 15.7 C 0 km/h
465 28-08-2021 14:40:00 15.7 C 12.71 g/m*3 15.7 C 0 km/h
466 28-08-2021 14:45:00 15.6 C 12.63 g/m*3 15.6 C 1.6 km/h
467 28-08-2021 14:50:00 15.6 C 12.63 g/m*3 15.6 C 0 km/h
468 28-08-2021 14:55:00 15.6 C 12.63 g/m*3 15.6 C 0 km/h
469 28-08-2021 15:00:00 15.6 C 12.63 g/m*3 15.6 C 0 km/h
470 28-08-2021 15:05:00 15.6 C 12.63 g/m*3 15.6 C 0 km/h
471 28-08-2021 15:10:00 15.7 C 12.71 g/m*3 15.7 C 0 km/h
472 28-08-2021 15:15:00 15.8 C 12.79 g/m*3 15.8 C 0 km/h
473 28-08-2021 15:20:00 15.9 C 12.87 g/m*3 15.9 C 0 km/h
474 28-08-2021 15:25:00 15.8 C 12.79 g/m*3 15.8 C 0 km/h
475 28-08-2021 15:30:00 15.9 C 12.87 g/m*3 15.9 C 0 km/h
Sensor: Nr:Datum:Temp:Abs-Feuchte:Windchill:Wind:
Aussen-T/F 476 28-08-2021 15:35:00 15.9 C 12.87 g/m*3 15.9 C 0 km/h
477 28-08-2021 15:40:00 16 C 12.94 g/m*3 16 C 0 km/h
478 28-08-2021 15:45:00 16.2 C 13.1 g/m*3 16.2 C 0 km/h
479 28-08-2021 15:50:00 16.3 C 13.18 g/m*3 16.3 C 0 km/h
480 28-08-2021 15:55:00 16.6 C 13.28 g/m*3 16.6 C 0 km/h
481 28-08-2021 16:00:00 16.7 C 13.36 g/m*3 16.7 C 0 km/h
482 28-08-2021 16:05:00 16.8 C 13.44 g/m*3 16.8 C 0 km/h
483 28-08-2021 16:10:00 16.9 C 13.52 g/m*3 16.9 C 0 km/h
484 28-08-2021 16:15:00 17 C 13.6 g/m*3 17 C 0 km/h
485 28-08-2021 16:20:00 17.2 C 13.62 g/m*3 17.2 C 0 km/h
486 28-08-2021 16:25:00 17.3 C 13.41 g/m*3 17.3 C 3.2 km/h
487 28-08-2021 16:30:00 17.6 C 13.5 g/m*3 17.6 C 4.8 km/h
488 28-08-2021 16:35:00 18.1 C 13.91 g/m*3 18.1 C 3.2 km/h
489 28-08-2021 16:40:00 18.7 C 14.09 g/m*3 18.7 C 1.6 km/h
490 28-08-2021 16:45:00 19.2 C 14.02 g/m*3 19.2 C 1.6 km/h
491 28-08-2021 16:50:00 19.5 C 13.76 g/m*3 19.5 C 6.4 km/h
492 28-08-2021 16:55:00 19.8 C 14.18 g/m*3 19.8 C 3.2 km/h
493 28-08-2021 17:00:00 19.8 C 13.66 g/m*3 19.8 C 3.2 km/h
494 28-08-2021 17:05:00 19.7 C 13.92 g/m*3 19.7 C 3.2 km/h
495 28-08-2021 17:10:00 19.8 C 14.35 g/m*3 19.8 C 4.8 km/h
496 28-08-2021 17:15:00 20.1 C 14.43 g/m*3 20.1 C 1.6 km/h
497 28-08-2021 17:20:00 20.1 C 13.56 g/m*3 20.1 C 1.6 km/h
498 28-08-2021 17:25:00 20.1 C 13.73 g/m*3 20.1 C 0 km/h
499 28-08-2021 17:30:00 20 C 14.17 g/m*3 20 C 0 km/h
500 28-08-2021 17:35:00 19.9 C 14.43 g/m*3 19.9 C 0 km/h
Sensor: Nr:Datum:Temp:Abs-Feuchte:Windchill:Wind:
Aussen-T/F 501 28-08-2021 17:40:00 20 C 14.86 g/m*3 20 C 0 km/h
502 28-08-2021 17:45:00 20.2 C 14.86 g/m*3 20.2 C 0 km/h
503 28-08-2021 17:50:00 20 C 13.83 g/m*3 20 C 1.6 km/h
504 28-08-2021 17:55:00 19.6 C 13.34 g/m*3 19.6 C 4.8 km/h
505 28-08-2021 18:00:00 19.4 C 13.85 g/m*3 19.4 C 0 km/h
506 28-08-2021 18:05:00 19.4 C 14.18 g/m*3 19.4 C 0 km/h
507 28-08-2021 18:10:00 19.3 C 14.1 g/m*3 19.3 C 1.6 km/h
508 28-08-2021 18:15:00 19.1 C 13.93 g/m*3 19.1 C 1.6 km/h
509 28-08-2021 18:20:00 18.9 C 13.93 g/m*3 18.9 C 0 km/h
510 28-08-2021 18:25:00 18.8 C 14.01 g/m*3 18.8 C 1.6 km/h
511 28-08-2021 18:30:00 18.7 C 13.93 g/m*3 18.7 C 4.8 km/h
512 28-08-2021 18:35:00 18.5 C 13.77 g/m*3 18.5 C 4.8 km/h
513 28-08-2021 18:40:00 18.3 C 13.76 g/m*3 18.3 C 4.8 km/h
514 28-08-2021 18:45:00 18.2 C 13.68 g/m*3 18.2 C 3.2 km/h
515 28-08-2021 18:50:00 18 C 13.52 g/m*3 18 C 3.2 km/h
516 28-08-2021 18:55:00 17.9 C 13.59 g/m*3 17.9 C 1.6 km/h
517 28-08-2021 19:00:00 17.8 C 13.66 g/m*3 17.8 C 3.2 km/h
518 28-08-2021 19:05:00 17.8 C 13.66 g/m*3 17.8 C 3.2 km/h
519 28-08-2021 19:10:00 17.7 C 13.58 g/m*3 17.7 C 3.2 km/h
520 28-08-2021 19:15:00 17.7 C 13.58 g/m*3 17.7 C 1.6 km/h
521 28-08-2021 19:20:00 17.7 C 13.73 g/m*3 17.7 C 3.2 km/h
522 28-08-2021 19:25:00 17.7 C 13.73 g/m*3 17.7 C 1.6 km/h
523 28-08-2021 19:30:00 17.7 C 13.73 g/m*3 17.7 C 1.6 km/h
524 28-08-2021 19:35:00 17.7 C 13.73 g/m*3 17.7 C 0 km/h
525 28-08-2021 19:40:00 17.5 C 13.42 g/m*3 17.5 C 3.2 km/h
Sensor: Nr:Datum:Temp:Abs-Feuchte:Windchill:Wind:
Aussen-T/F 526 28-08-2021 19:45:00 17.3 C 13.26 g/m*3 17.3 C 4.8 km/h
527 28-08-2021 19:50:00 17.2 C 13.18 g/m*3 17.2 C 3.2 km/h
528 28-08-2021 19:55:00 17 C 13.02 g/m*3 17 C 3.2 km/h
529 28-08-2021 20:00:00 16.8 C 13.01 g/m*3 16.8 C 3.2 km/h
530 28-08-2021 20:05:00 16.7 C 12.93 g/m*3 16.7 C 3.2 km/h
531 28-08-2021 20:10:00 16.6 C 12.86 g/m*3 16.6 C 1.6 km/h
532 28-08-2021 20:15:00 16.4 C 12.84 g/m*3 16.4 C 1.6 km/h
533 28-08-2021 20:20:00 16.4 C 12.84 g/m*3 16.4 C 0 km/h
534 28-08-2021 20:25:00 16.3 C 12.76 g/m*3 16.3 C 1.6 km/h
535 28-08-2021 20:30:00 16.2 C 12.82 g/m*3 16.2 C 3.2 km/h
536 28-08-2021 20:35:00 16.2 C 12.82 g/m*3 16.2 C 1.6 km/h
537 28-08-2021 20:40:00 16.1 C 12.61 g/m*3 16.1 C 6.4 km/h
538 28-08-2021 20:45:00 16.1 C 12.61 g/m*3 16.1 C 8.1 km/h
539 28-08-2021 20:50:00 16.1 C 12.61 g/m*3 16.1 C 4.8 km/h
540 28-08-2021 20:55:00 16.1 C 12.61 g/m*3 16.1 C 1.6 km/h
541 28-08-2021 21:00:00 16.2 C 12.69 g/m*3 16.2 C 3.2 km/h
542 28-08-2021 21:05:00 16.1 C 12.61 g/m*3 16.1 C 6.4 km/h
543 28-08-2021 21:10:00 16.1 C 12.61 g/m*3 16.1 C 6.4 km/h
544 28-08-2021 21:15:00 16.1 C 12.61 g/m*3 16.1 C 6.4 km/h
545 28-08-2021 21:20:00 16.1 C 12.61 g/m*3 16.1 C 1.6 km/h
546 28-08-2021 21:25:00 16.1 C 12.61 g/m*3 16.1 C 1.6 km/h
547 28-08-2021 21:30:00 16.1 C 12.61 g/m*3 16.1 C 6.4 km/h
548 28-08-2021 21:35:00 16.1 C 12.61 g/m*3 16.1 C 1.6 km/h
549 28-08-2021 21:40:00 16.1 C 12.61 g/m*3 16.1 C 3.2 km/h
550 28-08-2021 21:45:00 16 C 12.53 g/m*3 16 C 3.2 km/h
Sensor: Nr:Datum:Temp:Abs-Feuchte:Windchill:Wind:
Aussen-T/F 551 28-08-2021 21:50:00 15.9 C 12.46 g/m*3 15.9 C 1.6 km/h
552 28-08-2021 21:55:00 15.9 C 12.59 g/m*3 15.9 C 0 km/h
553 28-08-2021 22:00:00 15.8 C 12.52 g/m*3 15.8 C 0 km/h
554 28-08-2021 22:05:00 15.8 C 12.52 g/m*3 15.8 C 0 km/h
555 28-08-2021 22:10:00 15.7 C 12.44 g/m*3 15.7 C 6.4 km/h
556 28-08-2021 22:15:00 15.7 C 12.44 g/m*3 15.7 C 3.2 km/h
557 28-08-2021 22:20:00 15.7 C 12.44 g/m*3 15.7 C 6.4 km/h
558 28-08-2021 22:25:00 15.7 C 12.44 g/m*3 15.7 C 3.2 km/h
559 28-08-2021 22:30:00 15.6 C 12.5 g/m*3 15.6 C 6.4 km/h
560 28-08-2021 22:35:00 15.6 C 12.5 g/m*3 15.6 C 0 km/h
561 28-08-2021 22:40:00 15.6 C 12.5 g/m*3 15.6 C 0 km/h
562 28-08-2021 22:45:00 15.6 C 12.5 g/m*3 15.6 C 0 km/h
563 28-08-2021 22:50:00 15.6 C 12.5 g/m*3 15.6 C 3.2 km/h
564 28-08-2021 22:55:00 15.6 C 12.5 g/m*3 15.6 C 1.6 km/h
565 28-08-2021 23:00:00 15.6 C 12.5 g/m*3 15.6 C 0 km/h
566 28-08-2021 23:05:00 15.5 C 12.43 g/m*3 15.5 C 0 km/h
567 28-08-2021 23:10:00 15.5 C 12.43 g/m*3 15.5 C 0 km/h
568 28-08-2021 23:15:00 15.5 C 12.43 g/m*3 15.5 C 3.2 km/h
569 28-08-2021 23:20:00 15.4 C 12.35 g/m*3 15.4 C 0 km/h
570 28-08-2021 23:25:00 15.4 C 12.35 g/m*3 15.4 C 0 km/h
571 28-08-2021 23:30:00 15.4 C 12.35 g/m*3 15.4 C 0 km/h
572 28-08-2021 23:35:00 15.4 C 12.35 g/m*3 15.4 C 0 km/h
573 28-08-2021 23:40:00 15.4 C 12.48 g/m*3 15.4 C 6.4 km/h
574 28-08-2021 23:45:00 15.4 C 12.35 g/m*3 15.4 C 9.7 km/h
575 28-08-2021 23:50:00 15.3 C 12.28 g/m*3 15.3 C 8.1 km/h
Sensor: Nr:Datum:Temp:Abs-Feuchte:Windchill:Wind:
Aussen-T/F 576 28-08-2021 23:55:00 15.3 C 12.41 g/m*3 15.3 C 11.3 km/h
577 29-08-2021 00:00:00 15.3 C 12.41 g/m*3 15.3 C 3.2 km/h
578 29-08-2021 00:05:00 15.3 C 12.41 g/m*3 15.3 C 3.2 km/h
579 29-08-2021 00:10:00 15.3 C 12.41 g/m*3 15.3 C 1.6 km/h
580 29-08-2021 00:15:00 15.3 C 12.41 g/m*3 15.3 C 4.8 km/h
581 29-08-2021 00:20:00 15.3 C 12.41 g/m*3 15.3 C 12.9 km/h
582 29-08-2021 00:25:00 15.3 C 12.41 g/m*3 15.3 C 4.8 km/h
583 29-08-2021 00:30:00 15.2 C 12.33 g/m*3 15.2 C 4.8 km/h
584 29-08-2021 00:35:00 15.2 C 12.33 g/m*3 15.2 C 0 km/h
585 29-08-2021 00:40:00 15.2 C 12.33 g/m*3 15.2 C 1.6 km/h
586 29-08-2021 00:45:00 15.2 C 12.33 g/m*3 15.2 C 1.6 km/h
587 29-08-2021 00:50:00 15.2 C 12.33 g/m*3 15.2 C 1.6 km/h
588 29-08-2021 00:55:00 15.2 C 12.33 g/m*3 15.2 C 6.4 km/h
589 29-08-2021 01:00:00 15.2 C 12.33 g/m*3 15.2 C 1.6 km/h
590 29-08-2021 01:05:00 15.2 C 12.33 g/m*3 15.2 C 0 km/h
591 29-08-2021 01:10:00 15.2 C 12.33 g/m*3 15.2 C 0 km/h
592 29-08-2021 01:15:00 15.1 C 12.26 g/m*3 15.1 C 0 km/h
593 29-08-2021 01:20:00 15.1 C 12.26 g/m*3 15.1 C 0 km/h
594 29-08-2021 01:25:00 15.1 C 12.26 g/m*3 15.1 C 1.6 km/h
595 29-08-2021 01:30:00 15.1 C 12.26 g/m*3 15.1 C 0 km/h
596 29-08-2021 01:35:00 15.1 C 12.26 g/m*3 15.1 C 1.6 km/h
597 29-08-2021 01:40:00 15 C 12.18 g/m*3 15 C 1.6 km/h
598 29-08-2021 01:45:00 15 C 12.18 g/m*3 15 C 3.2 km/h
599 29-08-2021 01:50:00 14.9 C 12.11 g/m*3 14.9 C 1.6 km/h
600 29-08-2021 01:55:00 14.9 C 12.11 g/m*3 14.9 C 4.8 km/h
Sensor: Nr:Datum:Temp:Abs-Feuchte:Windchill:Wind:
Aussen-T/F 601 29-08-2021 02:00:00 14.9 C 12.11 g/m*3 14.9 C 0 km/h
602 29-08-2021 02:05:00 14.9 C 12.11 g/m*3 14.9 C 4.8 km/h
603 29-08-2021 02:10:00 14.9 C 12.11 g/m*3 14.9 C 0 km/h
604 29-08-2021 02:15:00 14.9 C 12.11 g/m*3 14.9 C 0 km/h
605 29-08-2021 02:20:00 14.9 C 12.11 g/m*3 14.9 C 0 km/h
606 29-08-2021 02:25:00 14.8 C 12.03 g/m*3 14.8 C 3.2 km/h
607 29-08-2021 02:30:00 14.8 C 12.03 g/m*3 14.8 C 3.2 km/h
608 29-08-2021 02:35:00 14.8 C 12.03 g/m*3 14.8 C 1.6 km/h
609 29-08-2021 02:40:00 14.8 C 12.03 g/m*3 14.8 C 6.4 km/h
610 29-08-2021 02:45:00 14.8 C 12.03 g/m*3 14.8 C 4.8 km/h
611 29-08-2021 02:50:00 14.8 C 12.03 g/m*3 14.8 C 3.2 km/h
612 29-08-2021 02:55:00 14.8 C 12.03 g/m*3 14.8 C 1.6 km/h
613 29-08-2021 03:00:00 14.8 C 12.03 g/m*3 14.8 C 4.8 km/h
614 29-08-2021 03:05:00 14.8 C 12.03 g/m*3 14.8 C 3.2 km/h
615 29-08-2021 03:10:00 14.8 C 12.03 g/m*3 14.8 C 3.2 km/h
616 29-08-2021 03:15:00 14.7 C 11.96 g/m*3 14.7 C 6.4 km/h
617 29-08-2021 03:20:00 14.7 C 11.96 g/m*3 14.7 C 6.4 km/h
618 29-08-2021 03:25:00 14.7 C 11.96 g/m*3 14.7 C 4.8 km/h
619 29-08-2021 03:30:00 14.7 C 11.96 g/m*3 14.7 C 6.4 km/h
620 29-08-2021 03:35:00 14.7 C 11.96 g/m*3 14.7 C 3.2 km/h
621 29-08-2021 03:40:00 14.7 C 11.96 g/m*3 14.7 C 6.4 km/h
622 29-08-2021 03:45:00 14.6 C 11.89 g/m*3 14.6 C 4.8 km/h
623 29-08-2021 03:50:00 14.6 C 11.89 g/m*3 14.6 C 6.4 km/h
624 29-08-2021 03:55:00 14.6 C 11.89 g/m*3 14.6 C 4.8 km/h
625 29-08-2021 04:00:00 14.6 C 11.89 g/m*3 14.6 C 6.4 km/h
Sensor: Nr:Datum:Temp:Abs-Feuchte:Windchill:Wind:
Aussen-T/F 626 29-08-2021 04:05:00 14.6 C 11.89 g/m*3 14.6 C 8.1 km/h
627 29-08-2021 04:10:00 14.6 C 11.89 g/m*3 14.6 C 4.8 km/h
628 29-08-2021 04:15:00 14.6 C 11.76 g/m*3 14.6 C 8.1 km/h
629 29-08-2021 04:20:00 14.6 C 11.76 g/m*3 14.6 C 9.7 km/h
630 29-08-2021 04:25:00 14.6 C 11.76 g/m*3 14.6 C 6.4 km/h
631 29-08-2021 04:30:00 14.5 C 11.69 g/m*3 14.5 C 8.1 km/h
632 29-08-2021 04:35:00 14.5 C 11.69 g/m*3 14.5 C 1.6 km/h
633 29-08-2021 04:40:00 14.6 C 11.76 g/m*3 14.6 C 3.2 km/h
634 29-08-2021 04:45:00 14.5 C 11.69 g/m*3 14.5 C 4.8 km/h
635 29-08-2021 04:50:00 14.5 C 11.69 g/m*3 14.5 C 6.4 km/h
636 29-08-2021 04:55:00 14.6 C 11.76 g/m*3 14.6 C 1.6 km/h
637 29-08-2021 05:00:00 14.6 C 11.76 g/m*3 14.6 C 8.1 km/h
638 29-08-2021 05:05:00 14.6 C 11.76 g/m*3 14.6 C 1.6 km/h
639 29-08-2021 05:10:00 14.6 C 11.76 g/m*3 14.6 C 6.4 km/h
640 29-08-2021 05:15:00 14.6 C 11.76 g/m*3 14.6 C 1.6 km/h
641 29-08-2021 05:20:00 14.5 C 11.69 g/m*3 14.5 C 8.1 km/h
642 29-08-2021 05:25:00 14.5 C 11.69 g/m*3 14.5 C 8.1 km/h
643 29-08-2021 05:30:00 14.5 C 11.69 g/m*3 14.5 C 1.6 km/h
644 29-08-2021 05:35:00 14.5 C 11.69 g/m*3 14.5 C 1.6 km/h
645 29-08-2021 05:40:00 14.6 C 11.76 g/m*3 14.6 C 0 km/h
646 29-08-2021 05:45:00 14.5 C 11.69 g/m*3 14.5 C 0 km/h
647 29-08-2021 05:50:00 14.6 C 11.76 g/m*3 14.6 C 1.6 km/h
648 29-08-2021 05:55:00 14.6 C 11.76 g/m*3 14.6 C 4.8 km/h
649 29-08-2021 06:00:00 14.5 C 11.69 g/m*3 14.5 C 1.6 km/h
650 29-08-2021 06:05:00 14.5 C 11.69 g/m*3 14.5 C 1.6 km/h
Sensor: Nr:Datum:Temp:Abs-Feuchte:Windchill:Wind:
Aussen-T/F 651 29-08-2021 06:10:00 14.5 C 11.69 g/m*3 14.5 C 1.6 km/h
652 29-08-2021 06:15:00 14.6 C 11.76 g/m*3 14.6 C 3.2 km/h
653 29-08-2021 06:20:00 14.5 C 11.69 g/m*3 14.5 C 4.8 km/h
654 29-08-2021 06:25:00 14.5 C 11.69 g/m*3 14.5 C 4.8 km/h
655 29-08-2021 06:30:00 14.5 C 11.69 g/m*3 14.5 C 1.6 km/h
656 29-08-2021 06:35:00 14.4 C 11.62 g/m*3 14.4 C 4.8 km/h
657 29-08-2021 06:40:00 14.4 C 11.62 g/m*3 14.4 C 4.8 km/h
658 29-08-2021 06:45:00 14.4 C 11.62 g/m*3 14.4 C 3.2 km/h
659 29-08-2021 06:50:00 14.4 C 11.62 g/m*3 14.4 C 4.8 km/h
660 29-08-2021 06:55:00 14.4 C 11.62 g/m*3 14.4 C 8.1 km/h
661 29-08-2021 07:00:00 14.3 C 11.55 g/m*3 14.3 C 3.2 km/h
662 29-08-2021 07:05:00 14.3 C 11.67 g/m*3 14.3 C 6.4 km/h
663 29-08-2021 07:10:00 14.3 C 11.67 g/m*3 14.3 C 1.6 km/h
664 29-08-2021 07:15:00 14.3 C 11.67 g/m*3 14.3 C 8.1 km/h
665 29-08-2021 07:20:00 14.3 C 11.67 g/m*3 14.3 C 6.4 km/h
666 29-08-2021 07:25:00 14.3 C 11.67 g/m*3 14.3 C 4.8 km/h
667 29-08-2021 07:30:00 14.3 C 11.67 g/m*3 14.3 C 3.2 km/h
668 29-08-2021 07:35:00 14.3 C 11.67 g/m*3 14.3 C 4.8 km/h
669 29-08-2021 07:40:00 14.3 C 11.55 g/m*3 14.3 C 6.4 km/h
670 29-08-2021 07:45:00 14.3 C 11.55 g/m*3 14.3 C 8.1 km/h
671 29-08-2021 07:50:00 14.3 C 11.55 g/m*3 14.3 C 4.8 km/h
672 29-08-2021 07:55:00 14.3 C 11.55 g/m*3 14.3 C 3.2 km/h
673 29-08-2021 08:00:00 14.3 C 11.55 g/m*3 14.3 C 14.5 km/h
674 29-08-2021 08:05:00 14.3 C 11.55 g/m*3 14.3 C 3.2 km/h
675 29-08-2021 08:10:00 14.4 C 11.62 g/m*3 14.4 C 4.8 km/h
Sensor: Nr:Datum:Temp:Abs-Feuchte:Windchill:Wind:
Aussen-T/F 676 29-08-2021 08:15:00 14.4 C 11.62 g/m*3 14.4 C 9.7 km/h
677 29-08-2021 08:20:00 14.4 C 11.62 g/m*3 14.4 C 8.1 km/h
678 29-08-2021 08:25:00 14.4 C 11.62 g/m*3 14.4 C 4.8 km/h
679 29-08-2021 08:30:00 14.4 C 11.62 g/m*3 14.4 C 4.8 km/h
680 29-08-2021 08:35:00 14.4 C 11.62 g/m*3 14.4 C 4.8 km/h
681 29-08-2021 08:40:00 14.4 C 11.62 g/m*3 14.4 C 6.4 km/h
682 29-08-2021 08:45:00 14.4 C 11.62 g/m*3 14.4 C 3.2 km/h
683 29-08-2021 08:50:00 14.4 C 11.62 g/m*3 14.4 C 4.8 km/h
684 29-08-2021 08:55:00 14.4 C 11.62 g/m*3 14.4 C 8.1 km/h
685 29-08-2021 09:00:00 14.5 C 11.69 g/m*3 14.5 C 6.4 km/h
686 29-08-2021 09:05:00 14.5 C 11.69 g/m*3 14.5 C 8.1 km/h
687 29-08-2021 09:10:00 14.5 C 11.69 g/m*3 14.5 C 6.4 km/h
688 29-08-2021 09:15:00 14.5 C 11.69 g/m*3 14.5 C 4.8 km/h
689 29-08-2021 09:20:00 14.6 C 11.76 g/m*3 14.6 C 8.1 km/h
690 29-08-2021 09:25:00 14.6 C 11.76 g/m*3 14.6 C 8.1 km/h
691 29-08-2021 09:30:00 14.6 C 11.76 g/m*3 14.6 C 12.9 km/h
692 29-08-2021 09:35:00 14.6 C 11.76 g/m*3 14.6 C 3.2 km/h
693 29-08-2021 09:40:00 14.6 C 11.76 g/m*3 14.6 C 8.1 km/h
694 29-08-2021 09:45:00 14.6 C 11.76 g/m*3 14.6 C 6.4 km/h
695 29-08-2021 09:50:00 14.7 C 11.83 g/m*3 14.7 C 8.1 km/h
696 29-08-2021 09:55:00 14.7 C 11.83 g/m*3 14.7 C 8.1 km/h
697 29-08-2021 10:00:00 14.8 C 11.91 g/m*3 14.8 C 8.1 km/h
698 29-08-2021 10:05:00 14.8 C 11.91 g/m*3 14.8 C 11.3 km/h
699 29-08-2021 10:10:00 14.8 C 11.91 g/m*3 14.8 C 8.1 km/h
700 29-08-2021 10:15:00 14.8 C 11.78 g/m*3 14.8 C 11.3 km/h
Sensor: Nr:Datum:Temp:Abs-Feuchte:Windchill:Wind:
Aussen-T/F 701 29-08-2021 10:20:00 14.8 C 11.78 g/m*3 14.8 C 4.8 km/h
702 29-08-2021 10:25:00 14.9 C 11.98 g/m*3 14.9 C 8.1 km/h
703 29-08-2021 10:30:00 14.9 C 11.98 g/m*3 14.9 C 4.8 km/h
704 29-08-2021 10:35:00 15 C 11.93 g/m*3 15 C 4.8 km/h
705 29-08-2021 10:40:00 15.1 C 12.13 g/m*3 15.1 C 8.1 km/h
706 29-08-2021 10:45:00 15.2 C 12.2 g/m*3 15.2 C 9.7 km/h
707 29-08-2021 10:50:00 15.2 C 12.07 g/m*3 15.2 C 11.3 km/h
708 29-08-2021 10:55:00 15.2 C 12.07 g/m*3 15.2 C 6.4 km/h
709 29-08-2021 11:00:00 15.3 C 12.14 g/m*3 15.3 C 4.8 km/h
710 29-08-2021 11:05:00 15.4 C 12.22 g/m*3 15.4 C 3.2 km/h
711 29-08-2021 11:10:00 15.4 C 12.22 g/m*3 15.4 C 9.7 km/h
712 29-08-2021 11:15:00 15.4 C 12.22 g/m*3 15.4 C 3.2 km/h
713 29-08-2021 11:20:00 15.5 C 12.29 g/m*3 15.5 C 3.2 km/h
714 29-08-2021 11:25:00 15.5 C 12.16 g/m*3 15.5 C 4.8 km/h
715 29-08-2021 11:30:00 15.6 C 12.23 g/m*3 15.6 C 4.8 km/h
716 29-08-2021 11:35:00 15.6 C 12.23 g/m*3 15.6 C 6.4 km/h
717 29-08-2021 11:40:00 15.7 C 12.31 g/m*3 15.7 C 8.1 km/h
718 29-08-2021 11:45:00 15.7 C 12.31 g/m*3 15.7 C 4.8 km/h
719 29-08-2021 11:50:00 15.7 C 12.31 g/m*3 15.7 C 8.1 km/h
720 29-08-2021 11:55:00 15.7 C 12.31 g/m*3 15.7 C 3.2 km/h
721 29-08-2021 12:00:00 15.8 C 12.38 g/m*3 15.8 C 8.1 km/h
722 29-08-2021 12:05:00 16 C 12.53 g/m*3 16 C 6.4 km/h
723 29-08-2021 12:10:00 16.1 C 12.61 g/m*3 16.1 C 8.1 km/h
724 29-08-2021 12:15:00 16.2 C 12.41 g/m*3 16.2 C 14.5 km/h
725 29-08-2021 12:20:00 16.2 C 12.55 g/m*3 16.2 C 6.4 km/h
Sensor: Nr:Datum:Temp:Abs-Feuchte:Windchill:Wind:
Aussen-T/F 726 29-08-2021 12:25:00 16.2 C 12.41 g/m*3 16.2 C 16.1 km/h
727 29-08-2021 12:30:00 16.2 C 12.41 g/m*3 16.2 C 8.1 km/h
728 29-08-2021 12:35:00 16.2 C 12.55 g/m*3 16.2 C 4.8 km/h
729 29-08-2021 12:40:00 16.2 C 12.55 g/m*3 16.2 C 6.4 km/h
730 29-08-2021 12:45:00 16.1 C 12.61 g/m*3 16.1 C 4.8 km/h
731 29-08-2021 12:50:00 16 C 12.53 g/m*3 16 C 6.4 km/h
732 29-08-2021 12:55:00 16 C 12.53 g/m*3 16 C 3.2 km/h
733 29-08-2021 13:00:00 16 C 12.53 g/m*3 16 C 11.3 km/h
734 29-08-2021 13:05:00 15.9 C 12.46 g/m*3 15.9 C 9.7 km/h
735 29-08-2021 13:10:00 15.8 C 12.38 g/m*3 15.8 C 8.1 km/h
736 29-08-2021 13:15:00 15.8 C 12.38 g/m*3 15.8 C 6.4 km/h
737 29-08-2021 13:20:00 15.8 C 12.52 g/m*3 15.8 C 8.1 km/h
738 29-08-2021 13:25:00 15.7 C 12.31 g/m*3 15.7 C 12.9 km/h
739 29-08-2021 13:30:00 15.7 C 12.44 g/m*3 15.7 C 4.8 km/h
740 29-08-2021 13:35:00 15.7 C 12.44 g/m*3 15.7 C 9.7 km/h
741 29-08-2021 13:40:00 15.6 C 12.37 g/m*3 15.6 C 11.3 km/h
742 29-08-2021 13:45:00 15.6 C 12.37 g/m*3 15.6 C 9.7 km/h
743 29-08-2021 13:50:00 15.5 C 12.29 g/m*3 15.5 C 11.3 km/h
744 29-08-2021 13:55:00 15.5 C 12.29 g/m*3 15.5 C 16.1 km/h
745 29-08-2021 14:00:00 15.5 C 12.29 g/m*3 15.5 C 9.7 km/h
746 29-08-2021 14:05:00 15.5 C 12.29 g/m*3 15.5 C 12.9 km/h
747 29-08-2021 14:10:00 15.6 C 12.37 g/m*3 15.6 C 9.7 km/h
748 29-08-2021 14:15:00 15.6 C 12.37 g/m*3 15.6 C 9.7 km/h
749 29-08-2021 14:20:00 15.7 C 12.58 g/m*3 15.7 C 3.2 km/h
750 29-08-2021 14:25:00 15.7 C 12.44 g/m*3 15.7 C 6.4 km/h
Sensor: Nr:Datum:Temp:Abs-Feuchte:Windchill:Wind:
Aussen-T/F 751 29-08-2021 14:30:00 15.6 C 12.37 g/m*3 15.6 C 8.1 km/h
752 29-08-2021 14:35:00 15.6 C 12.37 g/m*3 15.6 C 9.7 km/h
753 29-08-2021 14:40:00 15.6 C 12.37 g/m*3 15.6 C 1.6 km/h
754 29-08-2021 14:45:00 15.6 C 12.37 g/m*3 15.6 C 4.8 km/h
755 29-08-2021 14:50:00 15.6 C 12.37 g/m*3 15.6 C 8.1 km/h
756 29-08-2021 14:55:00 15.6 C 12.37 g/m*3 15.6 C 1.6 km/h
757 29-08-2021 15:00:00 15.6 C 12.37 g/m*3 15.6 C 6.4 km/h
758 29-08-2021 15:05:00 15.6 C 12.37 g/m*3 15.6 C 9.7 km/h
759 29-08-2021 15:10:00 15.6 C 12.37 g/m*3 15.6 C 8.1 km/h
760 29-08-2021 15:15:00 15.6 C 12.37 g/m*3 15.6 C 8.1 km/h
761 29-08-2021 15:20:00 15.6 C 12.37 g/m*3 15.6 C 8.1 km/h
762 29-08-2021 15:25:00 15.6 C 12.37 g/m*3 15.6 C 8.1 km/h
763 29-08-2021 15:30:00 15.7 C 12.44 g/m*3 15.7 C 6.4 km/h
764 29-08-2021 15:35:00 15.8 C 12.52 g/m*3 15.8 C 11.3 km/h
765 29-08-2021 15:40:00 15.8 C 12.52 g/m*3 15.8 C 8.1 km/h
766 29-08-2021 15:45:00 15.8 C 12.52 g/m*3 15.8 C 14.5 km/h
767 29-08-2021 15:50:00 15.8 C 12.52 g/m*3 15.8 C 11.3 km/h
768 29-08-2021 15:55:00 15.8 C 12.52 g/m*3 15.8 C 11.3 km/h
769 29-08-2021 16:00:00 15.8 C 12.52 g/m*3 15.8 C 8.1 km/h
770 29-08-2021 16:05:00 15.8 C 12.52 g/m*3 15.8 C 4.8 km/h
771 29-08-2021 16:10:00 15.8 C 12.38 g/m*3 15.8 C 9.7 km/h
772 29-08-2021 16:15:00 15.9 C 12.59 g/m*3 15.9 C 9.7 km/h
773 29-08-2021 16:20:00 16 C 12.67 g/m*3 16 C 9.7 km/h
774 29-08-2021 16:25:00 16.1 C 12.75 g/m*3 16.1 C 4.8 km/h
775 29-08-2021 16:30:00 16.1 C 12.75 g/m*3 16.1 C 9.7 km/h
Sensor: Nr:Datum:Temp:Abs-Feuchte:Windchill:Wind:
Aussen-T/F 776 29-08-2021 16:35:00 16.2 C 12.69 g/m*3 16.2 C 12.9 km/h
777 29-08-2021 16:40:00 16.2 C 12.69 g/m*3 16.2 C 11.3 km/h
778 29-08-2021 16:45:00 16.2 C 12.82 g/m*3 16.2 C 6.4 km/h
779 29-08-2021 16:50:00 16.2 C 12.82 g/m*3 16.2 C 6.4 km/h
780 29-08-2021 16:55:00 16.2 C 12.69 g/m*3 16.2 C 8.1 km/h
781 29-08-2021 17:00:00 16.2 C 12.82 g/m*3 16.2 C 1.6 km/h
782 29-08-2021 17:05:00 16.2 C 12.82 g/m*3 16.2 C 1.6 km/h
783 29-08-2021 17:10:00 16.2 C 12.82 g/m*3 16.2 C 6.4 km/h
784 29-08-2021 17:15:00 16.2 C 12.69 g/m*3 16.2 C 3.2 km/h
785 29-08-2021 17:20:00 16.2 C 12.69 g/m*3 16.2 C 6.4 km/h
786 29-08-2021 17:25:00 16.2 C 12.69 g/m*3 16.2 C 11.3 km/h
787 29-08-2021 17:30:00 16.2 C 12.69 g/m*3 16.2 C 9.7 km/h
788 29-08-2021 17:35:00 16.2 C 12.69 g/m*3 16.2 C 6.4 km/h
789 29-08-2021 17:40:00 16.1 C 12.61 g/m*3 16.1 C 3.2 km/h
790 29-08-2021 17:45:00 16.1 C 12.61 g/m*3 16.1 C 11.3 km/h
791 29-08-2021 17:50:00 16.1 C 12.61 g/m*3 16.1 C 4.8 km/h
792 29-08-2021 17:55:00 16.1 C 12.61 g/m*3 16.1 C 1.6 km/h
793 29-08-2021 18:00:00 16.2 C 12.69 g/m*3 16.2 C 9.7 km/h
794 29-08-2021 18:05:00 16.2 C 12.69 g/m*3 16.2 C 4.8 km/h
795 29-08-2021 18:10:00 16.2 C 12.69 g/m*3 16.2 C 3.2 km/h
796 29-08-2021 18:15:00 16.2 C 12.69 g/m*3 16.2 C 8.1 km/h
797 29-08-2021 18:20:00 16.2 C 12.69 g/m*3 16.2 C 9.7 km/h
798 29-08-2021 18:25:00 16.2 C 12.69 g/m*3 16.2 C 8.1 km/h
799 29-08-2021 18:30:00 16.2 C 12.69 g/m*3 16.2 C 3.2 km/h
800 29-08-2021 18:35:00 16.2 C 12.69 g/m*3 16.2 C 6.4 km/h
Sensor: Nr:Datum:Temp:Abs-Feuchte:Windchill:Wind:
Aussen-T/F 801 29-08-2021 18:40:00 16.2 C 12.69 g/m*3 16.2 C 4.8 km/h
802 29-08-2021 18:45:00 16.2 C 12.69 g/m*3 16.2 C 6.4 km/h
803 29-08-2021 18:50:00 16.2 C 12.69 g/m*3 16.2 C 4.8 km/h
804 29-08-2021 18:55:00 16.2 C 12.69 g/m*3 16.2 C 4.8 km/h
805 29-08-2021 19:00:00 16.2 C 12.69 g/m*3 16.2 C 1.6 km/h
806 29-08-2021 19:05:00 16.2 C 12.69 g/m*3 16.2 C 3.2 km/h
807 29-08-2021 19:10:00 16.2 C 12.69 g/m*3 16.2 C 3.2 km/h
808 29-08-2021 19:15:00 16.2 C 12.69 g/m*3 16.2 C 4.8 km/h
809 29-08-2021 19:20:00 16.2 C 12.82 g/m*3 16.2 C 3.2 km/h
810 29-08-2021 19:25:00 16.2 C 12.82 g/m*3 16.2 C 1.6 km/h
811 29-08-2021 19:30:00 16.1 C 12.75 g/m*3 16.1 C 1.6 km/h
812 29-08-2021 19:35:00 16.1 C 12.61 g/m*3 16.1 C 0 km/h
813 29-08-2021 19:40:00 16.1 C 12.75 g/m*3 16.1 C 1.6 km/h
814 29-08-2021 19:45:00 16.1 C 12.75 g/m*3 16.1 C 0 km/h
815 29-08-2021 19:50:00 16.1 C 12.75 g/m*3 16.1 C 4.8 km/h
816 29-08-2021 19:55:00 16.1 C 12.75 g/m*3 16.1 C 0 km/h
817 29-08-2021 20:00:00 16.1 C 12.75 g/m*3 16.1 C 3.2 km/h
818 29-08-2021 20:05:00 16 C 12.67 g/m*3 16 C 0 km/h
819 29-08-2021 20:10:00 16 C 12.67 g/m*3 16 C 6.4 km/h
820 29-08-2021 20:15:00 15.9 C 12.59 g/m*3 15.9 C 3.2 km/h
821 29-08-2021 20:20:00 15.9 C 12.59 g/m*3 15.9 C 4.8 km/h
822 29-08-2021 20:25:00 15.8 C 12.52 g/m*3 15.8 C 3.2 km/h
823 29-08-2021 20:30:00 15.8 C 12.52 g/m*3 15.8 C 6.4 km/h
824 29-08-2021 20:35:00 15.7 C 12.44 g/m*3 15.7 C 4.8 km/h
825 29-08-2021 20:40:00 15.7 C 12.44 g/m*3 15.7 C 3.2 km/h
Sensor: Nr:Datum:Temp:Abs-Feuchte:Windchill:Wind:
Aussen-T/F 826 29-08-2021 20:45:00 15.7 C 12.44 g/m*3 15.7 C 4.8 km/h
827 29-08-2021 20:50:00 15.7 C 12.44 g/m*3 15.7 C 1.6 km/h
828 29-08-2021 20:55:00 15.7 C 12.44 g/m*3 15.7 C 3.2 km/h
829 29-08-2021 21:00:00 15.7 C 12.44 g/m*3 15.7 C 4.8 km/h
830 29-08-2021 21:05:00 15.7 C 12.44 g/m*3 15.7 C 1.6 km/h
831 29-08-2021 21:10:00 15.8 C 12.52 g/m*3 15.8 C 3.2 km/h
832 29-08-2021 21:15:00 15.8 C 12.52 g/m*3 15.8 C 1.6 km/h
833 29-08-2021 21:20:00 15.8 C 12.52 g/m*3 15.8 C 3.2 km/h
834 29-08-2021 21:25:00 15.8 C 12.52 g/m*3 15.8 C 0 km/h
835 29-08-2021 21:30:00 15.8 C 12.52 g/m*3 15.8 C 3.2 km/h
836 29-08-2021 21:35:00 15.8 C 12.52 g/m*3 15.8 C 4.8 km/h
837 29-08-2021 21:40:00 15.8 C 12.52 g/m*3 15.8 C 1.6 km/h
838 29-08-2021 21:45:00 15.8 C 12.52 g/m*3 15.8 C 3.2 km/h
839 29-08-2021 21:50:00 15.8 C 12.52 g/m*3 15.8 C 0 km/h
840 29-08-2021 21:55:00 15.8 C 12.52 g/m*3 15.8 C 0 km/h
841 29-08-2021 22:00:00 15.7 C 12.44 g/m*3 15.7 C 1.6 km/h
842 29-08-2021 22:05:00 15.7 C 12.58 g/m*3 15.7 C 1.6 km/h
843 29-08-2021 22:10:00 15.7 C 12.58 g/m*3 15.7 C 1.6 km/h
844 29-08-2021 22:15:00 15.7 C 12.58 g/m*3 15.7 C 1.6 km/h
845 29-08-2021 22:20:00 15.7 C 12.58 g/m*3 15.7 C 0 km/h
846 29-08-2021 22:25:00 15.7 C 12.58 g/m*3 15.7 C 0 km/h
847 29-08-2021 22:30:00 15.7 C 12.58 g/m*3 15.7 C 0 km/h
848 29-08-2021 22:35:00 15.7 C 12.58 g/m*3 15.7 C 1.6 km/h
849 29-08-2021 22:40:00 15.7 C 12.58 g/m*3 15.7 C 4.8 km/h
850 29-08-2021 22:45:00 15.7 C 12.58 g/m*3 15.7 C 0 km/h
Sensor: Nr:Datum:Temp:Abs-Feuchte:Windchill:Wind:
Aussen-T/F 851 29-08-2021 22:50:00 15.7 C 12.58 g/m*3 15.7 C 0 km/h
852 29-08-2021 22:55:00 15.7 C 12.58 g/m*3 15.7 C 0 km/h
853 29-08-2021 23:00:00 15.7 C 12.58 g/m*3 15.7 C 3.2 km/h
854 29-08-2021 23:05:00 15.7 C 12.71 g/m*3 15.7 C 0 km/h
855 29-08-2021 23:10:00 15.7 C 12.71 g/m*3 15.7 C 0 km/h
856 29-08-2021 23:15:00 15.7 C 12.71 g/m*3 15.7 C 3.2 km/h
857 29-08-2021 23:20:00 15.7 C 12.71 g/m*3 15.7 C 0 km/h
858 29-08-2021 23:25:00 15.7 C 12.71 g/m*3 15.7 C 1.6 km/h
859 29-08-2021 23:30:00 15.7 C 12.71 g/m*3 15.7 C 0 km/h
860 29-08-2021 23:35:00 15.6 C 12.63 g/m*3 15.6 C 0 km/h
861 29-08-2021 23:40:00 15.6 C 12.63 g/m*3 15.6 C 4.8 km/h
862 29-08-2021 23:45:00 15.6 C 12.63 g/m*3 15.6 C 1.6 km/h
863 29-08-2021 23:50:00 15.6 C 12.63 g/m*3 15.6 C 3.2 km/h
864 29-08-2021 23:55:00 15.6 C 12.63 g/m*3 15.6 C 1.6 km/h
865 30-08-2021 00:00:00 15.6 C 12.63 g/m*3 15.6 C 3.2 km/h
866 30-08-2021 00:05:00 15.6 C 12.63 g/m*3 15.6 C 1.6 km/h
867 30-08-2021 00:10:00 15.6 C 12.63 g/m*3 15.6 C 1.6 km/h
868 30-08-2021 00:15:00 15.6 C 12.63 g/m*3 15.6 C 1.6 km/h
869 30-08-2021 00:20:00 15.6 C 12.63 g/m*3 15.6 C 1.6 km/h
870 30-08-2021 00:25:00 15.6 C 12.63 g/m*3 15.6 C 1.6 km/h
871 30-08-2021 00:30:00 15.6 C 12.63 g/m*3 15.6 C 3.2 km/h
872 30-08-2021 00:35:00 15.6 C 12.63 g/m*3 15.6 C 3.2 km/h
873 30-08-2021 00:40:00 15.6 C 12.63 g/m*3 15.6 C 1.6 km/h
874 30-08-2021 00:45:00 15.6 C 12.63 g/m*3 15.6 C 1.6 km/h
875 30-08-2021 00:50:00 15.7 C 12.71 g/m*3 15.7 C 3.2 km/h
Sensor: Nr:Datum:Temp:Abs-Feuchte:Windchill:Wind:
Aussen-T/F 876 30-08-2021 00:55:00 15.7 C 12.71 g/m*3 15.7 C 0 km/h
877 30-08-2021 01:00:00 15.7 C 12.71 g/m*3 15.7 C 0 km/h
878 30-08-2021 01:05:00 15.7 C 12.71 g/m*3 15.7 C 1.6 km/h
879 30-08-2021 01:10:00 15.7 C 12.71 g/m*3 15.7 C 0 km/h
880 30-08-2021 01:15:00 15.7 C 12.71 g/m*3 15.7 C 1.6 km/h
881 30-08-2021 01:20:00 15.7 C 12.84 g/m*3 15.7 C 0 km/h
882 30-08-2021 01:25:00 15.7 C 12.84 g/m*3 15.7 C 0 km/h
883 30-08-2021 01:30:00 15.7 C 12.84 g/m*3 15.7 C 1.6 km/h
884 30-08-2021 01:35:00 15.7 C 12.84 g/m*3 15.7 C 0 km/h
885 30-08-2021 01:40:00 15.7 C 12.84 g/m*3 15.7 C 0 km/h
886 30-08-2021 01:45:00 15.7 C 12.84 g/m*3 15.7 C 0 km/h
887 30-08-2021 01:50:00 15.7 C 12.84 g/m*3 15.7 C 1.6 km/h
888 30-08-2021 01:55:00 15.7 C 12.84 g/m*3 15.7 C 0 km/h
889 30-08-2021 02:00:00 15.7 C 12.84 g/m*3 15.7 C 0 km/h
890 30-08-2021 02:05:00 15.7 C 12.84 g/m*3 15.7 C 0 km/h
891 30-08-2021 02:10:00 15.7 C 12.84 g/m*3 15.7 C 3.2 km/h
892 30-08-2021 02:15:00 15.6 C 12.77 g/m*3 15.6 C 0 km/h
893 30-08-2021 02:20:00 15.6 C 12.77 g/m*3 15.6 C 0 km/h
894 30-08-2021 02:25:00 15.6 C 12.77 g/m*3 15.6 C 1.6 km/h
895 30-08-2021 02:30:00 15.6 C 12.77 g/m*3 15.6 C 1.6 km/h
896 30-08-2021 02:35:00 15.6 C 12.77 g/m*3 15.6 C 3.2 km/h
897 30-08-2021 02:40:00 15.5 C 12.69 g/m*3 15.5 C 1.6 km/h
898 30-08-2021 02:45:00 15.5 C 12.69 g/m*3 15.5 C 4.8 km/h
899 30-08-2021 02:50:00 15.5 C 12.69 g/m*3 15.5 C 4.8 km/h
900 30-08-2021 02:55:00 15.5 C 12.69 g/m*3 15.5 C 0 km/h
Sensor: Nr:Datum:Temp:Abs-Feuchte:Windchill:Wind:
Aussen-T/F 901 30-08-2021 03:00:00 15.5 C 12.69 g/m*3 15.5 C 1.6 km/h
902 30-08-2021 03:05:00 15.5 C 12.69 g/m*3 15.5 C 3.2 km/h
903 30-08-2021 03:10:00 15.5 C 12.69 g/m*3 15.5 C 0 km/h
904 30-08-2021 03:15:00 15.5 C 12.69 g/m*3 15.5 C 0 km/h
905 30-08-2021 03:20:00 15.4 C 12.61 g/m*3 15.4 C 8.1 km/h
906 30-08-2021 03:25:00 15.4 C 12.61 g/m*3 15.4 C 8.1 km/h
907 30-08-2021 03:30:00 15.4 C 12.61 g/m*3 15.4 C 3.2 km/h
908 30-08-2021 03:35:00 15.4 C 12.61 g/m*3 15.4 C 3.2 km/h
909 30-08-2021 03:40:00 15.4 C 12.61 g/m*3 15.4 C 1.6 km/h
910 30-08-2021 03:45:00 15.4 C 12.61 g/m*3 15.4 C 4.8 km/h
911 30-08-2021 03:50:00 15.4 C 12.61 g/m*3 15.4 C 0 km/h
912 30-08-2021 03:55:00 15.4 C 12.61 g/m*3 15.4 C 3.2 km/h
913 30-08-2021 04:00:00 15.4 C 12.61 g/m*3 15.4 C 0 km/h
914 30-08-2021 04:05:00 15.4 C 12.61 g/m*3 15.4 C 1.6 km/h
915 30-08-2021 04:10:00 15.4 C 12.61 g/m*3 15.4 C 0 km/h
916 30-08-2021 04:15:00 15.4 C 12.61 g/m*3 15.4 C 4.8 km/h
917 30-08-2021 04:20:00 15.4 C 12.61 g/m*3 15.4 C 8.1 km/h
918 30-08-2021 04:25:00 15.4 C 12.61 g/m*3 15.4 C 3.2 km/h
919 30-08-2021 04:30:00 15.4 C 12.61 g/m*3 15.4 C 1.6 km/h
920 30-08-2021 04:35:00 15.4 C 12.61 g/m*3 15.4 C 3.2 km/h
921 30-08-2021 04:40:00 15.4 C 12.61 g/m*3 15.4 C 0 km/h
922 30-08-2021 04:45:00 15.4 C 12.61 g/m*3 15.4 C 0 km/h
923 30-08-2021 04:50:00 15.5 C 12.69 g/m*3 15.5 C 4.8 km/h
924 30-08-2021 04:55:00 15.5 C 12.69 g/m*3 15.5 C 3.2 km/h
925 30-08-2021 05:00:00 15.5 C 12.69 g/m*3 15.5 C 0 km/h
Sensor: Nr:Datum:Temp:Abs-Feuchte:Windchill:Wind:
Aussen-T/F 926 30-08-2021 05:05:00 15.5 C 12.69 g/m*3 15.5 C 6.4 km/h
927 30-08-2021 05:10:00 15.5 C 12.69 g/m*3 15.5 C 1.6 km/h
928 30-08-2021 05:15:00 15.5 C 12.69 g/m*3 15.5 C 3.2 km/h
929 30-08-2021 05:20:00 15.5 C 12.69 g/m*3 15.5 C 1.6 km/h
930 30-08-2021 05:25:00 15.5 C 12.69 g/m*3 15.5 C 3.2 km/h
931 30-08-2021 05:30:00 15.5 C 12.69 g/m*3 15.5 C 8.1 km/h
932 30-08-2021 05:35:00 15.6 C 12.77 g/m*3 15.6 C 3.2 km/h
933 30-08-2021 05:40:00 15.6 C 12.77 g/m*3 15.6 C 8.1 km/h
934 30-08-2021 05:45:00 15.6 C 12.77 g/m*3 15.6 C 3.2 km/h
935 30-08-2021 05:50:00 15.6 C 12.77 g/m*3 15.6 C 3.2 km/h
936 30-08-2021 05:55:00 15.7 C 12.84 g/m*3 15.7 C 1.6 km/h
937 30-08-2021 06:00:00 15.7 C 12.84 g/m*3 15.7 C 1.6 km/h
938 30-08-2021 06:05:00 15.7 C 12.84 g/m*3 15.7 C 1.6 km/h
939 30-08-2021 06:10:00 15.7 C 12.84 g/m*3 15.7 C 0 km/h
940 30-08-2021 06:15:00 15.7 C 12.84 g/m*3 15.7 C 1.6 km/h
941 30-08-2021 06:20:00 15.7 C 12.84 g/m*3 15.7 C 1.6 km/h
942 30-08-2021 06:25:00 15.6 C 12.77 g/m*3 15.6 C 1.6 km/h
943 30-08-2021 06:30:00 15.6 C 12.63 g/m*3 15.6 C 1.6 km/h
944 30-08-2021 06:35:00 15.6 C 12.63 g/m*3 15.6 C 0 km/h
945 30-08-2021 06:40:00 15.6 C 12.63 g/m*3 15.6 C 0 km/h
946 30-08-2021 06:45:00 15.6 C 12.63 g/m*3 15.6 C 1.6 km/h
947 30-08-2021 06:50:00 15.6 C 12.63 g/m*3 15.6 C 3.2 km/h
948 30-08-2021 06:55:00 15.6 C 12.63 g/m*3 15.6 C 3.2 km/h
949 30-08-2021 07:00:00 15.6 C 12.77 g/m*3 15.6 C 3.2 km/h
950 30-08-2021 07:05:00 15.6 C 12.63 g/m*3 15.6 C 4.8 km/h
Sensor: Nr:Datum:Temp:Abs-Feuchte:Windchill:Wind:
Aussen-T/F 951 30-08-2021 07:10:00 15.6 C 12.63 g/m*3 15.6 C 1.6 km/h
952 30-08-2021 07:15:00 15.6 C 12.63 g/m*3 15.6 C 1.6 km/h
953 30-08-2021 07:20:00 15.6 C 12.63 g/m*3 15.6 C 1.6 km/h
954 30-08-2021 07:25:00 15.6 C 12.63 g/m*3 15.6 C 1.6 km/h
955 30-08-2021 07:30:00 15.6 C 12.63 g/m*3 15.6 C 3.2 km/h
956 30-08-2021 07:35:00 15.6 C 12.63 g/m*3 15.6 C 3.2 km/h
957 30-08-2021 07:40:00 15.6 C 12.63 g/m*3 15.6 C 6.4 km/h
958 30-08-2021 07:45:00 15.7 C 12.71 g/m*3 15.7 C 3.2 km/h
959 30-08-2021 07:50:00 15.7 C 12.71 g/m*3 15.7 C 0 km/h
960 30-08-2021 07:55:00 15.7 C 12.71 g/m*3 15.7 C 6.4 km/h
961 30-08-2021 08:00:00 15.7 C 12.58 g/m*3 15.7 C 8.1 km/h
962 30-08-2021 08:05:00 15.8 C 12.65 g/m*3 15.8 C 4.8 km/h
963 30-08-2021 08:10:00 15.8 C 12.65 g/m*3 15.8 C 9.7 km/h
964 30-08-2021 08:15:00 15.9 C 12.73 g/m*3 15.9 C 4.8 km/h
965 30-08-2021 08:20:00 16 C 12.81 g/m*3 16 C 1.6 km/h
966 30-08-2021 08:25:00 16.1 C 12.88 g/m*3 16.1 C 4.8 km/h
967 30-08-2021 08:30:00 16.1 C 12.88 g/m*3 16.1 C 4.8 km/h
968 30-08-2021 14:25:00 19.8 C 12.81 g/m*3 19.8 C 3.2 km/h
969 30-08-2021 14:30:00 19.7 C 12.91 g/m*3 19.7 C 3.2 km/h
970 30-08-2021 14:35:00 19.6 C 13 g/m*3 19.6 C 4.8 km/h
971 30-08-2021 14:40:00 19.6 C 12.83 g/m*3 19.6 C 4.8 km/h
972 30-08-2021 14:45:00 19.7 C 13.25 g/m*3 19.7 C 1.6 km/h
973 30-08-2021 14:50:00 19.7 C 13.25 g/m*3 19.7 C 8.1 km/h
974 30-08-2021 14:55:00 19.7 C 12.74 g/m*3 19.7 C 12.9 km/h
975 30-08-2021 15:00:00 19.7 C 12.74 g/m*3 19.7 C 9.7 km/h
Sensor: Nr:Datum:Temp:Abs-Feuchte:Windchill:Wind:
Aussen-T/F 976 30-08-2021 15:05:00 19.7 C 12.74 g/m*3 19.7 C 8.1 km/h
977 30-08-2021 15:10:00 19.8 C 13.15 g/m*3 19.8 C 6.4 km/h
978 30-08-2021 15:15:00 19.8 C 13.32 g/m*3 19.8 C 4.8 km/h
979 30-08-2021 15:20:00 19.8 C 12.81 g/m*3 19.8 C 8.1 km/h
980 30-08-2021 15:25:00 19.8 C 12.81 g/m*3 19.8 C 4.8 km/h
981 30-08-2021 15:30:00 19.9 C 13.57 g/m*3 19.9 C 0 km/h
982 30-08-2021 15:35:00 19.9 C 13.57 g/m*3 19.9 C 0 km/h
983 30-08-2021 15:40:00 19.9 C 13.06 g/m*3 19.9 C 1.6 km/h
984 30-08-2021 15:45:00 19.9 C 13.06 g/m*3 19.9 C 4.8 km/h
985 30-08-2021 15:50:00 19.9 C 13.06 g/m*3 19.9 C 4.8 km/h
986 30-08-2021 15:55:00 19.9 C 13.06 g/m*3 19.9 C 4.8 km/h
987 30-08-2021 16:00:00 20.1 C 13.39 g/m*3 20.1 C 4.8 km/h
988 30-08-2021 16:05:00 20.1 C 13.21 g/m*3 20.1 C 16.1 km/h
989 30-08-2021 16:10:00 20 C 13.48 g/m*3 20 C 9.7 km/h
990 30-08-2021 16:15:00 19.9 C 13.57 g/m*3 19.9 C 8.1 km/h
991 30-08-2021 16:20:00 19.9 C 13.4 g/m*3 19.9 C 9.7 km/h
992 30-08-2021 16:25:00 20.1 C 13.56 g/m*3 20.1 C 6.4 km/h
993 30-08-2021 16:30:00 20.2 C 13.99 g/m*3 20.2 C 4.8 km/h
994 30-08-2021 16:35:00 20.2 C 13.46 g/m*3 20.2 C 12.9 km/h
995 30-08-2021 16:40:00 20 C 13.48 g/m*3 20 C 9.7 km/h
996 30-08-2021 16:45:00 19.8 C 13.15 g/m*3 19.8 C 8.1 km/h
997 30-08-2021 16:50:00 19.8 C 12.98 g/m*3 19.8 C 6.4 km/h
998 30-08-2021 16:55:00 19.9 C 13.06 g/m*3 19.9 C 12.9 km/h
999 30-08-2021 17:00:00 20.3 C 13.19 g/m*3 20.3 C 12.9 km/h
1000 30-08-2021 17:05:00 20.6 C 13.07 g/m*3 20.6 C 17.7 km/h
Sensor: Nr:Datum:Temp:Abs-Feuchte:Windchill:Wind:
Aussen-T/F 1001 30-08-2021 17:10:00 20.7 C 13.14 g/m*3 20.7 C 16.1 km/h
1002 30-08-2021 17:15:00 20.8 C 12.86 g/m*3 20.8 C 17.7 km/h
1003 30-08-2021 17:20:00 21.1 C 13.08 g/m*3 21.1 C 12.9 km/h
1004 30-08-2021 17:25:00 21.6 C 13.28 g/m*3 21.6 C 8.1 km/h
1005 30-08-2021 17:30:00 21.8 C 13.05 g/m*3 21.8 C 12.9 km/h
1006 30-08-2021 17:35:00 21.6 C 13.09 g/m*3 21.6 C 12.9 km/h
1007 30-08-2021 17:40:00 21.2 C 12.97 g/m*3 21.2 C 11.3 km/h
1008 30-08-2021 17:45:00 20.7 C 12.78 g/m*3 20.7 C 9.7 km/h
1009 30-08-2021 17:50:00 20.4 C 12.74 g/m*3 20.4 C 9.7 km/h
1010 30-08-2021 17:55:00 20.3 C 12.84 g/m*3 20.3 C 11.3 km/h
1011 30-08-2021 18:00:00 20.6 C 13.07 g/m*3 20.6 C 16.1 km/h
1012 30-08-2021 18:05:00 20.9 C 13.3 g/m*3 20.9 C 11.3 km/h
1013 30-08-2021 18:10:00 20.9 C 12.75 g/m*3 20.9 C 16.1 km/h
1014 30-08-2021 18:15:00 20.6 C 12.71 g/m*3 20.6 C 14.5 km/h
1015 30-08-2021 18:20:00 20.4 C 12.91 g/m*3 20.4 C 8.1 km/h
1016 30-08-2021 18:25:00 20.3 C 13.01 g/m*3 20.3 C 8.1 km/h
1017 30-08-2021 18:30:00 20.3 C 12.84 g/m*3 20.3 C 8.1 km/h
1018 30-08-2021 18:35:00 20.4 C 12.91 g/m*3 20.4 C 6.4 km/h
1019 30-08-2021 18:40:00 20.6 C 12.71 g/m*3 20.6 C 12.9 km/h
1020 30-08-2021 18:45:00 20.5 C 12.63 g/m*3 20.5 C 12.9 km/h
1021 30-08-2021 18:50:00 20.4 C 12.74 g/m*3 20.4 C 8.1 km/h
1022 30-08-2021 18:55:00 20.3 C 12.49 g/m*3 20.3 C 11.3 km/h
1023 30-08-2021 19:00:00 20.1 C 12.69 g/m*3 20.1 C 8.1 km/h
1024 30-08-2021 19:05:00 19.9 C 12.54 g/m*3 19.9 C 11.3 km/h
1025 30-08-2021 19:10:00 19.8 C 12.47 g/m*3 19.8 C 9.7 km/h
Sensor: Nr:Datum:Temp:Abs-Feuchte:Windchill:Wind:
Aussen-T/F 1026 30-08-2021 19:15:00 19.7 C 12.74 g/m*3 19.7 C 1.6 km/h
1027 30-08-2021 19:20:00 19.6 C 12.66 g/m*3 19.6 C 6.4 km/h
1028 30-08-2021 19:25:00 19.6 C 13.17 g/m*3 19.6 C 1.6 km/h
1029 30-08-2021 19:30:00 19.5 C 12.75 g/m*3 19.5 C 4.8 km/h
1030 30-08-2021 19:35:00 19.5 C 13.43 g/m*3 19.5 C 0 km/h
1031 30-08-2021 19:40:00 19.4 C 12.85 g/m*3 19.4 C 8.1 km/h
1032 30-08-2021 19:45:00 19.3 C 12.61 g/m*3 19.3 C 9.7 km/h
1033 30-08-2021 19:50:00 19.3 C 12.61 g/m*3 19.3 C 6.4 km/h
1034 30-08-2021 19:55:00 19.3 C 12.77 g/m*3 19.3 C 6.4 km/h
1035 30-08-2021 20:00:00 19.2 C 12.53 g/m*3 19.2 C 4.8 km/h
1036 30-08-2021 20:05:00 19.2 C 12.53 g/m*3 19.2 C 3.2 km/h
1037 30-08-2021 20:10:00 19.1 C 12.62 g/m*3 19.1 C 1.6 km/h
1038 30-08-2021 20:15:00 19.1 C 12.95 g/m*3 19.1 C 0 km/h
1039 30-08-2021 20:20:00 18.9 C 12.96 g/m*3 18.9 C 4.8 km/h
1040 30-08-2021 20:25:00 18.7 C 12.81 g/m*3 18.7 C 3.2 km/h
1041 30-08-2021 20:30:00 18.4 C 12.74 g/m*3 18.4 C 1.6 km/h
1042 30-08-2021 20:35:00 18.2 C 12.75 g/m*3 18.2 C 1.6 km/h
1043 30-08-2021 20:40:00 17.9 C 12.67 g/m*3 17.9 C 0 km/h
1044 30-08-2021 20:45:00 17.7 C 12.67 g/m*3 17.7 C 1.6 km/h
1045 30-08-2021 20:50:00 17.5 C 12.67 g/m*3 17.5 C 1.6 km/h
1046 30-08-2021 20:55:00 17.3 C 12.67 g/m*3 17.3 C 0 km/h
1047 30-08-2021 21:00:00 17.2 C 12.59 g/m*3 17.2 C 1.6 km/h
1048 30-08-2021 21:05:00 17.1 C 12.66 g/m*3 17.1 C 1.6 km/h
1049 30-08-2021 21:10:00 17 C 12.59 g/m*3 17 C 1.6 km/h
1050 30-08-2021 21:15:00 16.9 C 12.66 g/m*3 16.9 C 0 km/h
Sensor: Nr:Datum:Temp:Abs-Feuchte:Windchill:Wind:
Aussen-T/F 1051 30-08-2021 21:20:00 16.9 C 12.8 g/m*3 16.9 C 3.2 km/h
1052 30-08-2021 21:25:00 16.8 C 12.72 g/m*3 16.8 C 0 km/h
1053 30-08-2021 21:30:00 16.8 C 12.72 g/m*3 16.8 C 0 km/h
1054 30-08-2021 21:35:00 16.7 C 12.65 g/m*3 16.7 C 3.2 km/h
1055 30-08-2021 21:40:00 16.6 C 12.57 g/m*3 16.6 C 0 km/h
1056 30-08-2021 21:45:00 16.6 C 12.57 g/m*3 16.6 C 1.6 km/h
1057 30-08-2021 21:50:00 16.5 C 12.5 g/m*3 16.5 C 0 km/h
1058 30-08-2021 21:55:00 16.4 C 12.56 g/m*3 16.4 C 3.2 km/h
1059 30-08-2021 22:00:00 16.3 C 12.35 g/m*3 16.3 C 3.2 km/h
1060 30-08-2021 22:05:00 16.2 C 12.27 g/m*3 16.2 C 3.2 km/h
1061 30-08-2021 22:10:00 16.1 C 12.2 g/m*3 16.1 C 3.2 km/h
1062 30-08-2021 22:15:00 15.9 C 12.19 g/m*3 15.9 C 0 km/h
1063 30-08-2021 22:20:00 15.7 C 12.04 g/m*3 15.7 C 3.2 km/h
1064 30-08-2021 22:25:00 15.6 C 11.97 g/m*3 15.6 C 1.6 km/h
1065 30-08-2021 22:30:00 15.5 C 11.9 g/m*3 15.5 C 3.2 km/h
1066 30-08-2021 22:35:00 15.4 C 11.82 g/m*3 15.4 C 1.6 km/h
1067 30-08-2021 22:40:00 15.3 C 11.88 g/m*3 15.3 C 3.2 km/h
1068 30-08-2021 22:45:00 15.3 C 11.88 g/m*3 15.3 C 1.6 km/h
1069 30-08-2021 22:50:00 15.3 C 12.01 g/m*3 15.3 C 3.2 km/h
1070 30-08-2021 22:55:00 15.2 C 11.94 g/m*3 15.2 C 3.2 km/h
1071 30-08-2021 23:00:00 15.1 C 11.87 g/m*3 15.1 C 1.6 km/h
1072 30-08-2021 23:05:00 15.1 C 11.87 g/m*3 15.1 C 1.6 km/h
1073 30-08-2021 23:10:00 15 C 11.8 g/m*3 15 C 3.2 km/h
1074 30-08-2021 23:15:00 14.9 C 11.73 g/m*3 14.9 C 3.2 km/h
1075 30-08-2021 23:20:00 14.9 C 11.73 g/m*3 14.9 C 3.2 km/h
Sensor: Nr:Datum:Temp:Abs-Feuchte:Windchill:Wind:
Aussen-T/F 1076 30-08-2021 23:25:00 14.8 C 11.65 g/m*3 14.8 C 6.4 km/h
1077 30-08-2021 23:30:00 14.8 C 11.78 g/m*3 14.8 C 6.4 km/h
1078 30-08-2021 23:35:00 14.8 C 11.78 g/m*3 14.8 C 4.8 km/h
1079 30-08-2021 23:40:00 14.8 C 11.78 g/m*3 14.8 C 4.8 km/h
1080 30-08-2021 23:45:00 14.8 C 11.78 g/m*3 14.8 C 3.2 km/h
1081 30-08-2021 23:50:00 14.8 C 11.91 g/m*3 14.8 C 4.8 km/h
1082 30-08-2021 23:55:00 14.8 C 11.91 g/m*3 14.8 C 6.4 km/h
1083 31-08-2021 00:00:00 14.9 C 11.98 g/m*3 14.9 C 1.6 km/h
1084 31-08-2021 00:05:00 14.9 C 11.98 g/m*3 14.9 C 1.6 km/h
1085 31-08-2021 00:10:00 14.9 C 11.98 g/m*3 14.9 C 1.6 km/h
1086 31-08-2021 00:15:00 14.9 C 11.98 g/m*3 14.9 C 0 km/h
1087 31-08-2021 00:20:00 14.9 C 11.98 g/m*3 14.9 C 0 km/h
1088 31-08-2021 00:25:00 14.9 C 11.98 g/m*3 14.9 C 0 km/h
1089 31-08-2021 00:30:00 14.9 C 11.98 g/m*3 14.9 C 1.6 km/h
1090 31-08-2021 00:35:00 14.9 C 11.98 g/m*3 14.9 C 3.2 km/h
1091 31-08-2021 00:40:00 14.8 C 11.91 g/m*3 14.8 C 0 km/h
1092 31-08-2021 00:45:00 14.8 C 11.91 g/m*3 14.8 C 1.6 km/h
1093 31-08-2021 00:50:00 14.7 C 11.83 g/m*3 14.7 C 0 km/h
1094 31-08-2021 00:55:00 14.7 C 11.83 g/m*3 14.7 C 3.2 km/h
1095 31-08-2021 01:00:00 14.7 C 11.83 g/m*3 14.7 C 0 km/h
1096 31-08-2021 01:05:00 14.7 C 11.83 g/m*3 14.7 C 0 km/h
1097 31-08-2021 01:10:00 14.7 C 11.83 g/m*3 14.7 C 1.6 km/h
1098 31-08-2021 01:15:00 14.7 C 11.83 g/m*3 14.7 C 4.8 km/h
1099 31-08-2021 01:20:00 14.6 C 11.76 g/m*3 14.6 C 0 km/h
1100 31-08-2021 01:25:00 14.5 C 11.69 g/m*3 14.5 C 0 km/h
Sensor: Nr:Datum:Temp:Abs-Feuchte:Windchill:Wind:
Aussen-T/F 1101 31-08-2021 01:30:00 14.4 C 11.62 g/m*3 14.4 C 3.2 km/h
1102 31-08-2021 01:35:00 14.4 C 11.62 g/m*3 14.4 C 0 km/h
1103 31-08-2021 01:40:00 14.4 C 11.62 g/m*3 14.4 C 1.6 km/h
1104 31-08-2021 01:45:00 14.3 C 11.55 g/m*3 14.3 C 0 km/h
1105 31-08-2021 01:50:00 14.3 C 11.55 g/m*3 14.3 C 0 km/h
1106 31-08-2021 01:55:00 14.3 C 11.55 g/m*3 14.3 C 0 km/h
1107 31-08-2021 02:00:00 14.2 C 11.48 g/m*3 14.2 C 0 km/h
1108 31-08-2021 02:05:00 14.1 C 11.41 g/m*3 14.1 C 0 km/h
1109 31-08-2021 02:10:00 14 C 11.34 g/m*3 14 C 0 km/h
1110 31-08-2021 02:15:00 13.9 C 11.27 g/m*3 13.9 C 0 km/h
1111 31-08-2021 02:20:00 13.8 C 11.2 g/m*3 13.8 C 0 km/h
1112 31-08-2021 02:25:00 13.7 C 11.13 g/m*3 13.7 C 0 km/h
1113 31-08-2021 02:30:00 13.7 C 11.13 g/m*3 13.7 C 0 km/h
1114 31-08-2021 02:35:00 13.6 C 11.06 g/m*3 13.6 C 0 km/h
1115 31-08-2021 02:40:00 13.4 C 10.93 g/m*3 13.4 C 3.2 km/h
1116 31-08-2021 02:45:00 13.4 C 10.93 g/m*3 13.4 C 6.4 km/h
1117 31-08-2021 02:50:00 13.4 C 10.93 g/m*3 13.4 C 3.2 km/h
1118 31-08-2021 02:55:00 13.4 C 11.04 g/m*3 13.4 C 0 km/h
1119 31-08-2021 03:00:00 13.4 C 11.04 g/m*3 13.4 C 0 km/h
1120 31-08-2021 03:05:00 13.4 C 11.04 g/m*3 13.4 C 0 km/h
1121 31-08-2021 03:10:00 13.4 C 11.04 g/m*3 13.4 C 1.6 km/h
1122 31-08-2021 03:15:00 13.4 C 11.04 g/m*3 13.4 C 4.8 km/h
1123 31-08-2021 03:20:00 13.4 C 11.04 g/m*3 13.4 C 0 km/h
1124 31-08-2021 03:25:00 13.3 C 10.98 g/m*3 13.3 C 1.6 km/h
1125 31-08-2021 03:30:00 13.3 C 10.98 g/m*3 13.3 C 0 km/h
Sensor: Nr:Datum:Temp:Abs-Feuchte:Windchill:Wind:
Aussen-T/F 1126 31-08-2021 03:35:00 13.3 C 10.98 g/m*3 13.3 C 0 km/h
1127 31-08-2021 03:40:00 13.3 C 10.98 g/m*3 13.3 C 0 km/h
1128 31-08-2021 03:45:00 13.3 C 10.98 g/m*3 13.3 C 1.6 km/h
1129 31-08-2021 03:50:00 13.3 C 10.98 g/m*3 13.3 C 0 km/h
1130 31-08-2021 03:55:00 13.2 C 10.91 g/m*3 13.2 C 3.2 km/h
1131 31-08-2021 04:00:00 13.1 C 10.84 g/m*3 13.1 C 3.2 km/h
1132 31-08-2021 04:05:00 13.1 C 10.84 g/m*3 13.1 C 0 km/h
1133 31-08-2021 04:10:00 13.1 C 10.84 g/m*3 13.1 C 3.2 km/h
1134 31-08-2021 04:15:00 13 C 10.77 g/m*3 13 C 1.6 km/h
1135 31-08-2021 04:20:00 12.9 C 10.71 g/m*3 12.9 C 3.2 km/h
1136 31-08-2021 04:25:00 12.9 C 10.71 g/m*3 12.9 C 1.6 km/h
1137 31-08-2021 04:30:00 12.9 C 10.71 g/m*3 12.9 C 3.2 km/h
1138 31-08-2021 04:35:00 12.9 C 10.71 g/m*3 12.9 C 0 km/h
1139 31-08-2021 04:40:00 12.8 C 10.64 g/m*3 12.8 C 3.2 km/h
1140 31-08-2021 04:45:00 12.8 C 10.64 g/m*3 12.8 C 0 km/h
1141 31-08-2021 04:50:00 12.8 C 10.64 g/m*3 12.8 C 0 km/h
1142 31-08-2021 04:55:00 12.8 C 10.64 g/m*3 12.8 C 0 km/h
1143 31-08-2021 05:00:00 12.7 C 10.58 g/m*3 12.7 C 0 km/h
1144 31-08-2021 05:05:00 12.6 C 10.51 g/m*3 12.6 C 1.6 km/h
1145 31-08-2021 05:10:00 12.6 C 10.51 g/m*3 12.6 C 0 km/h
1146 31-08-2021 05:15:00 12.6 C 10.62 g/m*3 12.6 C 0 km/h
1147 31-08-2021 05:20:00 12.5 C 10.55 g/m*3 12.5 C 0 km/h
1148 31-08-2021 05:25:00 12.4 C 10.38 g/m*3 12.4 C 0 km/h
1149 31-08-2021 05:30:00 12.4 C 10.38 g/m*3 12.4 C 0 km/h
1150 31-08-2021 05:35:00 12.3 C 10.32 g/m*3 12.3 C 3.2 km/h
Sensor: Nr:Datum:Temp:Abs-Feuchte:Windchill:Wind:
Aussen-T/F 1151 31-08-2021 05:40:00 12.3 C 10.32 g/m*3 12.3 C 0 km/h
1152 31-08-2021 05:45:00 12.2 C 10.25 g/m*3 12.2 C 1.6 km/h
1153 31-08-2021 05:50:00 12.2 C 10.25 g/m*3 12.2 C 0 km/h
1154 31-08-2021 05:55:00 12.1 C 10.19 g/m*3 12.1 C 0 km/h
1155 31-08-2021 06:00:00 12.1 C 10.19 g/m*3 12.1 C 3.2 km/h
1156 31-08-2021 06:05:00 12 C 10.23 g/m*3 12 C 1.6 km/h
1157 31-08-2021 06:10:00 12 C 10.23 g/m*3 12 C 0 km/h
1158 31-08-2021 06:15:00 12.1 C 10.29 g/m*3 12.1 C 0 km/h
1159 31-08-2021 06:20:00 12.1 C 10.29 g/m*3 12.1 C 0 km/h
1160 31-08-2021 06:25:00 12.1 C 10.29 g/m*3 12.1 C 0 km/h
1161 31-08-2021 06:30:00 12.1 C 10.29 g/m*3 12.1 C 0 km/h
1162 31-08-2021 06:35:00 12.2 C 10.36 g/m*3 12.2 C 0 km/h
1163 31-08-2021 06:40:00 12.2 C 10.36 g/m*3 12.2 C 0 km/h
1164 31-08-2021 06:45:00 12.3 C 10.42 g/m*3 12.3 C 0 km/h
1165 31-08-2021 06:50:00 12.3 C 10.42 g/m*3 12.3 C 0 km/h
1166 31-08-2021 06:55:00 12.4 C 10.49 g/m*3 12.4 C 0 km/h
1167 31-08-2021 07:00:00 12.6 C 10.62 g/m*3 12.6 C 0 km/h
1168 31-08-2021 07:05:00 12.7 C 10.69 g/m*3 12.7 C 0 km/h
1169 31-08-2021 07:10:00 12.8 C 10.87 g/m*3 12.8 C 0 km/h
1170 31-08-2021 07:15:00 12.8 C 10.87 g/m*3 12.8 C 0 km/h
1171 31-08-2021 07:20:00 12.9 C 10.82 g/m*3 12.9 C 0 km/h
1172 31-08-2021 07:25:00 12.9 C 10.82 g/m*3 12.9 C 0 km/h
1173 31-08-2021 07:30:00 12.9 C 10.82 g/m*3 12.9 C 0 km/h
1174 31-08-2021 07:35:00 13 C 10.89 g/m*3 13 C 0 km/h
1175 31-08-2021 07:40:00 13.1 C 10.95 g/m*3 13.1 C 0 km/h
Sensor: Nr:Datum:Temp:Abs-Feuchte:Windchill:Wind:
Aussen-T/F 1176 31-08-2021 07:45:00 13.1 C 11.07 g/m*3 13.1 C 0 km/h
1177 31-08-2021 07:50:00 13.1 C 11.07 g/m*3 13.1 C 0 km/h
1178 31-08-2021 07:55:00 13.2 C 11.14 g/m*3 13.2 C 0 km/h
1179 31-08-2021 08:00:00 13.2 C 11.14 g/m*3 13.2 C 0 km/h
1180 31-08-2021 08:05:00 13.3 C 11.21 g/m*3 13.3 C 0 km/h
1181 31-08-2021 08:10:00 13.4 C 11.28 g/m*3 13.4 C 0 km/h
1182 31-08-2021 08:15:00 13.4 C 11.28 g/m*3 13.4 C 0 km/h
1183 31-08-2021 08:20:00 13.6 C 11.42 g/m*3 13.6 C 0 km/h
1184 31-08-2021 08:25:00 13.6 C 11.42 g/m*3 13.6 C 0 km/h
1185 31-08-2021 08:30:00 13.7 C 11.49 g/m*3 13.7 C 0 km/h
1186 31-08-2021 08:35:00 13.8 C 11.56 g/m*3 13.8 C 0 km/h
1187 31-08-2021 08:40:00 13.9 C 11.63 g/m*3 13.9 C 0 km/h
1188 31-08-2021 08:45:00 14 C 11.7 g/m*3 14 C 0 km/h
1189 31-08-2021 08:50:00 14.2 C 11.84 g/m*3 14.2 C 0 km/h
1190 31-08-2021 08:55:00 14.3 C 11.92 g/m*3 14.3 C 0 km/h
1191 31-08-2021 09:00:00 14.4 C 11.99 g/m*3 14.4 C 0 km/h
1192 31-08-2021 09:05:00 14.6 C 12.14 g/m*3 14.6 C 0 km/h
1193 31-08-2021 09:10:00 14.7 C 12.21 g/m*3 14.7 C 0 km/h
1194 31-08-2021 09:15:00 14.7 C 12.21 g/m*3 14.7 C 0 km/h
1195 31-08-2021 09:20:00 14.7 C 12.21 g/m*3 14.7 C 0 km/h
1196 31-08-2021 09:25:00 14.8 C 12.29 g/m*3 14.8 C 1.6 km/h
1197 31-08-2021 09:30:00 14.8 C 12.29 g/m*3 14.8 C 0 km/h
1198 31-08-2021 09:35:00 14.8 C 12.29 g/m*3 14.8 C 0 km/h
1199 31-08-2021 09:40:00 14.9 C 12.36 g/m*3 14.9 C 0 km/h
1200 31-08-2021 09:45:00 14.9 C 12.36 g/m*3 14.9 C 0 km/h
Sensor: Nr:Datum:Temp:Abs-Feuchte:Windchill:Wind:
Aussen-T/F 1201 31-08-2021 09:50:00 15.1 C 12.51 g/m*3 15.1 C 0 km/h
1202 31-08-2021 09:55:00 15.1 C 12.39 g/m*3 15.1 C 1.6 km/h
1203 31-08-2021 10:00:00 15.1 C 12.39 g/m*3 15.1 C 0 km/h
1204 31-08-2021 10:05:00 15.2 C 12.46 g/m*3 15.2 C 3.2 km/h
1205 31-08-2021 10:10:00 15.2 C 12.46 g/m*3 15.2 C 4.8 km/h
1206 31-08-2021 10:15:00 15.2 C 12.46 g/m*3 15.2 C 3.2 km/h
1207 31-08-2021 10:20:00 15.2 C 12.33 g/m*3 15.2 C 8.1 km/h
1208 31-08-2021 10:25:00 15.1 C 12.26 g/m*3 15.1 C 6.4 km/h
1209 31-08-2021 10:30:00 15.2 C 12.2 g/m*3 15.2 C 8.1 km/h
1210 31-08-2021 10:35:00 15.3 C 12.28 g/m*3 15.3 C 6.4 km/h
1211 31-08-2021 10:40:00 15.3 C 12.28 g/m*3 15.3 C 8.1 km/h
1212 31-08-2021 10:45:00 15.4 C 12.22 g/m*3 15.4 C 6.4 km/h
1213 31-08-2021 10:50:00 15.6 C 12.37 g/m*3 15.6 C 4.8 km/h
1214 31-08-2021 10:55:00 15.6 C 12.23 g/m*3 15.6 C 4.8 km/h
1215 31-08-2021 11:00:00 15.8 C 12.38 g/m*3 15.8 C 1.6 km/h
1216 31-08-2021 11:05:00 15.9 C 12.32 g/m*3 15.9 C 4.8 km/h
1217 31-08-2021 11:10:00 15.9 C 12.32 g/m*3 15.9 C 4.8 km/h
1218 31-08-2021 11:15:00 16 C 12.26 g/m*3 16 C 3.2 km/h
1219 31-08-2021 11:20:00 16.2 C 12.41 g/m*3 16.2 C 4.8 km/h
1220 31-08-2021 11:25:00 16.3 C 12.35 g/m*3 16.3 C 8.1 km/h
1221 31-08-2021 11:30:00 16.4 C 12.28 g/m*3 16.4 C 9.7 km/h
1222 31-08-2021 11:35:00 16.6 C 12.57 g/m*3 16.6 C 4.8 km/h
1223 31-08-2021 11:40:00 16.7 C 12.51 g/m*3 16.7 C 6.4 km/h
1224 31-08-2021 11:45:00 16.8 C 12.44 g/m*3 16.8 C 6.4 km/h
1225 31-08-2021 11:50:00 16.8 C 12.3 g/m*3 16.8 C 6.4 km/h
Sensor: Nr:Datum:Temp:Abs-Feuchte:Windchill:Wind:
Aussen-T/F 1226 31-08-2021 11:55:00 16.9 C 12.37 g/m*3 16.9 C 1.6 km/h
1227 31-08-2021 12:00:00 17 C 12.44 g/m*3 17 C 9.7 km/h
1228 31-08-2021 12:05:00 17.2 C 12.59 g/m*3 17.2 C 6.4 km/h
1229 31-08-2021 12:10:00 17.3 C 12.52 g/m*3 17.3 C 3.2 km/h
1230 31-08-2021 12:15:00 17.4 C 12.45 g/m*3 17.4 C 9.7 km/h
1231 31-08-2021 12:20:00 17.5 C 12.52 g/m*3 17.5 C 8.1 km/h
1232 31-08-2021 12:25:00 17.5 C 12.52 g/m*3 17.5 C 8.1 km/h
1233 31-08-2021 12:30:00 17.6 C 12.75 g/m*3 17.6 C 6.4 km/h
1234 31-08-2021 12:35:00 17.7 C 12.67 g/m*3 17.7 C 6.4 km/h
1235 31-08-2021 12:40:00 17.7 C 12.67 g/m*3 17.7 C 8.1 km/h
1236 31-08-2021 12:45:00 17.8 C 12.6 g/m*3 17.8 C 11.3 km/h
1237 31-08-2021 12:50:00 17.9 C 12.83 g/m*3 17.9 C 6.4 km/h
1238 31-08-2021 12:55:00 17.9 C 12.67 g/m*3 17.9 C 4.8 km/h
1239 31-08-2021 13:00:00 18.1 C 12.67 g/m*3 18.1 C 11.3 km/h
1240 31-08-2021 13:05:00 18.2 C 12.75 g/m*3 18.2 C 11.3 km/h
1241 31-08-2021 13:10:00 18.2 C 12.59 g/m*3 18.2 C 8.1 km/h
1242 31-08-2021 13:15:00 18.1 C 12.52 g/m*3 18.1 C 9.7 km/h
1243 31-08-2021 13:20:00 18.1 C 12.52 g/m*3 18.1 C 11.3 km/h
1244 31-08-2021 13:25:00 18.1 C 12.52 g/m*3 18.1 C 8.1 km/h
1245 31-08-2021 13:30:00 18.1 C 12.67 g/m*3 18.1 C 6.4 km/h
1246 31-08-2021 13:35:00 18.1 C 12.67 g/m*3 18.1 C 9.7 km/h
1247 31-08-2021 13:40:00 18.2 C 12.59 g/m*3 18.2 C 8.1 km/h
1248 31-08-2021 13:45:00 18.3 C 12.66 g/m*3 18.3 C 12.9 km/h
1249 31-08-2021 13:50:00 18.3 C 12.51 g/m*3 18.3 C 9.7 km/h
1250 31-08-2021 13:55:00 18.3 C 12.35 g/m*3 18.3 C 16.1 km/h
Sensor: Nr:Datum:Temp:Abs-Feuchte:Windchill:Wind:
Aussen-T/F 1251 31-08-2021 14:00:00 18.3 C 12.51 g/m*3 18.3 C 12.9 km/h
1252 31-08-2021 14:05:00 18.4 C 12.58 g/m*3 18.4 C 12.9 km/h
1253 31-08-2021 14:10:00 18.5 C 12.66 g/m*3 18.5 C 12.9 km/h
1254 31-08-2021 14:15:00 18.4 C 12.43 g/m*3 18.4 C 11.3 km/h
1255 31-08-2021 14:20:00 18.5 C 12.66 g/m*3 18.5 C 11.3 km/h
1256 31-08-2021 14:25:00 18.5 C 12.66 g/m*3 18.5 C 16.1 km/h
1257 31-08-2021 14:30:00 18.5 C 12.5 g/m*3 18.5 C 12.9 km/h
1258 31-08-2021 14:35:00 18.6 C 12.73 g/m*3 18.6 C 12.9 km/h
1259 31-08-2021 14:40:00 18.6 C 12.57 g/m*3 18.6 C 14.5 km/h
1260 31-08-2021 14:45:00 18.5 C 12.34 g/m*3 18.5 C 16.1 km/h
1261 31-08-2021 14:50:00 18.4 C 12.27 g/m*3 18.4 C 14.5 km/h
1262 31-08-2021 14:55:00 18.4 C 12.27 g/m*3 18.4 C 17.7 km/h
1263 31-08-2021 15:00:00 18.3 C 12.2 g/m*3 18.3 C 14.5 km/h
1264 31-08-2021 15:05:00 18.2 C 12.12 g/m*3 18.2 C 12.9 km/h
1265 31-08-2021 15:10:00 18.2 C 11.97 g/m*3 18.2 C 16.1 km/h
1266 31-08-2021 15:15:00 18.2 C 12.12 g/m*3 18.2 C 12.9 km/h
1267 31-08-2021 15:20:00 18.2 C 12.12 g/m*3 18.2 C 11.3 km/h
1268 31-08-2021 15:25:00 18.3 C 12.2 g/m*3 18.3 C 14.5 km/h
1269 31-08-2021 15:30:00 18.4 C 12.27 g/m*3 18.4 C 11.3 km/h
1270 31-08-2021 15:35:00 18.4 C 12.27 g/m*3 18.4 C 11.3 km/h
1271 31-08-2021 15:40:00 18.3 C 12.2 g/m*3 18.3 C 11.3 km/h
1272 31-08-2021 15:45:00 18.2 C 12.28 g/m*3 18.2 C 8.1 km/h
1273 31-08-2021 15:50:00 18.1 C 12.05 g/m*3 18.1 C 6.4 km/h
1274 31-08-2021 15:55:00 18.3 C 12.51 g/m*3 18.3 C 8.1 km/h
1275 31-08-2021 16:00:00 18.4 C 12.27 g/m*3 18.4 C 8.1 km/h
Sensor: Nr:Datum:Temp:Abs-Feuchte:Windchill:Wind:
Aussen-T/F 1276 31-08-2021 16:05:00 18.7 C 12.49 g/m*3 18.7 C 11.3 km/h
1277 31-08-2021 16:10:00 18.9 C 12.64 g/m*3 18.9 C 4.8 km/h
1278 31-08-2021 16:15:00 19.1 C 12.79 g/m*3 19.1 C 6.4 km/h
1279 31-08-2021 16:20:00 19.3 C 12.77 g/m*3 19.3 C 11.3 km/h
1280 31-08-2021 16:25:00 19.6 C 12.83 g/m*3 19.6 C 8.1 km/h
1281 31-08-2021 16:30:00 19.8 C 13.15 g/m*3 19.8 C 9.7 km/h
1282 31-08-2021 16:35:00 20.1 C 13.04 g/m*3 20.1 C 9.7 km/h
1283 31-08-2021 16:40:00 20.4 C 13.09 g/m*3 20.4 C 4.8 km/h
1284 31-08-2021 16:45:00 20.8 C 13.04 g/m*3 20.8 C 11.3 km/h
1285 31-08-2021 16:50:00 20.9 C 12.93 g/m*3 20.9 C 8.1 km/h
1286 31-08-2021 16:55:00 21.1 C 13.08 g/m*3 21.1 C 8.1 km/h
1287 31-08-2021 17:00:00 21.2 C 12.6 g/m*3 21.2 C 9.7 km/h
1288 31-08-2021 17:05:00 21.3 C 12.68 g/m*3 21.3 C 6.4 km/h
1289 31-08-2021 17:10:00 21.3 C 12.68 g/m*3 21.3 C 9.7 km/h
1290 31-08-2021 17:15:00 21.4 C 12.94 g/m*3 21.4 C 4.8 km/h
1291 31-08-2021 17:20:00 21.6 C 12.71 g/m*3 21.6 C 11.3 km/h
1292 31-08-2021 17:25:00 21.8 C 12.66 g/m*3 21.8 C 4.8 km/h
1293 31-08-2021 17:30:00 21.8 C 12.66 g/m*3 21.8 C 11.3 km/h
1294 31-08-2021 17:35:00 21.9 C 12.54 g/m*3 21.9 C 9.7 km/h
1295 31-08-2021 17:40:00 21.9 C 12.54 g/m*3 21.9 C 8.1 km/h
1296 31-08-2021 17:45:00 21.9 C 12.54 g/m*3 21.9 C 11.3 km/h
1297 31-08-2021 17:50:00 21.9 C 12.54 g/m*3 21.9 C 11.3 km/h
1298 31-08-2021 17:55:00 21.9 C 12.54 g/m*3 21.9 C 6.4 km/h
1299 31-08-2021 18:00:00 21.8 C 12.47 g/m*3 21.8 C 8.1 km/h
1300 31-08-2021 18:05:00 21.8 C 12.66 g/m*3 21.8 C 11.3 km/h
Sensor: Nr:Datum:Temp:Abs-Feuchte:Windchill:Wind:
Aussen-T/F 1301 31-08-2021 18:10:00 21.9 C 12.54 g/m*3 21.9 C 9.7 km/h
1302 31-08-2021 18:15:00 22 C 12.42 g/m*3 22 C 9.7 km/h
1303 31-08-2021 18:20:00 21.9 C 12.16 g/m*3 21.9 C 11.3 km/h
1304 31-08-2021 18:25:00 21.8 C 12.28 g/m*3 21.8 C 14.5 km/h
1305 31-08-2021 18:30:00 21.7 C 12.21 g/m*3 21.7 C 9.7 km/h
1306 31-08-2021 18:35:00 21.5 C 12.26 g/m*3 21.5 C 9.7 km/h
1307 31-08-2021 18:40:00 21.3 C 12.12 g/m*3 21.3 C 8.1 km/h
1308 31-08-2021 18:45:00 21.2 C 12.6 g/m*3 21.2 C 8.1 km/h
1309 31-08-2021 18:50:00 21.1 C 12.34 g/m*3 21.1 C 12.9 km/h
1310 31-08-2021 18:55:00 20.8 C 12.13 g/m*3 20.8 C 9.7 km/h
1311 31-08-2021 19:00:00 20.7 C 12.06 g/m*3 20.7 C 12.9 km/h
1312 31-08-2021 19:05:00 20.6 C 12.35 g/m*3 20.6 C 6.4 km/h
1313 31-08-2021 19:10:00 20.4 C 12.21 g/m*3 20.4 C 14.5 km/h
1314 31-08-2021 19:15:00 20.3 C 12.14 g/m*3 20.3 C 4.8 km/h
1315 31-08-2021 19:20:00 20.2 C 12.06 g/m*3 20.2 C 4.8 km/h
1316 31-08-2021 19:25:00 20.1 C 12.17 g/m*3 20.1 C 4.8 km/h
1317 31-08-2021 19:30:00 20.1 C 12.34 g/m*3 20.1 C 3.2 km/h
1318 31-08-2021 19:35:00 20.1 C 12.86 g/m*3 20.1 C 3.2 km/h
1319 31-08-2021 19:40:00 19.9 C 12.89 g/m*3 19.9 C 1.6 km/h
1320 31-08-2021 19:45:00 19.8 C 12.98 g/m*3 19.8 C 1.6 km/h
1321 31-08-2021 19:50:00 19.4 C 12.35 g/m*3 19.4 C 3.2 km/h
1322 31-08-2021 19:55:00 19.2 C 12.7 g/m*3 19.2 C 3.2 km/h
1323 31-08-2021 20:00:00 18.8 C 12.08 g/m*3 18.8 C 3.2 km/h
1324 31-08-2021 20:05:00 18.5 C 12.34 g/m*3 18.5 C 1.6 km/h
1325 31-08-2021 20:10:00 18.2 C 12.43 g/m*3 18.2 C 1.6 km/h
Sensor: Nr:Datum:Temp:Abs-Feuchte:Windchill:Wind:
Aussen-T/F 1326 31-08-2021 20:15:00 17.8 C 12.29 g/m*3 17.8 C 6.4 km/h
1327 31-08-2021 20:20:00 17.4 C 12.15 g/m*3 17.4 C 6.4 km/h
1328 31-08-2021 20:25:00 17.1 C 11.94 g/m*3 17.1 C 4.8 km/h
1329 31-08-2021 20:30:00 16.8 C 11.87 g/m*3 16.8 C 4.8 km/h
1330 31-08-2021 20:35:00 16.6 C 11.87 g/m*3 16.6 C 8.1 km/h
1331 31-08-2021 20:40:00 16.3 C 11.79 g/m*3 16.3 C 8.1 km/h
1332 31-08-2021 20:45:00 16.1 C 11.65 g/m*3 16.1 C 6.4 km/h
1333 31-08-2021 20:50:00 15.9 C 11.65 g/m*3 15.9 C 6.4 km/h
1334 31-08-2021 20:55:00 15.8 C 11.58 g/m*3 15.8 C 6.4 km/h
1335 31-08-2021 21:00:00 15.6 C 11.44 g/m*3 15.6 C 4.8 km/h
1336 31-08-2021 21:05:00 15.5 C 11.5 g/m*3 15.5 C 1.6 km/h
1337 31-08-2021 21:10:00 15.4 C 11.56 g/m*3 15.4 C 3.2 km/h
1338 31-08-2021 21:15:00 15.3 C 11.49 g/m*3 15.3 C 0 km/h
1339 31-08-2021 21:20:00 15.2 C 11.42 g/m*3 15.2 C 6.4 km/h
1340 31-08-2021 21:25:00 15.1 C 11.48 g/m*3 15.1 C 4.8 km/h
1341 31-08-2021 21:30:00 15 C 11.41 g/m*3 15 C 0 km/h
1342 31-08-2021 21:35:00 14.9 C 11.34 g/m*3 14.9 C 6.4 km/h
1343 31-08-2021 21:40:00 14.8 C 11.27 g/m*3 14.8 C 0 km/h
1344 31-08-2021 21:45:00 14.8 C 11.4 g/m*3 14.8 C 0 km/h
1345 31-08-2021 21:50:00 14.7 C 11.33 g/m*3 14.7 C 0 km/h
1346 31-08-2021 21:55:00 14.6 C 11.26 g/m*3 14.6 C 1.6 km/h
1347 31-08-2021 22:00:00 14.5 C 11.19 g/m*3 14.5 C 0 km/h
1348 31-08-2021 22:05:00 14.4 C 11.13 g/m*3 14.4 C 1.6 km/h
1349 31-08-2021 22:10:00 14.3 C 11.18 g/m*3 14.3 C 0 km/h
1350 31-08-2021 22:15:00 14.3 C 11.18 g/m*3 14.3 C 1.6 km/h
Sensor: Nr:Datum:Temp:Abs-Feuchte:Windchill:Wind:
Aussen-T/F 1351 31-08-2021 22:20:00 14.2 C 11.11 g/m*3 14.2 C 0 km/h
1352 31-08-2021 22:25:00 14.2 C 11.11 g/m*3 14.2 C 0 km/h
1353 31-08-2021 22:30:00 14.1 C 11.04 g/m*3 14.1 C 0 km/h
1354 31-08-2021 22:35:00 13.9 C 10.91 g/m*3 13.9 C 0 km/h
1355 31-08-2021 22:40:00 13.8 C 10.84 g/m*3 13.8 C 0 km/h
1356 31-08-2021 22:45:00 13.7 C 10.78 g/m*3 13.7 C 0 km/h
1357 31-08-2021 22:50:00 13.6 C 10.71 g/m*3 13.6 C 0 km/h
1358 31-08-2021 22:55:00 13.6 C 10.83 g/m*3 13.6 C 0 km/h
1359 31-08-2021 23:00:00 13.5 C 10.76 g/m*3 13.5 C 0 km/h
1360 31-08-2021 23:05:00 13.4 C 10.69 g/m*3 13.4 C 0 km/h
1361 31-08-2021 23:10:00 13.3 C 10.63 g/m*3 13.3 C 0 km/h
1362 31-08-2021 23:15:00 13.2 C 10.56 g/m*3 13.2 C 0 km/h
1363 31-08-2021 23:20:00 13.2 C 10.56 g/m*3 13.2 C 0 km/h
1364 31-08-2021 23:25:00 13.1 C 10.5 g/m*3 13.1 C 0 km/h
1365 31-08-2021 23:30:00 13 C 10.43 g/m*3 13 C 0 km/h
1366 31-08-2021 23:35:00 12.9 C 10.37 g/m*3 12.9 C 0 km/h
1367 31-08-2021 23:40:00 12.8 C 10.42 g/m*3 12.8 C 0 km/h
1368 31-08-2021 23:45:00 12.7 C 10.24 g/m*3 12.7 C 0 km/h
1369 31-08-2021 23:50:00 12.7 C 10.35 g/m*3 12.7 C 0 km/h
1370 31-08-2021 23:55:00 12.6 C 10.29 g/m*3 12.6 C 0 km/h
1371 01-09-2021 00:00:00 12.5 C 10.22 g/m*3 12.5 C 0 km/h
1372 01-09-2021 00:05:00 12.4 C 10.16 g/m*3 12.4 C 0 km/h
1373 01-09-2021 00:10:00 12.3 C 10.1 g/m*3 12.3 C 0 km/h
1374 01-09-2021 00:15:00 12.3 C 10.1 g/m*3 12.3 C 0 km/h
1375 01-09-2021 00:20:00 12.2 C 10.04 g/m*3 12.2 C 0 km/h
Sensor: Nr:Datum:Temp:Abs-Feuchte:Windchill:Wind:
Aussen-T/F 1376 01-09-2021 00:25:00 12.2 C 10.04 g/m*3 12.2 C 0 km/h
1377 01-09-2021 00:30:00 12.2 C 10.04 g/m*3 12.2 C 1.6 km/h
1378 01-09-2021 00:35:00 12.2 C 10.14 g/m*3 12.2 C 0 km/h
1379 01-09-2021 00:40:00 12.2 C 10.14 g/m*3 12.2 C 0 km/h
1380 01-09-2021 00:45:00 12.2 C 10.14 g/m*3 12.2 C 0 km/h
1381 01-09-2021 00:50:00 12.2 C 10.14 g/m*3 12.2 C 0 km/h
1382 01-09-2021 00:55:00 12.2 C 10.14 g/m*3 12.2 C 0 km/h
1383 01-09-2021 01:00:00 12.3 C 10.21 g/m*3 12.3 C 0 km/h
1384 01-09-2021 01:05:00 12.3 C 10.21 g/m*3 12.3 C 0 km/h
1385 01-09-2021 01:10:00 12.3 C 10.21 g/m*3 12.3 C 0 km/h
1386 01-09-2021 01:15:00 12.2 C 10.14 g/m*3 12.2 C 0 km/h
1387 01-09-2021 01:20:00 12.2 C 10.14 g/m*3 12.2 C 1.6 km/h
1388 01-09-2021 01:25:00 12.1 C 10.08 g/m*3 12.1 C 0 km/h
1389 01-09-2021 01:30:00 12.1 C 10.19 g/m*3 12.1 C 0 km/h
1390 01-09-2021 01:35:00 12.1 C 10.19 g/m*3 12.1 C 0 km/h
1391 01-09-2021 01:40:00 12 C 10.02 g/m*3 12 C 0 km/h
1392 01-09-2021 01:45:00 11.9 C 9.96 g/m*3 11.9 C 0 km/h
1393 01-09-2021 01:50:00 11.9 C 9.96 g/m*3 11.9 C 0 km/h
1394 01-09-2021 01:55:00 11.8 C 10 g/m*3 11.8 C 0 km/h
1395 01-09-2021 02:00:00 11.8 C 10 g/m*3 11.8 C 0 km/h
1396 01-09-2021 02:05:00 11.7 C 9.94 g/m*3 11.7 C 0 km/h
1397 01-09-2021 02:10:00 11.7 C 9.94 g/m*3 11.7 C 0 km/h
1398 01-09-2021 02:15:00 11.7 C 9.94 g/m*3 11.7 C 0 km/h
1399 01-09-2021 02:20:00 11.6 C 9.87 g/m*3 11.6 C 0 km/h
1400 01-09-2021 02:25:00 11.6 C 9.87 g/m*3 11.6 C 0 km/h
Sensor: Nr:Datum:Temp:Abs-Feuchte:Windchill:Wind:
Aussen-T/F 1401 01-09-2021 02:30:00 11.6 C 9.87 g/m*3 11.6 C 1.6 km/h
1402 01-09-2021 02:35:00 11.6 C 9.87 g/m*3 11.6 C 1.6 km/h
1403 01-09-2021 02:40:00 11.7 C 9.94 g/m*3 11.7 C 0 km/h
1404 01-09-2021 02:45:00 11.7 C 9.94 g/m*3 11.7 C 0 km/h
1405 01-09-2021 02:50:00 11.7 C 9.94 g/m*3 11.7 C 0 km/h
1406 01-09-2021 02:55:00 11.7 C 9.94 g/m*3 11.7 C 0 km/h
1407 01-09-2021 03:00:00 11.8 C 10 g/m*3 11.8 C 0 km/h
1408 01-09-2021 03:05:00 11.8 C 10 g/m*3 11.8 C 0 km/h
1409 01-09-2021 03:10:00 11.9 C 10.17 g/m*3 11.9 C 0 km/h
1410 01-09-2021 03:15:00 12 C 10.23 g/m*3 12 C 0 km/h
1411 01-09-2021 03:20:00 12.1 C 10.29 g/m*3 12.1 C 3.2 km/h
1412 01-09-2021 03:25:00 12.2 C 10.36 g/m*3 12.2 C 3.2 km/h
1413 01-09-2021 03:30:00 12.3 C 10.42 g/m*3 12.3 C 0 km/h
1414 01-09-2021 03:35:00 12.3 C 10.42 g/m*3 12.3 C 1.6 km/h
1415 01-09-2021 03:40:00 12.3 C 10.42 g/m*3 12.3 C 0 km/h
1416 01-09-2021 03:45:00 12.4 C 10.49 g/m*3 12.4 C 1.6 km/h
1417 01-09-2021 03:50:00 12.5 C 10.55 g/m*3 12.5 C 6.4 km/h
1418 01-09-2021 03:55:00 12.6 C 10.62 g/m*3 12.6 C 6.4 km/h
1419 01-09-2021 04:00:00 12.6 C 10.62 g/m*3 12.6 C 0 km/h
1420 01-09-2021 04:05:00 12.7 C 10.69 g/m*3 12.7 C 3.2 km/h
1421 01-09-2021 04:10:00 12.8 C 10.75 g/m*3 12.8 C 0 km/h
1422 01-09-2021 04:15:00 12.9 C 10.82 g/m*3 12.9 C 4.8 km/h
1423 01-09-2021 04:20:00 13.1 C 11.07 g/m*3 13.1 C 3.2 km/h
1424 01-09-2021 04:25:00 13.1 C 10.95 g/m*3 13.1 C 0 km/h
1425 01-09-2021 04:30:00 13.1 C 10.95 g/m*3 13.1 C 0 km/h
Sensor: Nr:Datum:Temp:Abs-Feuchte:Windchill:Wind:
Aussen-T/F 1426 01-09-2021 04:35:00 13.2 C 11.02 g/m*3 13.2 C 0 km/h
1427 01-09-2021 04:40:00 13.3 C 11.09 g/m*3 13.3 C 0 km/h
1428 01-09-2021 04:45:00 13.4 C 11.16 g/m*3 13.4 C 0 km/h
1429 01-09-2021 04:50:00 13.4 C 11.28 g/m*3 13.4 C 0 km/h
1430 01-09-2021 04:55:00 13.5 C 11.35 g/m*3 13.5 C 0 km/h
1431 01-09-2021 05:00:00 13.6 C 11.3 g/m*3 13.6 C 0 km/h
1432 01-09-2021 05:05:00 13.6 C 11.3 g/m*3 13.6 C 0 km/h
1433 01-09-2021 05:10:00 13.6 C 11.3 g/m*3 13.6 C 0 km/h
1434 01-09-2021 05:15:00 13.6 C 11.3 g/m*3 13.6 C 0 km/h
1435 01-09-2021 05:20:00 13.6 C 11.3 g/m*3 13.6 C 0 km/h
1436 01-09-2021 05:25:00 13.6 C 11.3 g/m*3 13.6 C 0 km/h
1437 01-09-2021 05:30:00 13.6 C 11.3 g/m*3 13.6 C 0 km/h
1438 01-09-2021 05:35:00 13.6 C 11.3 g/m*3 13.6 C 0 km/h
1439 01-09-2021 05:40:00 13.6 C 11.3 g/m*3 13.6 C 0 km/h
1440 01-09-2021 05:45:00 13.6 C 11.3 g/m*3 13.6 C 0 km/h
1441 01-09-2021 05:50:00 13.6 C 11.3 g/m*3 13.6 C 0 km/h
1442 01-09-2021 05:55:00 13.6 C 11.3 g/m*3 13.6 C 0 km/h
1443 01-09-2021 06:00:00 13.6 C 11.3 g/m*3 13.6 C 0 km/h
1444 01-09-2021 06:05:00 13.6 C 11.3 g/m*3 13.6 C 0 km/h
1445 01-09-2021 06:10:00 13.6 C 11.3 g/m*3 13.6 C 0 km/h
1446 01-09-2021 06:15:00 13.6 C 11.3 g/m*3 13.6 C 0 km/h
1447 01-09-2021 06:20:00 13.6 C 11.3 g/m*3 13.6 C 0 km/h
1448 01-09-2021 06:25:00 13.5 C 11.23 g/m*3 13.5 C 0 km/h
1449 01-09-2021 06:30:00 13.5 C 11.23 g/m*3 13.5 C 0 km/h
1450 01-09-2021 06:35:00 13.5 C 11.23 g/m*3 13.5 C 0 km/h
Sensor: Nr:Datum:Temp:Abs-Feuchte:Windchill:Wind:
Aussen-T/F 1451 01-09-2021 06:40:00 13.5 C 11.23 g/m*3 13.5 C 0 km/h
1452 01-09-2021 06:45:00 13.4 C 11.16 g/m*3 13.4 C 0 km/h
1453 01-09-2021 06:50:00 13.4 C 11.16 g/m*3 13.4 C 0 km/h
1454 01-09-2021 06:55:00 13.4 C 11.16 g/m*3 13.4 C 0 km/h
1455 01-09-2021 07:00:00 13.4 C 11.16 g/m*3 13.4 C 0 km/h
1456 01-09-2021 07:05:00 13.4 C 11.16 g/m*3 13.4 C 0 km/h
1457 01-09-2021 07:10:00 13.4 C 11.16 g/m*3 13.4 C 0 km/h
1458 01-09-2021 07:15:00 13.4 C 11.16 g/m*3 13.4 C 0 km/h
1459 01-09-2021 07:20:00 13.4 C 11.16 g/m*3 13.4 C 0 km/h
1460 01-09-2021 07:25:00 13.4 C 11.16 g/m*3 13.4 C 0 km/h
1461 01-09-2021 07:30:00 13.5 C 11.23 g/m*3 13.5 C 0 km/h
1462 01-09-2021 07:35:00 13.6 C 11.3 g/m*3 13.6 C 0 km/h
1463 01-09-2021 07:40:00 13.6 C 11.3 g/m*3 13.6 C 0 km/h
1464 01-09-2021 07:45:00 13.7 C 11.37 g/m*3 13.7 C 0 km/h
1465 01-09-2021 07:50:00 13.7 C 11.37 g/m*3 13.7 C 0 km/h
1466 01-09-2021 07:55:00 13.8 C 11.44 g/m*3 13.8 C 0 km/h
1467 01-09-2021 08:00:00 13.8 C 11.44 g/m*3 13.8 C 0 km/h
1468 01-09-2021 08:05:00 13.8 C 11.44 g/m*3 13.8 C 0 km/h
1469 01-09-2021 08:10:00 13.9 C 11.51 g/m*3 13.9 C 0 km/h
1470 01-09-2021 08:15:00 14 C 11.58 g/m*3 14 C 0 km/h
1471 01-09-2021 08:20:00 14.1 C 11.65 g/m*3 14.1 C 0 km/h
1472 01-09-2021 08:25:00 14.1 C 11.65 g/m*3 14.1 C 0 km/h
1473 01-09-2021 08:30:00 14.2 C 11.72 g/m*3 14.2 C 0 km/h
1474 01-09-2021 08:35:00 14.3 C 11.79 g/m*3 14.3 C 0 km/h
1475 01-09-2021 08:40:00 14.4 C 11.87 g/m*3 14.4 C 0 km/h
Sensor: Nr:Datum:Temp:Abs-Feuchte:Windchill:Wind:
Aussen-T/F 1476 01-09-2021 08:45:00 14.5 C 12.06 g/m*3 14.5 C 0 km/h
1477 01-09-2021 08:50:00 14.6 C 12.01 g/m*3 14.6 C 0 km/h
1478 01-09-2021 08:55:00 14.7 C 12.09 g/m*3 14.7 C 0 km/h
1479 01-09-2021 09:00:00 14.7 C 12.09 g/m*3 14.7 C 0 km/h
1480 01-09-2021 09:05:00 14.8 C 12.16 g/m*3 14.8 C 0 km/h
1481 01-09-2021 09:10:00 14.9 C 12.24 g/m*3 14.9 C 0 km/h
1482 01-09-2021 09:15:00 14.9 C 12.24 g/m*3 14.9 C 0 km/h
1483 01-09-2021 09:20:00 15 C 12.31 g/m*3 15 C 0 km/h
1484 01-09-2021 09:25:00 15.1 C 12.26 g/m*3 15.1 C 0 km/h
1485 01-09-2021 09:30:00 15.1 C 12.26 g/m*3 15.1 C 0 km/h
1486 01-09-2021 09:35:00 15.2 C 12.2 g/m*3 15.2 C 0 km/h
1487 01-09-2021 09:40:00 15.2 C 12.2 g/m*3 15.2 C 0 km/h
1488 01-09-2021 09:45:00 15.3 C 12.14 g/m*3 15.3 C 0 km/h
1489 01-09-2021 09:50:00 15.4 C 12.22 g/m*3 15.4 C 0 km/h
1490 01-09-2021 09:55:00 15.4 C 12.09 g/m*3 15.4 C 0 km/h
1491 01-09-2021 10:00:00 15.6 C 12.23 g/m*3 15.6 C 0 km/h
1492 01-09-2021 10:05:00 15.6 C 12.1 g/m*3 15.6 C 6.4 km/h
1493 01-09-2021 10:10:00 15.7 C 11.91 g/m*3 15.7 C 4.8 km/h
1494 01-09-2021 10:15:00 15.8 C 11.98 g/m*3 15.8 C 1.6 km/h
1495 01-09-2021 10:20:00 15.9 C 11.92 g/m*3 15.9 C 3.2 km/h
1496 01-09-2021 10:25:00 16.1 C 12.06 g/m*3 16.1 C 1.6 km/h
1497 01-09-2021 10:30:00 16.2 C 12 g/m*3 16.2 C 3.2 km/h
1498 01-09-2021 10:35:00 16.3 C 12.07 g/m*3 16.3 C 1.6 km/h
1499 01-09-2021 10:40:00 16.3 C 11.93 g/m*3 16.3 C 6.4 km/h
1500 01-09-2021 10:45:00 16.4 C 12 g/m*3 16.4 C 3.2 km/h
Sensor: Nr:Datum:Temp:Abs-Feuchte:Windchill:Wind:
Aussen-T/F 1501 01-09-2021 10:50:00 16.4 C 12 g/m*3 16.4 C 0 km/h
1502 01-09-2021 10:55:00 16.4 C 12 g/m*3 16.4 C 3.2 km/h
1503 01-09-2021 11:00:00 16.4 C 12 g/m*3 16.4 C 4.8 km/h
1504 01-09-2021 11:05:00 16.5 C 12.08 g/m*3 16.5 C 3.2 km/h
1505 01-09-2021 11:10:00 16.6 C 12.29 g/m*3 16.6 C 3.2 km/h
1506 01-09-2021 11:15:00 16.6 C 12.01 g/m*3 16.6 C 3.2 km/h
1507 01-09-2021 11:20:00 16.7 C 12.22 g/m*3 16.7 C 1.6 km/h
1508 01-09-2021 11:25:00 16.7 C 12.22 g/m*3 16.7 C 0 km/h
1509 01-09-2021 11:30:00 16.8 C 12.3 g/m*3 16.8 C 1.6 km/h
1510 01-09-2021 11:35:00 16.9 C 12.37 g/m*3 16.9 C 6.4 km/h
1511 01-09-2021 11:40:00 17.1 C 12.23 g/m*3 17.1 C 4.8 km/h
1512 01-09-2021 11:45:00 17.2 C 12.3 g/m*3 17.2 C 4.8 km/h
1513 01-09-2021 11:50:00 17.3 C 12.23 g/m*3 17.3 C 3.2 km/h
1514 01-09-2021 11:55:00 17.3 C 12.08 g/m*3 17.3 C 4.8 km/h
1515 01-09-2021 12:00:00 17.4 C 12 g/m*3 17.4 C 3.2 km/h
1516 01-09-2021 12:05:00 17.6 C 12.15 g/m*3 17.6 C 4.8 km/h
1517 01-09-2021 12:10:00 17.6 C 12.15 g/m*3 17.6 C 6.4 km/h
1518 01-09-2021 12:15:00 17.6 C 12 g/m*3 17.6 C 11.3 km/h
1519 01-09-2021 12:20:00 17.6 C 12.15 g/m*3 17.6 C 4.8 km/h
1520 01-09-2021 12:25:00 17.6 C 12 g/m*3 17.6 C 6.4 km/h
1521 01-09-2021 12:30:00 17.5 C 11.93 g/m*3 17.5 C 3.2 km/h
1522 01-09-2021 12:35:00 17.6 C 12 g/m*3 17.6 C 3.2 km/h
1523 01-09-2021 12:40:00 17.5 C 11.78 g/m*3 17.5 C 4.8 km/h
1524 01-09-2021 12:45:00 17.6 C 12 g/m*3 17.6 C 0 km/h
1525 01-09-2021 12:50:00 17.6 C 12 g/m*3 17.6 C 1.6 km/h
Sensor: Nr:Datum:Temp:Abs-Feuchte:Windchill:Wind:
Aussen-T/F 1526 01-09-2021 12:55:00 17.7 C 11.92 g/m*3 17.7 C 3.2 km/h
1527 01-09-2021 13:00:00 17.8 C 11.54 g/m*3 17.8 C 6.4 km/h
1528 01-09-2021 13:05:00 17.9 C 11.45 g/m*3 17.9 C 6.4 km/h
1529 01-09-2021 13:10:00 18.1 C 11.59 g/m*3 18.1 C 8.1 km/h
1530 01-09-2021 13:15:00 18.1 C 11.9 g/m*3 18.1 C 4.8 km/h
1531 01-09-2021 13:20:00 18.2 C 11.97 g/m*3 18.2 C 9.7 km/h
1532 01-09-2021 13:25:00 18.2 C 11.5 g/m*3 18.2 C 8.1 km/h
1533 01-09-2021 13:30:00 18.2 C 11.5 g/m*3 18.2 C 8.1 km/h
1534 01-09-2021 13:35:00 18.2 C 11.5 g/m*3 18.2 C 4.8 km/h
1535 01-09-2021 13:40:00 18.3 C 11.41 g/m*3 18.3 C 8.1 km/h
1536 01-09-2021 13:45:00 18.4 C 11.32 g/m*3 18.4 C 6.4 km/h
1537 01-09-2021 13:50:00 18.5 C 11.55 g/m*3 18.5 C 6.4 km/h
1538 01-09-2021 13:55:00 18.6 C 11.62 g/m*3 18.6 C 4.8 km/h
1539 01-09-2021 14:00:00 18.7 C 11.69 g/m*3 18.7 C 6.4 km/h
1540 01-09-2021 14:05:00 18.8 C 11.6 g/m*3 18.8 C 11.3 km/h
1541 01-09-2021 14:10:00 18.7 C 11.53 g/m*3 18.7 C 9.7 km/h
1542 01-09-2021 14:15:00 18.6 C 10.98 g/m*3 18.6 C 9.7 km/h
1543 01-09-2021 14:20:00 18.6 C 10.98 g/m*3 18.6 C 6.4 km/h
1544 01-09-2021 14:25:00 18.6 C 11.3 g/m*3 18.6 C 4.8 km/h
1545 01-09-2021 14:30:00 18.6 C 11.3 g/m*3 18.6 C 4.8 km/h
1546 01-09-2021 14:35:00 18.7 C 11.21 g/m*3 18.7 C 4.8 km/h
1547 01-09-2021 14:40:00 18.7 C 11.37 g/m*3 18.7 C 6.4 km/h
1548 01-09-2021 14:45:00 18.8 C 11.6 g/m*3 18.8 C 8.1 km/h
1549 01-09-2021 14:50:00 18.9 C 11.5 g/m*3 18.9 C 11.3 km/h
1550 01-09-2021 14:55:00 18.9 C 11.18 g/m*3 18.9 C 8.1 km/h
Sensor: Nr:Datum:Temp:Abs-Feuchte:Windchill:Wind:
Aussen-T/F 1551 01-09-2021 15:00:00 18.9 C 11.18 g/m*3 18.9 C 9.7 km/h
1552 01-09-2021 15:05:00 18.9 C 11.34 g/m*3 18.9 C 8.1 km/h
1553 01-09-2021 15:10:00 18.9 C 11.34 g/m*3 18.9 C 6.4 km/h
1554 01-09-2021 15:15:00 19.1 C 11.8 g/m*3 19.1 C 8.1 km/h
1555 01-09-2021 15:20:00 19.1 C 11.47 g/m*3 19.1 C 11.3 km/h
1556 01-09-2021 15:25:00 18.9 C 11.34 g/m*3 18.9 C 8.1 km/h
1557 01-09-2021 15:30:00 18.8 C 11.27 g/m*3 18.8 C 6.4 km/h
1558 01-09-2021 15:35:00 18.8 C 11.27 g/m*3 18.8 C 3.2 km/h
1559 01-09-2021 15:40:00 18.8 C 11.27 g/m*3 18.8 C 8.1 km/h
1560 01-09-2021 15:45:00 18.9 C 11.34 g/m*3 18.9 C 1.6 km/h
1561 01-09-2021 15:50:00 18.9 C 11.34 g/m*3 18.9 C 6.4 km/h
1562 01-09-2021 15:55:00 18.8 C 10.95 g/m*3 18.8 C 4.8 km/h
1563 01-09-2021 16:00:00 18.8 C 10.95 g/m*3 18.8 C 3.2 km/h
1564 01-09-2021 16:05:00 18.9 C 11.18 g/m*3 18.9 C 0 km/h
1565 01-09-2021 16:10:00 19.2 C 11.71 g/m*3 19.2 C 6.4 km/h
1566 01-09-2021 16:15:00 19.4 C 12.01 g/m*3 19.4 C 11.3 km/h
1567 01-09-2021 16:20:00 19.3 C 11.94 g/m*3 19.3 C 4.8 km/h
1568 01-09-2021 16:25:00 19.1 C 11.8 g/m*3 19.1 C 9.7 km/h
1569 01-09-2021 16:30:00 18.9 C 11.66 g/m*3 18.9 C 4.8 km/h
1570 01-09-2021 16:35:00 18.8 C 11.6 g/m*3 18.8 C 6.4 km/h
1571 01-09-2021 16:40:00 18.7 C 12.01 g/m*3 18.7 C 0 km/h
1572 01-09-2021 16:45:00 18.7 C 11.69 g/m*3 18.7 C 3.2 km/h
1573 01-09-2021 16:50:00 18.6 C 11.62 g/m*3 18.6 C 6.4 km/h
1574 01-09-2021 16:55:00 18.6 C 11.62 g/m*3 18.6 C 4.8 km/h
1575 01-09-2021 17:00:00 18.8 C 11.92 g/m*3 18.8 C 4.8 km/h
Sensor: Nr:Datum:Temp:Abs-Feuchte:Windchill:Wind:
Aussen-T/F 1576 01-09-2021 17:05:00 19.1 C 12.13 g/m*3 19.1 C 4.8 km/h
1577 01-09-2021 17:10:00 19.3 C 11.61 g/m*3 19.3 C 4.8 km/h
1578 01-09-2021 17:15:00 19.6 C 11.99 g/m*3 19.6 C 3.2 km/h
1579 01-09-2021 17:20:00 19.9 C 11.85 g/m*3 19.9 C 3.2 km/h
1580 01-09-2021 17:25:00 20.1 C 11.82 g/m*3 20.1 C 11.3 km/h
1581 01-09-2021 17:30:00 20 C 11.75 g/m*3 20 C 11.3 km/h
1582 01-09-2021 17:35:00 19.7 C 11.72 g/m*3 19.7 C 8.1 km/h
1583 01-09-2021 17:40:00 19.4 C 11.68 g/m*3 19.4 C 6.4 km/h
1584 01-09-2021 17:45:00 19.3 C 11.78 g/m*3 19.3 C 4.8 km/h
1585 01-09-2021 17:50:00 19.2 C 11.71 g/m*3 19.2 C 8.1 km/h
1586 01-09-2021 17:55:00 19.2 C 11.71 g/m*3 19.2 C 8.1 km/h
1587 01-09-2021 18:00:00 19.1 C 11.8 g/m*3 19.1 C 8.1 km/h
1588 01-09-2021 18:05:00 19 C 11.57 g/m*3 19 C 4.8 km/h
1589 01-09-2021 18:10:00 18.9 C 11.5 g/m*3 18.9 C 9.7 km/h
1590 01-09-2021 18:15:00 18.8 C 11.6 g/m*3 18.8 C 4.8 km/h
1591 01-09-2021 18:20:00 18.8 C 11.76 g/m*3 18.8 C 9.7 km/h
1592 01-09-2021 18:25:00 18.7 C 11.69 g/m*3 18.7 C 6.4 km/h
1593 01-09-2021 18:30:00 18.5 C 11.39 g/m*3 18.5 C 6.4 km/h
1594 01-09-2021 18:35:00 18.4 C 11.48 g/m*3 18.4 C 6.4 km/h
1595 01-09-2021 18:40:00 18.3 C 11.57 g/m*3 18.3 C 6.4 km/h
1596 01-09-2021 18:45:00 18.4 C 11.64 g/m*3 18.4 C 8.1 km/h
1597 01-09-2021 18:50:00 18.6 C 11.78 g/m*3 18.6 C 9.7 km/h
1598 01-09-2021 18:55:00 18.6 C 11.78 g/m*3 18.6 C 9.7 km/h
1599 01-09-2021 19:00:00 18.6 C 11.62 g/m*3 18.6 C 4.8 km/h
1600 01-09-2021 19:05:00 18.4 C 11.64 g/m*3 18.4 C 6.4 km/h
Sensor: Nr:Datum:Temp:Abs-Feuchte:Windchill:Wind:
Aussen-T/F 1601 01-09-2021 19:10:00 18.3 C 11.57 g/m*3 18.3 C 8.1 km/h
1602 01-09-2021 19:15:00 18.2 C 11.66 g/m*3 18.2 C 11.3 km/h
1603 01-09-2021 19:20:00 18.1 C 11.59 g/m*3 18.1 C 9.7 km/h
1604 01-09-2021 19:25:00 18.1 C 11.59 g/m*3 18.1 C 8.1 km/h
1605 01-09-2021 19:30:00 18 C 11.52 g/m*3 18 C 4.8 km/h
1606 01-09-2021 19:35:00 17.9 C 11.45 g/m*3 17.9 C 6.4 km/h
1607 01-09-2021 19:40:00 17.8 C 11.38 g/m*3 17.8 C 4.8 km/h
1608 01-09-2021 19:45:00 17.7 C 11.47 g/m*3 17.7 C 3.2 km/h
1609 01-09-2021 19:50:00 17.6 C 11.55 g/m*3 17.6 C 1.6 km/h
1610 01-09-2021 19:55:00 17.4 C 11.56 g/m*3 17.4 C 3.2 km/h
1611 01-09-2021 20:00:00 17.2 C 11.57 g/m*3 17.2 C 3.2 km/h
1612 01-09-2021 20:05:00 16.9 C 11.51 g/m*3 16.9 C 1.6 km/h
1613 01-09-2021 20:10:00 16.6 C 11.44 g/m*3 16.6 C 3.2 km/h
1614 01-09-2021 20:15:00 16.3 C 11.38 g/m*3 16.3 C 0 km/h
1615 01-09-2021 20:20:00 15.9 C 11.24 g/m*3 15.9 C 0 km/h
1616 01-09-2021 20:25:00 15.6 C 11.17 g/m*3 15.6 C 0 km/h
1617 01-09-2021 20:30:00 15.3 C 11.1 g/m*3 15.3 C 0 km/h
1618 01-09-2021 20:35:00 15.1 C 11.09 g/m*3 15.1 C 0 km/h
1619 01-09-2021 20:40:00 14.8 C 10.89 g/m*3 14.8 C 4.8 km/h
1620 01-09-2021 20:45:00 14.7 C 10.95 g/m*3 14.7 C 6.4 km/h
1621 01-09-2021 20:50:00 14.5 C 10.82 g/m*3 14.5 C 6.4 km/h
1622 01-09-2021 20:55:00 14.4 C 10.88 g/m*3 14.4 C 4.8 km/h
1623 01-09-2021 21:00:00 14.2 C 10.75 g/m*3 14.2 C 4.8 km/h
1624 01-09-2021 21:05:00 14.1 C 10.8 g/m*3 14.1 C 1.6 km/h
1625 01-09-2021 21:10:00 13.9 C 10.67 g/m*3 13.9 C 1.6 km/h
Sensor: Nr:Datum:Temp:Abs-Feuchte:Windchill:Wind:
Aussen-T/F 1626 01-09-2021 21:15:00 13.8 C 10.6 g/m*3 13.8 C 1.6 km/h
1627 01-09-2021 21:20:00 13.7 C 10.66 g/m*3 13.7 C 0 km/h
1628 01-09-2021 21:25:00 13.6 C 10.59 g/m*3 13.6 C 1.6 km/h
1629 01-09-2021 21:30:00 13.5 C 10.53 g/m*3 13.5 C 1.6 km/h
1630 01-09-2021 21:35:00 13.4 C 10.46 g/m*3 13.4 C 1.6 km/h
1631 01-09-2021 21:40:00 13.3 C 10.51 g/m*3 13.3 C 1.6 km/h
1632 01-09-2021 21:45:00 13.3 C 10.51 g/m*3 13.3 C 0 km/h
1633 01-09-2021 21:50:00 13.2 C 10.56 g/m*3 13.2 C 0 km/h
1634 01-09-2021 21:55:00 13.2 C 10.56 g/m*3 13.2 C 0 km/h
1635 01-09-2021 22:00:00 13.2 C 10.56 g/m*3 13.2 C 1.6 km/h
1636 01-09-2021 22:05:00 13.2 C 10.68 g/m*3 13.2 C 1.6 km/h
1637 01-09-2021 22:10:00 13.3 C 10.74 g/m*3 13.3 C 1.6 km/h
1638 01-09-2021 22:15:00 13.3 C 10.74 g/m*3 13.3 C 0 km/h
1639 01-09-2021 22:20:00 13.4 C 10.81 g/m*3 13.4 C 1.6 km/h
1640 01-09-2021 22:25:00 13.3 C 10.74 g/m*3 13.3 C 0 km/h
1641 01-09-2021 22:30:00 13.3 C 10.74 g/m*3 13.3 C 0 km/h
1642 01-09-2021 22:35:00 13.3 C 10.74 g/m*3 13.3 C 0 km/h
1643 01-09-2021 22:40:00 13.2 C 10.68 g/m*3 13.2 C 1.6 km/h
1644 01-09-2021 22:45:00 13.1 C 10.5 g/m*3 13.1 C 1.6 km/h
1645 01-09-2021 22:50:00 13 C 10.43 g/m*3 13 C 3.2 km/h
1646 01-09-2021 22:55:00 12.9 C 10.48 g/m*3 12.9 C 3.2 km/h
1647 01-09-2021 23:00:00 12.9 C 10.48 g/m*3 12.9 C 3.2 km/h
1648 01-09-2021 23:05:00 12.8 C 10.42 g/m*3 12.8 C 1.6 km/h
1649 01-09-2021 23:10:00 12.8 C 10.42 g/m*3 12.8 C 3.2 km/h
1650 01-09-2021 23:15:00 12.8 C 10.42 g/m*3 12.8 C 1.6 km/h
Sensor: Nr:Datum:Temp:Abs-Feuchte:Windchill:Wind:
Aussen-T/F 1651 01-09-2021 23:20:00 12.7 C 10.35 g/m*3 12.7 C 0 km/h
1652 01-09-2021 23:25:00 12.7 C 10.35 g/m*3 12.7 C 0 km/h
1653 01-09-2021 23:30:00 12.7 C 10.35 g/m*3 12.7 C 0 km/h
1654 01-09-2021 23:35:00 12.7 C 10.46 g/m*3 12.7 C 0 km/h
1655 01-09-2021 23:40:00 12.7 C 10.46 g/m*3 12.7 C 0 km/h
1656 01-09-2021 23:45:00 12.7 C 10.46 g/m*3 12.7 C 0 km/h
1657 01-09-2021 23:50:00 12.7 C 10.46 g/m*3 12.7 C 0 km/h
1658 01-09-2021 23:55:00 12.6 C 10.4 g/m*3 12.6 C 0 km/h
1659 02-09-2021 00:00:00 12.6 C 10.29 g/m*3 12.6 C 0 km/h
1660 02-09-2021 00:05:00 12.4 C 10.16 g/m*3 12.4 C 0 km/h
1661 02-09-2021 00:10:00 12.3 C 10.1 g/m*3 12.3 C 0 km/h
1662 02-09-2021 00:15:00 12.2 C 10.04 g/m*3 12.2 C 0 km/h
1663 02-09-2021 00:20:00 12.1 C 9.97 g/m*3 12.1 C 0 km/h
1664 02-09-2021 00:25:00 12 C 9.91 g/m*3 12 C 0 km/h
1665 02-09-2021 00:30:00 11.9 C 9.85 g/m*3 11.9 C 0 km/h
1666 02-09-2021 00:35:00 11.8 C 9.79 g/m*3 11.8 C 0 km/h
1667 02-09-2021 00:40:00 11.7 C 9.73 g/m*3 11.7 C 0 km/h
1668 02-09-2021 00:45:00 11.7 C 9.73 g/m*3 11.7 C 0 km/h
1669 02-09-2021 00:50:00 11.6 C 9.67 g/m*3 11.6 C 0 km/h
1670 02-09-2021 00:55:00 11.5 C 9.71 g/m*3 11.5 C 0 km/h
1671 02-09-2021 01:00:00 11.4 C 9.55 g/m*3 11.4 C 0 km/h
1672 02-09-2021 01:05:00 11.3 C 9.59 g/m*3 11.3 C 0 km/h
1673 02-09-2021 01:10:00 11.3 C 9.59 g/m*3 11.3 C 0 km/h
1674 02-09-2021 01:15:00 11.2 C 9.53 g/m*3 11.2 C 0 km/h
1675 02-09-2021 01:20:00 11.1 C 9.47 g/m*3 11.1 C 0 km/h
Sensor: Nr:Datum:Temp:Abs-Feuchte:Windchill:Wind:
Aussen-T/F 1676 02-09-2021 01:25:00 11.1 C 9.47 g/m*3 11.1 C 0 km/h
1677 02-09-2021 01:30:00 11 C 9.41 g/m*3 11 C 0 km/h
1678 02-09-2021 01:35:00 10.9 C 9.35 g/m*3 10.9 C 0 km/h
1679 02-09-2021 01:40:00 10.8 C 9.29 g/m*3 10.8 C 0 km/h
1680 02-09-2021 01:45:00 10.8 C 9.29 g/m*3 10.8 C 0 km/h
1681 02-09-2021 01:50:00 10.8 C 9.29 g/m*3 10.8 C 0 km/h
1682 02-09-2021 01:55:00 10.7 C 9.23 g/m*3 10.7 C 0 km/h
1683 02-09-2021 02:00:00 10.7 C 9.23 g/m*3 10.7 C 0 km/h
1684 02-09-2021 02:05:00 10.6 C 9.17 g/m*3 10.6 C 0 km/h
1685 02-09-2021 02:10:00 10.6 C 9.17 g/m*3 10.6 C 0 km/h
1686 02-09-2021 02:15:00 10.5 C 9.12 g/m*3 10.5 C 0 km/h
1687 02-09-2021 02:20:00 10.6 C 9.17 g/m*3 10.6 C 0 km/h
1688 02-09-2021 02:25:00 10.6 C 9.27 g/m*3 10.6 C 0 km/h
1689 02-09-2021 02:30:00 10.5 C 9.21 g/m*3 10.5 C 0 km/h
1690 02-09-2021 02:35:00 10.4 C 9.16 g/m*3 10.4 C 0 km/h
1691 02-09-2021 02:40:00 10.4 C 9.16 g/m*3 10.4 C 0 km/h
1692 02-09-2021 02:45:00 10.4 C 9.16 g/m*3 10.4 C 0 km/h
1693 02-09-2021 02:50:00 10.4 C 9.16 g/m*3 10.4 C 0 km/h
1694 02-09-2021 02:55:00 10.4 C 9.16 g/m*3 10.4 C 0 km/h
1695 02-09-2021 03:00:00 10.4 C 9.16 g/m*3 10.4 C 0 km/h
1696 02-09-2021 03:05:00 10.4 C 9.16 g/m*3 10.4 C 0 km/h
1697 02-09-2021 03:10:00 10.4 C 9.16 g/m*3 10.4 C 0 km/h
1698 02-09-2021 03:15:00 10.4 C 9.16 g/m*3 10.4 C 0 km/h
1699 02-09-2021 03:20:00 10.5 C 9.21 g/m*3 10.5 C 0 km/h
1700 02-09-2021 03:25:00 10.4 C 9.16 g/m*3 10.4 C 0 km/h
Sensor: Nr:Datum:Temp:Abs-Feuchte:Windchill:Wind:
Aussen-T/F 1701 02-09-2021 03:30:00 10.4 C 9.16 g/m*3 10.4 C 0 km/h
1702 02-09-2021 03:35:00 10.4 C 9.16 g/m*3 10.4 C 0 km/h
1703 02-09-2021 03:40:00 10.5 C 9.21 g/m*3 10.5 C 0 km/h
1704 02-09-2021 03:45:00 10.6 C 9.37 g/m*3 10.6 C 0 km/h
1705 02-09-2021 03:50:00 10.7 C 9.43 g/m*3 10.7 C 0 km/h
1706 02-09-2021 03:55:00 10.8 C 9.49 g/m*3 10.8 C 0 km/h
1707 02-09-2021 04:00:00 10.9 C 9.55 g/m*3 10.9 C 0 km/h
1708 02-09-2021 04:05:00 11 C 9.61 g/m*3 11 C 0 km/h
1709 02-09-2021 04:10:00 11.1 C 9.67 g/m*3 11.1 C 0 km/h
1710 02-09-2021 04:15:00 11.1 C 9.67 g/m*3 11.1 C 0 km/h
1711 02-09-2021 04:20:00 11.1 C 9.67 g/m*3 11.1 C 0 km/h
1712 02-09-2021 04:25:00 11.2 C 9.73 g/m*3 11.2 C 0 km/h
1713 02-09-2021 04:30:00 11.2 C 9.73 g/m*3 11.2 C 0 km/h
1714 02-09-2021 04:35:00 11.2 C 9.73 g/m*3 11.2 C 0 km/h
1715 02-09-2021 04:40:00 11.2 C 9.73 g/m*3 11.2 C 0 km/h
1716 02-09-2021 04:45:00 11.3 C 9.79 g/m*3 11.3 C 0 km/h
1717 02-09-2021 04:50:00 11.3 C 9.79 g/m*3 11.3 C 0 km/h
1718 02-09-2021 04:55:00 11.3 C 9.79 g/m*3 11.3 C 0 km/h
1719 02-09-2021 05:00:00 11.4 C 9.85 g/m*3 11.4 C 0 km/h
1720 02-09-2021 05:05:00 11.4 C 9.85 g/m*3 11.4 C 0 km/h
1721 02-09-2021 05:10:00 11.5 C 9.92 g/m*3 11.5 C 0 km/h
1722 02-09-2021 05:15:00 11.5 C 9.92 g/m*3 11.5 C 0 km/h
1723 02-09-2021 05:20:00 11.6 C 9.98 g/m*3 11.6 C 0 km/h
1724 02-09-2021 05:25:00 11.6 C 9.98 g/m*3 11.6 C 0 km/h
1725 02-09-2021 05:30:00 11.7 C 10.04 g/m*3 11.7 C 0 km/h
Sensor: Nr:Datum:Temp:Abs-Feuchte:Windchill:Wind:
Aussen-T/F 1726 02-09-2021 05:35:00 11.7 C 10.04 g/m*3 11.7 C 0 km/h
1727 02-09-2021 05:40:00 11.7 C 10.04 g/m*3 11.7 C 0 km/h
1728 02-09-2021 05:45:00 11.7 C 10.04 g/m*3 11.7 C 1.6 km/h
1729 02-09-2021 05:50:00 11.7 C 10.04 g/m*3 11.7 C 0 km/h
1730 02-09-2021 05:55:00 11.6 C 9.98 g/m*3 11.6 C 1.6 km/h
1731 02-09-2021 06:00:00 11.6 C 9.98 g/m*3 11.6 C 1.6 km/h
1732 02-09-2021 06:05:00 11.6 C 9.98 g/m*3 11.6 C 0 km/h
1733 02-09-2021 06:10:00 11.5 C 9.92 g/m*3 11.5 C 0 km/h
1734 02-09-2021 06:15:00 11.4 C 9.85 g/m*3 11.4 C 4.8 km/h
1735 02-09-2021 06:20:00 11.4 C 9.85 g/m*3 11.4 C 4.8 km/h
1736 02-09-2021 06:25:00 11.4 C 9.85 g/m*3 11.4 C 1.6 km/h
1737 02-09-2021 06:30:00 11.3 C 9.79 g/m*3 11.3 C 0 km/h
1738 02-09-2021 06:35:00 11.3 C 9.79 g/m*3 11.3 C 0 km/h
1739 02-09-2021 06:40:00 11.3 C 9.79 g/m*3 11.3 C 0 km/h
1740 02-09-2021 06:45:00 11.3 C 9.79 g/m*3 11.3 C 0 km/h
1741 02-09-2021 06:50:00 11.3 C 9.79 g/m*3 11.3 C 0 km/h
1742 02-09-2021 06:55:00 11.3 C 9.79 g/m*3 11.3 C 0 km/h
1743 02-09-2021 07:00:00 11.3 C 9.79 g/m*3 11.3 C 1.6 km/h
1744 02-09-2021 07:05:00 11.2 C 9.73 g/m*3 11.2 C 0 km/h
1745 02-09-2021 07:10:00 11.2 C 9.73 g/m*3 11.2 C 1.6 km/h
1746 02-09-2021 07:15:00 11.2 C 9.73 g/m*3 11.2 C 1.6 km/h
1747 02-09-2021 07:20:00 11.2 C 9.73 g/m*3 11.2 C 0 km/h
1748 02-09-2021 07:25:00 11.2 C 9.73 g/m*3 11.2 C 1.6 km/h
1749 02-09-2021 07:30:00 11.2 C 9.73 g/m*3 11.2 C 0 km/h
1750 02-09-2021 07:35:00 11.2 C 9.73 g/m*3 11.2 C 0 km/h
Sensor: Nr:Datum:Temp:Abs-Feuchte:Windchill:Wind:
Aussen-T/F 1751 02-09-2021 07:40:00 11.3 C 9.79 g/m*3 11.3 C 0 km/h
1752 02-09-2021 07:45:00 11.3 C 9.79 g/m*3 11.3 C 1.6 km/h
1753 02-09-2021 07:50:00 11.3 C 9.79 g/m*3 11.3 C 0 km/h
1754 02-09-2021 07:55:00 11.4 C 9.85 g/m*3 11.4 C 0 km/h
1755 02-09-2021 08:00:00 11.4 C 9.96 g/m*3 11.4 C 0 km/h
1756 02-09-2021 08:05:00 11.4 C 9.96 g/m*3 11.4 C 1.6 km/h
1757 02-09-2021 08:10:00 11.3 C 9.89 g/m*3 11.3 C 0 km/h
1758 02-09-2021 08:15:00 11.4 C 9.96 g/m*3 11.4 C 0 km/h
1759 02-09-2021 08:20:00 11.4 C 9.96 g/m*3 11.4 C 0 km/h
1760 02-09-2021 08:25:00 11.5 C 10.02 g/m*3 11.5 C 0 km/h
1761 02-09-2021 08:30:00 11.5 C 10.02 g/m*3 11.5 C 0 km/h
1762 02-09-2021 08:35:00 11.6 C 10.08 g/m*3 11.6 C 0 km/h
1763 02-09-2021 08:40:00 11.5 C 10.02 g/m*3 11.5 C 1.6 km/h
1764 02-09-2021 08:45:00 11.6 C 10.08 g/m*3 11.6 C 1.6 km/h
1765 02-09-2021 08:50:00 11.6 C 10.08 g/m*3 11.6 C 0 km/h
1766 02-09-2021 08:55:00 11.7 C 10.15 g/m*3 11.7 C 0 km/h
1767 02-09-2021 09:00:00 11.7 C 10.15 g/m*3 11.7 C 3.2 km/h
1768 02-09-2021 09:05:00 11.7 C 10.15 g/m*3 11.7 C 0 km/h
1769 02-09-2021 09:10:00 11.8 C 10.21 g/m*3 11.8 C 0 km/h
1770 02-09-2021 09:15:00 11.8 C 10.21 g/m*3 11.8 C 0 km/h
1771 02-09-2021 09:20:00 11.8 C 10.21 g/m*3 11.8 C 0 km/h
1772 02-09-2021 09:25:00 11.9 C 10.27 g/m*3 11.9 C 1.6 km/h
1773 02-09-2021 09:30:00 12 C 10.34 g/m*3 12 C 0 km/h
1774 02-09-2021 09:35:00 12.1 C 10.4 g/m*3 12.1 C 3.2 km/h
1775 02-09-2021 09:40:00 12.1 C 10.4 g/m*3 12.1 C 3.2 km/h
Sensor: Nr:Datum:Temp:Abs-Feuchte:Windchill:Wind:
Aussen-T/F 1776 02-09-2021 09:45:00 12.2 C 10.47 g/m*3 12.2 C 0 km/h
1777 02-09-2021 09:50:00 12.2 C 10.47 g/m*3 12.2 C 0 km/h
1778 02-09-2021 09:55:00 12.3 C 10.53 g/m*3 12.3 C 1.6 km/h
1779 02-09-2021 10:00:00 12.4 C 10.6 g/m*3 12.4 C 3.2 km/h
1780 02-09-2021 10:05:00 12.4 C 10.6 g/m*3 12.4 C 1.6 km/h
1781 02-09-2021 10:10:00 12.6 C 10.73 g/m*3 12.6 C 0 km/h
1782 02-09-2021 10:15:00 12.7 C 10.8 g/m*3 12.7 C 3.2 km/h
1783 02-09-2021 10:20:00 12.8 C 10.87 g/m*3 12.8 C 1.6 km/h
1784 02-09-2021 10:25:00 12.9 C 10.93 g/m*3 12.9 C 6.4 km/h
1785 02-09-2021 10:30:00 13 C 11 g/m*3 13 C 3.2 km/h
1786 02-09-2021 10:35:00 13.1 C 11.07 g/m*3 13.1 C 0 km/h
1787 02-09-2021 10:40:00 13.2 C 11.14 g/m*3 13.2 C 0 km/h
1788 02-09-2021 10:45:00 13.2 C 11.14 g/m*3 13.2 C 0 km/h
1789 02-09-2021 10:50:00 13.2 C 11.02 g/m*3 13.2 C 0 km/h
1790 02-09-2021 10:55:00 13.2 C 11.02 g/m*3 13.2 C 3.2 km/h
1791 02-09-2021 11:00:00 13.3 C 11.09 g/m*3 13.3 C 1.6 km/h
1792 02-09-2021 11:05:00 13.4 C 11.16 g/m*3 13.4 C 1.6 km/h
1793 02-09-2021 11:10:00 13.5 C 11.23 g/m*3 13.5 C 1.6 km/h
1794 02-09-2021 11:15:00 13.6 C 11.3 g/m*3 13.6 C 3.2 km/h
1795 02-09-2021 11:20:00 13.7 C 11.37 g/m*3 13.7 C 3.2 km/h
1796 02-09-2021 11:25:00 13.8 C 11.44 g/m*3 13.8 C 1.6 km/h
1797 02-09-2021 11:30:00 13.9 C 11.51 g/m*3 13.9 C 3.2 km/h
1798 02-09-2021 11:35:00 14.1 C 11.53 g/m*3 14.1 C 0 km/h
1799 02-09-2021 11:40:00 14.2 C 11.6 g/m*3 14.2 C 1.6 km/h
1800 02-09-2021 11:45:00 14.3 C 11.67 g/m*3 14.3 C 0 km/h
Sensor: Nr:Datum:Temp:Abs-Feuchte:Windchill:Wind:
Aussen-T/F 1801 02-09-2021 11:50:00 14.4 C 11.74 g/m*3 14.4 C 1.6 km/h
1802 02-09-2021 11:55:00 14.6 C 11.89 g/m*3 14.6 C 1.6 km/h
1803 02-09-2021 12:00:00 14.7 C 11.96 g/m*3 14.7 C 1.6 km/h
1804 02-09-2021 12:05:00 14.8 C 11.91 g/m*3 14.8 C 1.6 km/h
1805 02-09-2021 12:10:00 15 C 12.05 g/m*3 15 C 1.6 km/h
1806 02-09-2021 12:15:00 15.2 C 12.2 g/m*3 15.2 C 0 km/h
1807 02-09-2021 12:20:00 15.3 C 12.28 g/m*3 15.3 C 1.6 km/h
1808 02-09-2021 12:25:00 15.5 C 12.43 g/m*3 15.5 C 0 km/h
1809 02-09-2021 12:30:00 15.7 C 12.44 g/m*3 15.7 C 1.6 km/h
1810 02-09-2021 12:35:00 15.9 C 12.59 g/m*3 15.9 C 3.2 km/h
1811 02-09-2021 12:40:00 16.1 C 12.61 g/m*3 16.1 C 1.6 km/h
1812 02-09-2021 12:45:00 16.3 C 12.62 g/m*3 16.3 C 3.2 km/h
1813 02-09-2021 12:50:00 16.6 C 12.71 g/m*3 16.6 C 3.2 km/h
1814 02-09-2021 12:55:00 16.8 C 12.87 g/m*3 16.8 C 1.6 km/h
1815 02-09-2021 13:00:00 17.1 C 12.81 g/m*3 17.1 C 1.6 km/h
1816 02-09-2021 13:05:00 17.3 C 12.96 g/m*3 17.3 C 3.2 km/h
1817 02-09-2021 13:10:00 17.5 C 12.97 g/m*3 17.5 C 3.2 km/h
1818 02-09-2021 13:15:00 17.7 C 12.98 g/m*3 17.7 C 1.6 km/h
1819 02-09-2021 13:20:00 17.9 C 13.13 g/m*3 17.9 C 1.6 km/h
1820 02-09-2021 13:25:00 18.1 C 12.98 g/m*3 18.1 C 1.6 km/h
1821 02-09-2021 13:30:00 18.3 C 13.13 g/m*3 18.3 C 1.6 km/h
1822 02-09-2021 13:35:00 18.5 C 12.97 g/m*3 18.5 C 1.6 km/h
1823 02-09-2021 13:40:00 18.7 C 13.29 g/m*3 18.7 C 1.6 km/h
1824 02-09-2021 13:45:00 18.8 C 13.37 g/m*3 18.8 C 0 km/h
1825 02-09-2021 13:50:00 19 C 13.2 g/m*3 19 C 3.2 km/h
Sensor: Nr:Datum:Temp:Abs-Feuchte:Windchill:Wind:
Aussen-T/F 1826 02-09-2021 13:55:00 19.2 C 13.52 g/m*3 19.2 C 1.6 km/h
1827 02-09-2021 14:00:00 19.4 C 13.35 g/m*3 19.4 C 6.4 km/h
1828 02-09-2021 14:05:00 19.7 C 13.08 g/m*3 19.7 C 4.8 km/h
1829 02-09-2021 14:10:00 20 C 14.34 g/m*3 20 C 0 km/h
1830 02-09-2021 14:15:00 20.2 C 14.51 g/m*3 20.2 C 1.6 km/h
1831 02-09-2021 14:20:00 20.3 C 13.72 g/m*3 20.3 C 3.2 km/h
1832 02-09-2021 14:25:00 20.4 C 14.33 g/m*3 20.4 C 1.6 km/h
1833 02-09-2021 14:30:00 20.5 C 13.35 g/m*3 20.5 C 8.1 km/h
1834 02-09-2021 14:35:00 20.7 C 13.68 g/m*3 20.7 C 9.7 km/h
1835 02-09-2021 14:40:00 20.8 C 12.86 g/m*3 20.8 C 6.4 km/h
1836 02-09-2021 14:45:00 20.8 C 13.22 g/m*3 20.8 C 3.2 km/h
1837 02-09-2021 14:50:00 21 C 12.82 g/m*3 21 C 4.8 km/h
1838 02-09-2021 14:55:00 21.2 C 13.34 g/m*3 21.2 C 3.2 km/h
1839 02-09-2021 15:00:00 21.3 C 13.61 g/m*3 21.3 C 3.2 km/h
1840 02-09-2021 15:05:00 21.4 C 12.75 g/m*3 21.4 C 12.9 km/h
1841 02-09-2021 15:10:00 21.5 C 12.45 g/m*3 21.5 C 12.9 km/h
1842 02-09-2021 15:15:00 21.7 C 12.97 g/m*3 21.7 C 9.7 km/h
1843 02-09-2021 15:20:00 21.8 C 12.85 g/m*3 21.8 C 8.1 km/h
1844 02-09-2021 15:25:00 21.9 C 12.35 g/m*3 21.9 C 11.3 km/h
1845 02-09-2021 15:30:00 22.2 C 13.15 g/m*3 22.2 C 6.4 km/h
1846 02-09-2021 15:35:00 22.3 C 12.44 g/m*3 22.3 C 9.7 km/h
1847 02-09-2021 15:40:00 22.4 C 12.51 g/m*3 22.4 C 8.1 km/h
1848 02-09-2021 15:45:00 22.7 C 12.53 g/m*3 22.7 C 11.3 km/h
1849 02-09-2021 15:50:00 22.8 C 12.19 g/m*3 22.8 C 8.1 km/h
1850 02-09-2021 15:55:00 22.8 C 12.6 g/m*3 22.8 C 4.8 km/h
Sensor: Nr:Datum:Temp:Abs-Feuchte:Windchill:Wind:
Aussen-T/F 1851 02-09-2021 16:00:00 22.8 C 12.4 g/m*3 22.8 C 9.7 km/h
1852 02-09-2021 16:05:00 22.8 C 12.19 g/m*3 22.8 C 8.1 km/h
1853 02-09-2021 16:10:00 22.8 C 12.6 g/m*3 22.8 C 6.4 km/h
1854 02-09-2021 16:15:00 22.8 C 12.4 g/m*3 22.8 C 6.4 km/h
1855 02-09-2021 16:20:00 22.9 C 12.06 g/m*3 22.9 C 9.7 km/h
1856 02-09-2021 16:25:00 23.1 C 13.02 g/m*3 23.1 C 3.2 km/h
1857 02-09-2021 16:30:00 23.2 C 12.27 g/m*3 23.2 C 6.4 km/h
1858 02-09-2021 16:35:00 23.5 C 12.27 g/m*3 23.5 C 9.7 km/h
1859 02-09-2021 16:40:00 23.9 C 12.11 g/m*3 23.9 C 9.7 km/h
1860 02-09-2021 16:45:00 24.2 C 12.1 g/m*3 24.2 C 9.7 km/h
1861 02-09-2021 16:50:00 24.5 C 13.65 g/m*3 24.5 C 8.1 km/h
1862 02-09-2021 16:55:00 24.8 C 12.52 g/m*3 24.8 C 8.1 km/h
1863 02-09-2021 17:00:00 24.9 C 12.36 g/m*3 24.9 C 4.8 km/h
1864 02-09-2021 17:05:00 25.2 C 13.27 g/m*3 25.2 C 8.1 km/h
1865 02-09-2021 17:10:00 25.4 C 12.71 g/m*3 25.4 C 8.1 km/h
1866 02-09-2021 17:15:00 25.4 C 12.48 g/m*3 25.4 C 8.1 km/h
1867 02-09-2021 17:20:00 25.2 C 12.11 g/m*3 25.2 C 12.9 km/h
1868 02-09-2021 17:25:00 25.2 C 13.04 g/m*3 25.2 C 4.8 km/h
1869 02-09-2021 17:30:00 25.4 C 12.71 g/m*3 25.4 C 8.1 km/h
1870 02-09-2021 17:35:00 25.6 C 12.62 g/m*3 25.6 C 8.1 km/h
1871 02-09-2021 17:40:00 25.6 C 13.09 g/m*3 25.6 C 4.8 km/h
1872 02-09-2021 17:45:00 25.7 C 13.89 g/m*3 25.7 C 8.1 km/h
1873 02-09-2021 17:50:00 25.8 C 14.69 g/m*3 25.8 C 1.6 km/h
1874 02-09-2021 17:55:00 26 C 14.36 g/m*3 26 C 0 km/h
1875 02-09-2021 18:00:00 26.2 C 14.77 g/m*3 26.2 C 1.6 km/h
Sensor: Nr:Datum:Temp:Abs-Feuchte:Windchill:Wind:
Aussen-T/F 1876 02-09-2021 18:05:00 26.1 C 13.46 g/m*3 26.1 C 6.4 km/h
1877 02-09-2021 18:10:00 26.1 C 13.95 g/m*3 26.1 C 4.8 km/h
1878 02-09-2021 18:15:00 26 C 15.34 g/m*3 26 C 0 km/h
1879 02-09-2021 18:20:00 25.8 C 15.41 g/m*3 25.8 C 3.2 km/h
1880 02-09-2021 18:25:00 25.5 C 14.68 g/m*3 25.5 C 9.7 km/h
1881 02-09-2021 18:30:00 25.3 C 14.75 g/m*3 25.3 C 3.2 km/h
1882 02-09-2021 18:35:00 25.1 C 14.82 g/m*3 25.1 C 1.6 km/h
1883 02-09-2021 18:40:00 24.8 C 15.02 g/m*3 24.8 C 1.6 km/h
1884 02-09-2021 18:45:00 24.5 C 14.99 g/m*3 24.5 C 3.2 km/h
1885 02-09-2021 18:50:00 24.2 C 14.96 g/m*3 24.2 C 1.6 km/h
1886 02-09-2021 18:55:00 23.8 C 14.84 g/m*3 23.8 C 3.2 km/h
1887 02-09-2021 19:00:00 23.3 C 14.64 g/m*3 23.3 C 4.8 km/h
1888 02-09-2021 19:05:00 22.8 C 14.43 g/m*3 22.8 C 0 km/h
1889 02-09-2021 19:10:00 22.5 C 14.38 g/m*3 22.5 C 0 km/h
1890 02-09-2021 19:15:00 22.1 C 14.05 g/m*3 22.1 C 0 km/h
1891 02-09-2021 19:20:00 21.8 C 14.01 g/m*3 21.8 C 6.4 km/h
1892 02-09-2021 19:25:00 21.4 C 13.87 g/m*3 21.4 C 4.8 km/h
1893 02-09-2021 19:30:00 21.1 C 13.82 g/m*3 21.1 C 3.2 km/h
1894 02-09-2021 19:35:00 20.8 C 13.58 g/m*3 20.8 C 4.8 km/h
1895 02-09-2021 19:40:00 20.4 C 13.27 g/m*3 20.4 C 4.8 km/h
1896 02-09-2021 19:45:00 20.1 C 13.21 g/m*3 20.1 C 3.2 km/h
1897 02-09-2021 19:50:00 19.7 C 13.08 g/m*3 19.7 C 4.8 km/h
1898 02-09-2021 19:55:00 19.3 C 12.94 g/m*3 19.3 C 3.2 km/h
1899 02-09-2021 20:00:00 19 C 12.87 g/m*3 19 C 3.2 km/h
1900 02-09-2021 20:05:00 18.7 C 12.81 g/m*3 18.7 C 3.2 km/h
Sensor: Nr:Datum:Temp:Abs-Feuchte:Windchill:Wind:
Aussen-T/F 1901 02-09-2021 20:10:00 18.4 C 12.58 g/m*3 18.4 C 4.8 km/h
1902 02-09-2021 20:15:00 18.1 C 12.52 g/m*3 18.1 C 3.2 km/h
1903 02-09-2021 20:20:00 17.9 C 12.37 g/m*3 17.9 C 3.2 km/h
1904 02-09-2021 20:25:00 17.7 C 12.37 g/m*3 17.7 C 3.2 km/h
1905 02-09-2021 20:30:00 17.6 C 12.45 g/m*3 17.6 C 4.8 km/h
1906 02-09-2021 20:35:00 17.4 C 12.3 g/m*3 17.4 C 1.6 km/h
1907 02-09-2021 20:40:00 17.3 C 12.37 g/m*3 17.3 C 1.6 km/h
1908 02-09-2021 20:45:00 17.1 C 12.23 g/m*3 17.1 C 3.2 km/h
1909 02-09-2021 20:50:00 17 C 12.15 g/m*3 17 C 4.8 km/h
1910 02-09-2021 20:55:00 16.9 C 12.23 g/m*3 16.9 C 6.4 km/h
1911 02-09-2021 21:00:00 16.8 C 12.15 g/m*3 16.8 C 6.4 km/h
1912 02-09-2021 21:05:00 16.7 C 12.08 g/m*3 16.7 C 8.1 km/h
1913 02-09-2021 21:10:00 16.6 C 12.15 g/m*3 16.6 C 6.4 km/h
1914 02-09-2021 21:15:00 16.4 C 12 g/m*3 16.4 C 4.8 km/h
1915 02-09-2021 21:20:00 16.4 C 12 g/m*3 16.4 C 4.8 km/h
1916 02-09-2021 21:25:00 16.3 C 12.07 g/m*3 16.3 C 4.8 km/h
1917 02-09-2021 21:30:00 16.2 C 12 g/m*3 16.2 C 1.6 km/h
1918 02-09-2021 21:35:00 16.1 C 12.06 g/m*3 16.1 C 0 km/h
1919 02-09-2021 21:40:00 16 C 11.99 g/m*3 16 C 0 km/h
1920 02-09-2021 21:45:00 15.9 C 11.92 g/m*3 15.9 C 0 km/h
1921 02-09-2021 21:50:00 15.7 C 11.77 g/m*3 15.7 C 0 km/h
1922 02-09-2021 21:55:00 15.6 C 11.7 g/m*3 15.6 C 0 km/h
1923 02-09-2021 22:00:00 15.4 C 11.56 g/m*3 15.4 C 0 km/h
1924 02-09-2021 22:05:00 15.3 C 11.49 g/m*3 15.3 C 0 km/h
1925 02-09-2021 22:10:00 15.1 C 11.48 g/m*3 15.1 C 0 km/h
Sensor: Nr:Datum:Temp:Abs-Feuchte:Windchill:Wind:
Aussen-T/F 1926 02-09-2021 22:15:00 14.9 C 11.34 g/m*3 14.9 C 0 km/h
1927 02-09-2021 22:20:00 14.8 C 11.27 g/m*3 14.8 C 0 km/h
1928 02-09-2021 22:25:00 14.7 C 11.21 g/m*3 14.7 C 0 km/h
1929 02-09-2021 22:30:00 14.6 C 11.26 g/m*3 14.6 C 0 km/h
1930 02-09-2021 22:35:00 14.4 C 11.13 g/m*3 14.4 C 0 km/h
1931 02-09-2021 22:40:00 14.3 C 11.06 g/m*3 14.3 C 0 km/h
1932 02-09-2021 22:45:00 14.3 C 11.06 g/m*3 14.3 C 0 km/h
1933 02-09-2021 22:50:00 14.2 C 11.11 g/m*3 14.2 C 0 km/h
1934 02-09-2021 22:55:00 14.1 C 11.04 g/m*3 14.1 C 0 km/h
1935 02-09-2021 23:00:00 14 C 10.98 g/m*3 14 C 0 km/h
1936 02-09-2021 23:05:00 13.9 C 11.03 g/m*3 13.9 C 1.6 km/h
1937 02-09-2021 23:10:00 13.9 C 11.03 g/m*3 13.9 C 0 km/h
1938 02-09-2021 23:15:00 13.8 C 10.96 g/m*3 13.8 C 0 km/h
1939 02-09-2021 23:20:00 13.8 C 10.96 g/m*3 13.8 C 0 km/h
1940 02-09-2021 23:25:00 13.7 C 10.89 g/m*3 13.7 C 0 km/h
1941 02-09-2021 23:30:00 13.7 C 10.89 g/m*3 13.7 C 0 km/h
1942 02-09-2021 23:35:00 13.6 C 10.83 g/m*3 13.6 C 0 km/h
1943 02-09-2021 23:40:00 13.5 C 10.88 g/m*3 13.5 C 0 km/h
1944 02-09-2021 23:45:00 13.4 C 10.81 g/m*3 13.4 C 0 km/h
1945 02-09-2021 23:50:00 13.4 C 10.81 g/m*3 13.4 C 0 km/h
1946 02-09-2021 23:55:00 13.4 C 10.81 g/m*3 13.4 C 0 km/h
1947 03-09-2021 00:00:00 13.3 C 10.74 g/m*3 13.3 C 0 km/h
1948 03-09-2021 00:05:00 13.2 C 10.68 g/m*3 13.2 C 0 km/h
1949 03-09-2021 00:10:00 13.2 C 10.68 g/m*3 13.2 C 0 km/h
1950 03-09-2021 00:15:00 13.1 C 10.61 g/m*3 13.1 C 0 km/h
Sensor: Nr:Datum:Temp:Abs-Feuchte:Windchill:Wind:
Aussen-T/F 1951 03-09-2021 00:20:00 13.1 C 10.61 g/m*3 13.1 C 0 km/h
1952 03-09-2021 00:25:00 13 C 10.55 g/m*3 13 C 0 km/h
1953 03-09-2021 00:30:00 12.9 C 10.48 g/m*3 12.9 C 0 km/h
1954 03-09-2021 00:35:00 12.9 C 10.48 g/m*3 12.9 C 0 km/h
1955 03-09-2021 00:40:00 12.8 C 10.42 g/m*3 12.8 C 0 km/h
1956 03-09-2021 00:45:00 12.7 C 10.35 g/m*3 12.7 C 0 km/h
1957 03-09-2021 00:50:00 12.7 C 10.46 g/m*3 12.7 C 0 km/h
1958 03-09-2021 00:55:00 12.6 C 10.4 g/m*3 12.6 C 0 km/h
1959 03-09-2021 01:00:00 12.6 C 10.29 g/m*3 12.6 C 0 km/h
1960 03-09-2021 01:05:00 12.5 C 10.33 g/m*3 12.5 C 0 km/h
1961 03-09-2021 01:10:00 12.4 C 10.27 g/m*3 12.4 C 0 km/h
1962 03-09-2021 01:15:00 12.4 C 10.27 g/m*3 12.4 C 0 km/h
1963 03-09-2021 01:20:00 12.4 C 10.27 g/m*3 12.4 C 0 km/h
1964 03-09-2021 01:25:00 12.3 C 10.21 g/m*3 12.3 C 0 km/h
1965 03-09-2021 01:30:00 12.3 C 10.21 g/m*3 12.3 C 0 km/h
1966 03-09-2021 01:35:00 12.3 C 10.21 g/m*3 12.3 C 0 km/h
1967 03-09-2021 01:40:00 12.3 C 10.21 g/m*3 12.3 C 0 km/h
1968 03-09-2021 01:45:00 12.2 C 10.14 g/m*3 12.2 C 0 km/h
1969 03-09-2021 01:50:00 12.2 C 10.14 g/m*3 12.2 C 0 km/h
1970 03-09-2021 01:55:00 12.2 C 10.14 g/m*3 12.2 C 0 km/h
1971 03-09-2021 02:00:00 12.1 C 10.08 g/m*3 12.1 C 0 km/h
1972 03-09-2021 02:05:00 12.1 C 10.08 g/m*3 12.1 C 0 km/h
1973 03-09-2021 02:10:00 11.9 C 9.96 g/m*3 11.9 C 0 km/h
1974 03-09-2021 02:15:00 11.9 C 9.96 g/m*3 11.9 C 0 km/h
1975 03-09-2021 02:20:00 11.8 C 9.89 g/m*3 11.8 C 0 km/h
Sensor: Nr:Datum:Temp:Abs-Feuchte:Windchill:Wind:
Aussen-T/F 1976 03-09-2021 02:25:00 11.8 C 9.89 g/m*3 11.8 C 0 km/h
1977 03-09-2021 02:30:00 11.8 C 10 g/m*3 11.8 C 0 km/h
1978 03-09-2021 02:35:00 11.8 C 10 g/m*3 11.8 C 0 km/h
1979 03-09-2021 02:40:00 11.8 C 10 g/m*3 11.8 C 0 km/h
1980 03-09-2021 02:45:00 11.7 C 9.94 g/m*3 11.7 C 0 km/h
1981 03-09-2021 02:50:00 11.7 C 9.94 g/m*3 11.7 C 0 km/h
1982 03-09-2021 02:55:00 11.6 C 9.77 g/m*3 11.6 C 0 km/h
1983 03-09-2021 03:00:00 11.6 C 9.87 g/m*3 11.6 C 0 km/h
1984 03-09-2021 03:05:00 11.5 C 9.81 g/m*3 11.5 C 0 km/h
1985 03-09-2021 03:10:00 11.4 C 9.75 g/m*3 11.4 C 0 km/h
1986 03-09-2021 03:15:00 11.4 C 9.75 g/m*3 11.4 C 0 km/h
1987 03-09-2021 03:20:00 11.4 C 9.75 g/m*3 11.4 C 0 km/h
1988 03-09-2021 03:25:00 11.3 C 9.69 g/m*3 11.3 C 0 km/h
1989 03-09-2021 03:30:00 11.3 C 9.69 g/m*3 11.3 C 0 km/h
1990 03-09-2021 03:35:00 11.2 C 9.63 g/m*3 11.2 C 0 km/h
1991 03-09-2021 03:40:00 11.2 C 9.63 g/m*3 11.2 C 0 km/h
1992 03-09-2021 03:45:00 11.1 C 9.57 g/m*3 11.1 C 0 km/h
1993 03-09-2021 03:50:00 11.1 C 9.57 g/m*3 11.1 C 0 km/h
1994 03-09-2021 03:55:00 11.1 C 9.57 g/m*3 11.1 C 0 km/h
1995 03-09-2021 04:00:00 11.1 C 9.57 g/m*3 11.1 C 0 km/h
1996 03-09-2021 04:05:00 11 C 9.51 g/m*3 11 C 0 km/h
1997 03-09-2021 04:10:00 10.9 C 9.45 g/m*3 10.9 C 0 km/h
1998 03-09-2021 04:15:00 10.9 C 9.45 g/m*3 10.9 C 0 km/h
1999 03-09-2021 04:20:00 10.8 C 9.39 g/m*3 10.8 C 0 km/h
2000 03-09-2021 04:25:00 10.8 C 9.39 g/m*3 10.8 C 0 km/h
Sensor: Nr:Datum:Temp:Abs-Feuchte:Windchill:Wind:
Aussen-T/F 2001 03-09-2021 04:30:00 10.8 C 9.39 g/m*3 10.8 C 0 km/h
2002 03-09-2021 04:35:00 10.8 C 9.39 g/m*3 10.8 C 0 km/h
2003 03-09-2021 04:40:00 10.7 C 9.33 g/m*3 10.7 C 0 km/h
2004 03-09-2021 04:45:00 10.7 C 9.33 g/m*3 10.7 C 0 km/h
2005 03-09-2021 04:50:00 10.7 C 9.33 g/m*3 10.7 C 0 km/h
2006 03-09-2021 04:55:00 10.7 C 9.33 g/m*3 10.7 C 0 km/h
2007 03-09-2021 05:00:00 10.7 C 9.33 g/m*3 10.7 C 0 km/h
2008 03-09-2021 05:05:00 10.7 C 9.33 g/m*3 10.7 C 0 km/h
2009 03-09-2021 05:10:00 10.6 C 9.27 g/m*3 10.6 C 0 km/h
2010 03-09-2021 05:15:00 10.6 C 9.27 g/m*3 10.6 C 0 km/h
2011 03-09-2021 05:20:00 10.6 C 9.27 g/m*3 10.6 C 0 km/h
2012 03-09-2021 05:25:00 10.6 C 9.27 g/m*3 10.6 C 0 km/h
2013 03-09-2021 05:30:00 10.6 C 9.37 g/m*3 10.6 C 0 km/h
2014 03-09-2021 05:35:00 10.6 C 9.37 g/m*3 10.6 C 0 km/h
2015 03-09-2021 05:40:00 10.7 C 9.43 g/m*3 10.7 C 0 km/h
2016 03-09-2021 05:45:00 10.7 C 9.43 g/m*3 10.7 C 0 km/h
2017 03-09-2021 05:50:00 10.8 C 9.49 g/m*3 10.8 C 0 km/h
2018 03-09-2021 05:55:00 10.8 C 9.49 g/m*3 10.8 C 0 km/h
2019 03-09-2021 06:00:00 10.9 C 9.55 g/m*3 10.9 C 0 km/h
2020 03-09-2021 06:05:00 11.1 C 9.67 g/m*3 11.1 C 0 km/h
2021 03-09-2021 06:10:00 11.1 C 9.67 g/m*3 11.1 C 0 km/h
2022 03-09-2021 06:15:00 11.2 C 9.73 g/m*3 11.2 C 0 km/h
2023 03-09-2021 06:20:00 11.2 C 9.73 g/m*3 11.2 C 0 km/h
2024 03-09-2021 06:25:00 11.2 C 9.73 g/m*3 11.2 C 0 km/h
2025 03-09-2021 06:30:00 11.2 C 9.73 g/m*3 11.2 C 0 km/h
Sensor: Nr:Datum:Temp:Abs-Feuchte:Windchill:Wind:
Aussen-T/F 2026 03-09-2021 06:35:00 11.3 C 9.79 g/m*3 11.3 C 0 km/h
2027 03-09-2021 06:40:00 11.3 C 9.79 g/m*3 11.3 C 0 km/h
2028 03-09-2021 06:45:00 11.3 C 9.79 g/m*3 11.3 C 0 km/h
2029 03-09-2021 06:50:00 11.3 C 9.79 g/m*3 11.3 C 0 km/h
2030 03-09-2021 06:55:00 11.4 C 9.85 g/m*3 11.4 C 0 km/h
2031 03-09-2021 07:00:00 11.5 C 9.92 g/m*3 11.5 C 0 km/h
2032 03-09-2021 07:05:00 11.6 C 9.98 g/m*3 11.6 C 1.6 km/h
2033 03-09-2021 07:10:00 11.6 C 9.98 g/m*3 11.6 C 0 km/h
2034 03-09-2021 07:15:00 11.6 C 9.98 g/m*3 11.6 C 0 km/h
2035 03-09-2021 07:20:00 11.7 C 10.04 g/m*3 11.7 C 1.6 km/h
2036 03-09-2021 07:25:00 11.6 C 9.98 g/m*3 11.6 C 0 km/h
2037 03-09-2021 07:30:00 11.6 C 9.98 g/m*3 11.6 C 0 km/h
2038 03-09-2021 07:35:00 11.6 C 9.98 g/m*3 11.6 C 0 km/h
2039 03-09-2021 07:40:00 11.6 C 9.98 g/m*3 11.6 C 1.6 km/h
2040 03-09-2021 07:45:00 11.6 C 9.98 g/m*3 11.6 C 1.6 km/h
2041 03-09-2021 07:50:00 11.6 C 9.98 g/m*3 11.6 C 0 km/h
2042 03-09-2021 07:55:00 11.5 C 9.92 g/m*3 11.5 C 1.6 km/h
2043 03-09-2021 08:00:00 11.5 C 9.92 g/m*3 11.5 C 0 km/h
2044 03-09-2021 08:05:00 11.5 C 9.92 g/m*3 11.5 C 0 km/h
2045 03-09-2021 08:10:00 11.5 C 9.92 g/m*3 11.5 C 0 km/h
2046 03-09-2021 08:15:00 11.5 C 9.92 g/m*3 11.5 C 0 km/h
2047 03-09-2021 08:20:00 11.5 C 9.92 g/m*3 11.5 C 0 km/h
2048 03-09-2021 08:25:00 11.6 C 9.98 g/m*3 11.6 C 0 km/h
2049 03-09-2021 08:30:00 11.6 C 9.98 g/m*3 11.6 C 0 km/h
2050 03-09-2021 08:35:00 11.6 C 10.08 g/m*3 11.6 C 0 km/h
Sensor: Nr:Datum:Temp:Abs-Feuchte:Windchill:Wind:
Aussen-T/F 2051 03-09-2021 08:40:00 11.7 C 10.15 g/m*3 11.7 C 0 km/h
2052 03-09-2021 08:45:00 11.8 C 10.21 g/m*3 11.8 C 1.6 km/h
2053 03-09-2021 08:50:00 11.8 C 10.21 g/m*3 11.8 C 0 km/h
2054 03-09-2021 08:55:00 11.8 C 10.21 g/m*3 11.8 C 0 km/h
2055 03-09-2021 09:00:00 11.9 C 10.27 g/m*3 11.9 C 0 km/h
2056 03-09-2021 09:05:00 11.9 C 10.27 g/m*3 11.9 C 1.6 km/h
2057 03-09-2021 09:10:00 11.9 C 10.27 g/m*3 11.9 C 1.6 km/h
2058 03-09-2021 09:15:00 12 C 10.34 g/m*3 12 C 0 km/h
2059 03-09-2021 09:20:00 12.1 C 10.4 g/m*3 12.1 C 1.6 km/h
2060 03-09-2021 09:25:00 12.2 C 10.47 g/m*3 12.2 C 3.2 km/h
2061 03-09-2021 09:30:00 12.2 C 10.47 g/m*3 12.2 C 1.6 km/h
2062 03-09-2021 09:35:00 12.2 C 10.47 g/m*3 12.2 C 0 km/h
2063 03-09-2021 09:40:00 12.3 C 10.53 g/m*3 12.3 C 0 km/h
2064 03-09-2021 09:45:00 12.4 C 10.6 g/m*3 12.4 C 0 km/h
2065 03-09-2021 09:50:00 12.6 C 10.73 g/m*3 12.6 C 0 km/h
2066 03-09-2021 09:55:00 12.7 C 10.8 g/m*3 12.7 C 0 km/h
2067 03-09-2021 10:00:00 12.9 C 10.93 g/m*3 12.9 C 0 km/h
2068 03-09-2021 10:05:00 13.1 C 11.07 g/m*3 13.1 C 1.6 km/h
2069 03-09-2021 10:10:00 13.2 C 11.14 g/m*3 13.2 C 0 km/h
2070 03-09-2021 10:15:00 13.3 C 11.21 g/m*3 13.3 C 3.2 km/h
2071 03-09-2021 10:20:00 13.3 C 11.21 g/m*3 13.3 C 0 km/h
2072 03-09-2021 10:25:00 13.3 C 11.21 g/m*3 13.3 C 1.6 km/h
2073 03-09-2021 10:30:00 13.3 C 11.21 g/m*3 13.3 C 0 km/h
2074 03-09-2021 10:35:00 13.4 C 11.28 g/m*3 13.4 C 0 km/h
2075 03-09-2021 10:40:00 13.5 C 11.35 g/m*3 13.5 C 0 km/h
Sensor: Nr:Datum:Temp:Abs-Feuchte:Windchill:Wind:
Aussen-T/F 2076 03-09-2021 10:45:00 13.6 C 11.42 g/m*3 13.6 C 0 km/h
2077 03-09-2021 15:15:00 22.7 C 12.32 g/m*3 22.7 C 8.1 km/h
2078 03-09-2021 15:20:00 22.8 C 12.4 g/m*3 22.8 C 6.4 km/h
2079 03-09-2021 15:25:00 23 C 13.15 g/m*3 23 C 8.1 km/h
2080 03-09-2021 15:30:00 23.1 C 14.88 g/m*3 23.1 C 3.2 km/h
2081 03-09-2021 15:35:00 23.1 C 13.85 g/m*3 23.1 C 4.8 km/h
2082 03-09-2021 15:40:00 22.9 C 12.26 g/m*3 22.9 C 3.2 km/h
2083 03-09-2021 15:45:00 23.1 C 13.44 g/m*3 23.1 C 3.2 km/h
2084 03-09-2021 15:50:00 23.2 C 14.34 g/m*3 23.2 C 3.2 km/h
2085 03-09-2021 15:55:00 23.2 C 13.93 g/m*3 23.2 C 6.4 km/h
2086 03-09-2021 16:00:00 23.2 C 14.55 g/m*3 23.2 C 3.2 km/h
2087 03-09-2021 16:05:00 23.1 C 13.85 g/m*3 23.1 C 0 km/h
2088 03-09-2021 16:10:00 23 C 13.15 g/m*3 23 C 8.1 km/h
2089 03-09-2021 16:15:00 23.1 C 12.82 g/m*3 23.1 C 6.4 km/h
2090 03-09-2021 16:20:00 23.4 C 12.2 g/m*3 23.4 C 3.2 km/h
2091 03-09-2021 16:25:00 23.8 C 13.98 g/m*3 23.8 C 3.2 km/h
2092 03-09-2021 16:30:00 24 C 14.14 g/m*3 24 C 1.6 km/h
2093 03-09-2021 16:35:00 24.2 C 12.98 g/m*3 24.2 C 6.4 km/h
2094 03-09-2021 16:40:00 24.6 C 13.5 g/m*3 24.6 C 6.4 km/h
2095 03-09-2021 16:45:00 25.1 C 13.43 g/m*3 25.1 C 4.8 km/h
2096 03-09-2021 16:50:00 25.7 C 12.45 g/m*3 25.7 C 8.1 km/h
2097 03-09-2021 16:55:00 26.3 C 13.86 g/m*3 26.3 C 3.2 km/h
2098 03-09-2021 17:00:00 26.6 C 13.09 g/m*3 26.6 C 1.6 km/h
2099 03-09-2021 17:05:00 26.8 C 15.78 g/m*3 26.8 C 3.2 km/h
2100 03-09-2021 17:10:00 26.8 C 15.27 g/m*3 26.8 C 3.2 km/h
Sensor: Nr:Datum:Temp:Abs-Feuchte:Windchill:Wind:
Aussen-T/F 2101 03-09-2021 17:15:00 26.8 C 12.22 g/m*3 26.8 C 6.4 km/h
2102 03-09-2021 17:20:00 26.9 C 15.61 g/m*3 26.9 C 3.2 km/h
2103 03-09-2021 17:25:00 26.9 C 16.12 g/m*3 26.9 C 0 km/h
2104 03-09-2021 17:30:00 27 C 15.96 g/m*3 27 C 3.2 km/h
2105 03-09-2021 17:35:00 27 C 16.21 g/m*3 27 C 1.6 km/h
2106 03-09-2021 17:40:00 27 C 15.7 g/m*3 27 C 3.2 km/h
2107 03-09-2021 17:45:00 26.8 C 15.27 g/m*3 26.8 C 3.2 km/h
2108 03-09-2021 17:50:00 26.7 C 15.44 g/m*3 26.7 C 0 km/h
2109 03-09-2021 17:55:00 26.3 C 15.6 g/m*3 26.3 C 0 km/h
2110 03-09-2021 18:00:00 25.9 C 15.49 g/m*3 25.9 C 1.6 km/h
2111 03-09-2021 18:05:00 25.7 C 15.8 g/m*3 25.7 C 3.2 km/h
2112 03-09-2021 18:10:00 25.4 C 15.54 g/m*3 25.4 C 3.2 km/h
2113 03-09-2021 18:15:00 25.1 C 15.51 g/m*3 25.1 C 3.2 km/h
2114 03-09-2021 18:20:00 24.9 C 15.34 g/m*3 24.9 C 4.8 km/h
2115 03-09-2021 18:25:00 24.7 C 15.16 g/m*3 24.7 C 6.4 km/h
2116 03-09-2021 18:30:00 24.6 C 15.3 g/m*3 24.6 C 6.4 km/h
2117 03-09-2021 18:35:00 24.3 C 14.83 g/m*3 24.3 C 6.4 km/h
2118 03-09-2021 18:40:00 24.1 C 14.88 g/m*3 24.1 C 4.8 km/h
2119 03-09-2021 18:45:00 23.9 C 14.71 g/m*3 23.9 C 6.4 km/h
2120 03-09-2021 18:50:00 23.7 C 14.76 g/m*3 23.7 C 6.4 km/h
2121 03-09-2021 18:55:00 23.4 C 14.3 g/m*3 23.4 C 4.8 km/h
2122 03-09-2021 19:00:00 23.2 C 14.34 g/m*3 23.2 C 6.4 km/h
2123 03-09-2021 19:05:00 22.9 C 14.1 g/m*3 22.9 C 8.1 km/h
2124 03-09-2021 19:10:00 22.7 C 13.94 g/m*3 22.7 C 4.8 km/h
2125 03-09-2021 19:15:00 22.4 C 13.9 g/m*3 22.4 C 4.8 km/h
Sensor: Nr:Datum:Temp:Abs-Feuchte:Windchill:Wind:
Aussen-T/F 2126 03-09-2021 19:20:00 22.2 C 13.94 g/m*3 22.2 C 6.4 km/h
2127 03-09-2021 19:25:00 21.9 C 13.7 g/m*3 21.9 C 4.8 km/h
2128 03-09-2021 19:30:00 21.7 C 13.54 g/m*3 21.7 C 6.4 km/h
2129 03-09-2021 19:35:00 21.3 C 13.42 g/m*3 21.3 C 4.8 km/h
2130 03-09-2021 19:40:00 21.1 C 13.27 g/m*3 21.1 C 4.8 km/h
2131 03-09-2021 19:45:00 20.7 C 13.14 g/m*3 20.7 C 4.8 km/h
2132 03-09-2021 19:50:00 20.4 C 13.09 g/m*3 20.4 C 4.8 km/h
2133 03-09-2021 19:55:00 20.1 C 13.04 g/m*3 20.1 C 4.8 km/h
2134 03-09-2021 20:00:00 19.8 C 12.81 g/m*3 19.8 C 0 km/h
2135 03-09-2021 20:05:00 19.5 C 12.75 g/m*3 19.5 C 3.2 km/h
2136 03-09-2021 20:10:00 19.2 C 12.7 g/m*3 19.2 C 1.6 km/h
2137 03-09-2021 20:15:00 19 C 12.55 g/m*3 19 C 4.8 km/h
2138 03-09-2021 20:20:00 18.8 C 12.4 g/m*3 18.8 C 6.4 km/h
2139 03-09-2021 20:25:00 18.6 C 12.41 g/m*3 18.6 C 4.8 km/h
2140 03-09-2021 20:30:00 18.3 C 12.35 g/m*3 18.3 C 4.8 km/h
2141 03-09-2021 20:35:00 18.1 C 12.36 g/m*3 18.1 C 0 km/h
2142 03-09-2021 20:40:00 17.8 C 12.14 g/m*3 17.8 C 0 km/h
2143 03-09-2021 20:45:00 17.7 C 12.22 g/m*3 17.7 C 0 km/h
2144 03-09-2021 20:50:00 17.4 C 12.15 g/m*3 17.4 C 0 km/h
2145 03-09-2021 20:55:00 17.2 C 12.15 g/m*3 17.2 C 0 km/h
2146 03-09-2021 21:00:00 17.1 C 12.23 g/m*3 17.1 C 0 km/h
2147 03-09-2021 21:05:00 16.9 C 12.08 g/m*3 16.9 C 0 km/h
2148 03-09-2021 21:10:00 16.7 C 12.08 g/m*3 16.7 C 0 km/h
2149 03-09-2021 21:15:00 16.6 C 12.15 g/m*3 16.6 C 0 km/h
2150 03-09-2021 21:20:00 16.5 C 12.08 g/m*3 16.5 C 0 km/h
Sensor: Nr:Datum:Temp:Abs-Feuchte:Windchill:Wind:
Aussen-T/F 2151 03-09-2021 21:25:00 16.4 C 12 g/m*3 16.4 C 0 km/h
2152 03-09-2021 21:30:00 16.2 C 12 g/m*3 16.2 C 0 km/h
2153 03-09-2021 21:35:00 16.1 C 11.93 g/m*3 16.1 C 0 km/h
2154 03-09-2021 21:40:00 16 C 11.99 g/m*3 16 C 0 km/h
2155 03-09-2021 21:45:00 15.9 C 11.92 g/m*3 15.9 C 0 km/h
2156 03-09-2021 21:50:00 15.8 C 11.98 g/m*3 15.8 C 0 km/h
2157 03-09-2021 21:55:00 15.7 C 11.91 g/m*3 15.7 C 0 km/h
2158 03-09-2021 22:00:00 15.6 C 11.84 g/m*3 15.6 C 0 km/h
2159 03-09-2021 22:05:00 15.5 C 11.76 g/m*3 15.5 C 0 km/h
2160 03-09-2021 22:10:00 15.4 C 11.69 g/m*3 15.4 C 0 km/h
2161 03-09-2021 22:15:00 15.3 C 11.62 g/m*3 15.3 C 0 km/h
2162 03-09-2021 22:20:00 15.2 C 11.55 g/m*3 15.2 C 0 km/h
2163 03-09-2021 22:25:00 15.1 C 11.48 g/m*3 15.1 C 0 km/h
2164 03-09-2021 22:30:00 15 C 11.54 g/m*3 15 C 0 km/h
2165 03-09-2021 22:35:00 14.9 C 11.47 g/m*3 14.9 C 0 km/h
2166 03-09-2021 22:40:00 14.8 C 11.4 g/m*3 14.8 C 0 km/h
2167 03-09-2021 22:45:00 14.7 C 11.33 g/m*3 14.7 C 0 km/h
2168 03-09-2021 22:50:00 14.6 C 11.26 g/m*3 14.6 C 0 km/h
2169 03-09-2021 22:55:00 14.4 C 11.13 g/m*3 14.4 C 0 km/h
2170 03-09-2021 23:00:00 14.3 C 11.06 g/m*3 14.3 C 0 km/h
2171 03-09-2021 23:05:00 14.3 C 11.06 g/m*3 14.3 C 0 km/h
2172 03-09-2021 23:10:00 14.2 C 11.11 g/m*3 14.2 C 0 km/h
2173 03-09-2021 23:15:00 14.1 C 11.04 g/m*3 14.1 C 0 km/h
2174 03-09-2021 23:20:00 14.1 C 11.04 g/m*3 14.1 C 0 km/h
2175 03-09-2021 23:25:00 13.9 C 10.91 g/m*3 13.9 C 0 km/h
Sensor: Nr:Datum:Temp:Abs-Feuchte:Windchill:Wind:
Aussen-T/F 2176 03-09-2021 23:30:00 13.9 C 10.91 g/m*3 13.9 C 0 km/h
2177 03-09-2021 23:35:00 13.8 C 10.96 g/m*3 13.8 C 0 km/h
2178 03-09-2021 23:40:00 13.7 C 10.78 g/m*3 13.7 C 0 km/h
2179 03-09-2021 23:45:00 13.7 C 10.89 g/m*3 13.7 C 0 km/h
2180 03-09-2021 23:50:00 13.6 C 10.83 g/m*3 13.6 C 0 km/h
2181 03-09-2021 23:55:00 13.5 C 10.76 g/m*3 13.5 C 0 km/h

Legende:
   Min
   Max


Maximal/Minimal-Werte vom 27.08.2021 - 03.09.2021

Sensor Min Max Avg
Temp
(Aussen-T/F)
10.4 °C
02-09-2021  02:35:00
27 °C
03-09-2021  17:30:00
15.61 °C
Abs-Feuchte
(Aussen-T/F)
9.12 g/m*3
02-09-2021  02:15:00
16.21 g/m*3
03-09-2021  17:35:00
11.75 g/m*3
Windchill
(Aussen-T/F)
10.4 C
02-09-2021  02:35:00
27 C
03-09-2021  17:30:00
15.61 C

Die Daten stammen von einer Davis Vantage Pro 2 Wetter-Station und werden unter Linux mit der Software wview2wettercgi und aufbereitet. Alle Angaben erfolgen ohne Gewähr für ihre Vollständigkeit oder Richtigkeit.
Kontakt: Rainer Krienke krienke@uni-koblenz.de . Meine Webseiten an der Uni Koblenz oder privat.
Version: $Revision: 0.78 $